GFSSE_250_spd_000.txt.gz
Wind_Speed
117 119 120 122 121 116 121 121 119 116 115 114 109 98 92 91 76 72 65 58 47 42 38 33 32 31 33 37 40 45 49 48 55 56 52 51 59 67 62 67 66 65 66
120 119 118 115 119 121 114 114 113 109 114 105 99 84 83 76 69 59 41 33 22 28 33 32 20 26 36 40 44 47 48 53 53 56 60 59 54 65 60 58 63 65 68
119 120 118 117 114 111 108 106 103 103 99 90 83 81 72 68 59 43 34 28 24 28 27 22 24 28 37 44 47 48 45 47 50 55 58 59 59 56 62 58 56 62 66
120 114 108 107 105 109 107 99 98 98 92 86 80 75 63 58 50 39 40 35 41 53 37 21 9 33 45 50 56 56 56 51 46 48 55 64 67 71 67 64 64 61 59
106 105 101 100 100 102 97 95 92 88 85 74 72 69 56 47 39 43 49 49 44 42 47 29 20 35 38 43 52 66 61 54 51 48 52 62 63 61 65 65 64 62 60
102 102 97 99 96 95 93 87 84 77 73 70 67 60 51 45 41 48 50 58 45 50 50 30 29 37 36 45 53 58 55 57 55 52 46 50 56 57 56 53 50 55 53
100 100 96 95 89 85 81 79 76 70 68 62 59 57 56 47 46 53 58 58 59 59 55 48 36 40 31 37 44 50 55 51 57 52 53 49 49 49 50 51 51 48 47
77 78 77 74 71 67 67 67 64 57 55 56 53 51 48 45 51 58 62 60 62 70 64 60 61 45 52 56 52 54 56 62 62 63 59 51 51 53 52 53 55 51 49
75 69 66 63 62 58 57 56 51 49 48 49 47 47 45 46 50 59 65 65 67 71 71 74 75 65 53 59 61 55 66 66 57 53 52 52 57 58 53 51 57 58 51
62 60 58 55 52 51 48 45 43 43 43 44 42 43 46 47 46 53 55 63 67 77 76 86 82 76 60 66 65 72 66 64 68 61 55 54 53 51 49 51 50 53 49
46 44 43 42 41 39 36 38 37 40 40 41 40 38 39 44 46 49 53 52 58 84 81 89 91 89 72 72 66 83 85 76 70 61 48 45 48 48 54 52 48 48 53
33 33 34 35 36 35 35 34 37 39 39 38 38 38 39 41 44 48 52 56 60 66 84 92 97 97 86 80 71 70 81 78 66 62 47 40 40 49 46 48 49 48 50
27 27 27 29 30 32 34 36 38 39 40 41 42 43 45 46 47 48 52 56 62 67 83 92 96 97 96 86 79 82 76 69 78 70 57 45 43 45 52 47 50 49 53
24 26 27 29 31 32 32 33 37 41 44 46 47 48 50 51 51 50 52 54 58 65 74 89 105 103 106 108 102 97 92 81 74 73 68 54 54 47 45 50 51 54 57
25 21 21 23 23 22 21 25 31 37 41 43 48 50 53 54 55 57 57 56 56 60 68 76 84 100 106 111 114 109 103 94 79 73 68 62 59 56 47 46 51 54 59
27 29 27 30 29 28 27 22 22 23 25 33 38 44 48 53 57 60 62 63 63 60 65 70 76 83 91 98 103 104 95 92 84 76 75 68 63 55 53 48 49 50 55
28 25 20 24 21 21 21 19 21 18 23 23 23 26 32 35 43 56 63 66 70 71 67 70 71 79 80 85 85 90 89 86 84 82 78 75 69 64 60 55 52 51 53
38 37 35 37 38 36 31 32 31 28 24 23 26 28 31 31 31 36 43 60 71 78 76 73 76 77 78 81 85 89 93 91 88 87 84 77 73 69 65 63 62 57 55
42 40 42 42 40 41 42 42 40 38 35 36 29 32 35 32 35 37 43 46 50 72 82 83 80 82 85 84 88 87 95 93 94 90 88 78 80 72 66 62 65 63 62
43 44 48 48 48 48 48 52 48 46 44 46 44 45 51 40 45 48 48 52 55 58 73 86 88 88 89 91 93 94 92 97 98 96 92 89 85 82 75 74 75 70 69
45 48 50 54 55 57 56 58 60 57 57 58 53 50 55 53 58 60 54 51 55 57 66 81 92 93 95 97 98 100 99 99 101 105 97 96 92 96 85 84 83 81 77
43 45 50 54 55 57 60 60 64 65 64 65 65 64 62 65 67 67 67 64 61 60 64 74 87 95 100 104 104 104 108 107 106 105 106 104 103 104 103 97 92 91 87
43 46 49 53 53 55 58 63 62 65 69 70 72 74 70 71 70 73 73 68 66 67 68 72 80 95 101 108 111 112 110 111 114 111 109 109 105 107 109 108 98 96 95
50 54 56 56 57 57 57 63 70 69 69 74 78 82 84 80 82 80 77 75 75 73 76 74 75 83 97 110 118 118 123 119 117 118 112 111 112 112 113 113 109 105 104
55 57 57 60 61 63 65 67 69 76 77 82 88 91 93 93 93 89 87 77 77 76 76 75 78 80 84 95 110 122 126 126 129 122 121 115 115 115 115 115 111 109 106
60 58 61 63 65 69 71 75 79 78 85 90 96 100 100 101 99 97 96 87 84 84 81 77 75 80 84 90 101 112 126 131 130 131 129 125 121 120 117 116 116 112 111

GFSSE_250_spd_003.txt.gz
Wind_Speed
120 121 121 123 127 128 128 127 128 115 114 111 108 105 102 97 97 92 90 79 72 63 53 48 54 52 31 37 34 34 35 37 38 37 36 32 39 39 45 49 52 56 56
122 123 126 126 125 129 126 123 115 115 113 108 104 101 97 95 89 87 76 67 57 52 37 26 31 43 34 28 30 33 33 38 40 38 38 38 38 39 42 42 48 57 57
134 131 131 129 123 121 117 112 106 105 103 102 99 98 96 88 84 75 76 60 51 53 29 32 27 29 26 34 34 38 33 36 34 37 39 38 37 40 44 46 45 46 54
127 121 123 117 108 111 105 103 101 96 100 99 94 92 91 85 73 69 65 50 48 48 42 43 35 29 17 32 38 38 36 38 41 40 43 47 43 41 45 50 51 51 44
115 107 107 104 101 99 96 98 96 97 95 95 91 88 83 77 70 63 55 44 49 49 54 47 38 36 27 42 43 36 32 33 42 48 46 45 47 43 45 46 51 52 54
96 94 97 93 91 88 87 86 85 83 81 77 75 74 71 61 62 55 50 46 50 48 53 50 52 45 44 32 37 34 40 38 45 52 47 49 47 42 41 42 51 55 55
99 99 93 85 86 90 85 75 71 70 65 62 63 60 54 50 50 48 46 50 52 42 61 50 61 54 47 42 26 39 38 48 46 49 49 41 44 43 44 41 38 39 43
82 81 76 78 77 73 74 67 62 61 60 56 52 51 46 44 42 45 47 49 54 48 55 66 65 60 56 51 53 49 47 53 54 54 49 43 49 47 45 42 49 50 52
65 67 64 61 60 54 51 46 46 45 44 43 41 38 39 37 41 46 49 54 59 53 57 63 72 64 62 56 60 66 56 59 60 59 59 53 49 51 53 51 46 51 52
54 47 44 43 42 36 34 36 35 34 33 33 33 33 35 34 39 43 54 56 61 60 57 67 66 70 78 73 69 72 69 59 60 59 59 53 54 55 54 51 52 52 51
30 28 27 27 31 30 32 31 28 29 31 31 30 32 34 34 38 43 51 58 65 68 63 66 73 75 81 76 79 62 65 62 58 54 53 63 63 56 54 51 54 56 49
21 21 20 21 22 23 24 28 28 29 29 33 31 31 32 31 35 38 43 48 55 60 68 69 74 78 86 92 83 86 78 73 73 64 59 58 64 61 58 57 55 54 54
15 16 19 19 18 19 18 19 22 26 30 33 36 38 38 39 38 41 44 48 50 56 58 66 68 76 85 94 94 99 99 95 80 74 68 66 68 68 65 59 50 50 50
27 26 26 26 22 20 17 20 19 19 21 23 27 33 38 41 44 46 48 50 54 60 61 62 63 68 91 91 101 98 101 106 99 89 76 70 72 80 75 63 61 57 46
25 28 30 34 32 36 29 27 22 23 18 20 22 22 27 30 35 42 46 51 54 58 63 65 70 71 75 92 99 105 106 108 106 88 88 76 80 77 78 82 80 61 51
36 37 33 33 34 32 32 33 30 26 28 20 25 22 16 23 25 29 36 47 52 57 63 68 71 74 77 78 91 97 110 113 113 109 94 86 85 90 91 86 86 72 59
37 39 39 37 36 36 33 35 35 32 30 32 35 36 35 33 29 34 36 34 38 51 60 68 74 77 79 80 82 84 97 112 117 120 114 105 97 95 92 89 87 86 79
34 35 38 39 38 36 38 37 38 36 35 38 41 39 40 40 42 43 41 42 45 45 51 63 72 78 83 86 86 84 87 91 98 100 114 116 114 112 97 86 90 85 90
36 36 37 37 37 40 40 40 39 41 42 42 44 47 49 50 55 57 56 52 50 50 51 59 59 66 80 88 90 90 85 88 88 94 98 106 111 115 113 104 100 97 84
34 34 35 35 37 37 41 41 40 42 44 43 44 46 52 57 62 64 66 67 64 58 55 58 63 68 67 76 87 95 95 91 92 92 93 98 103 101 101 105 109 104 91
38 38 34 36 38 41 44 44 47 47 52 54 55 56 56 61 65 69 72 71 70 67 65 62 62 68 74 77 77 86 97 99 95 96 96 98 98 103 102 104 103 105 105
40 41 41 41 42 44 49 52 55 54 57 59 60 60 60 66 69 72 76 80 77 74 72 72 71 66 74 82 85 85 90 101 104 100 101 103 102 100 101 104 102 103 102
43 45 46 42 46 48 50 56 59 60 62 65 65 64 65 69 75 80 80 85 87 84 82 79 77 75 72 77 86 88 89 93 104 109 105 105 107 108 104 105 107 104 105
46 49 52 54 58 59 60 64 64 66 66 67 71 73 75 79 84 87 88 93 95 94 89 84 81 82 80 78 81 89 90 93 95 104 113 109 110 110 113 109 107 107 105
49 54 56 59 66 70 70 68 67 67 70 73 75 78 82 88 89 92 101 100 102 99 89 85 81 81 82 80 80 81 86 87 92 99 107 116 113 114 114 115 111 111 111
54 60 66 66 66 69 71 73 73 73 76 78 81 82 92 96 97 100 109 106 112 101 92 85 82 79 76 77 75 74 79 84 86 93 100 111 118 117 119 118 116 113 112

GFSSE_250_spd_009.txt.gz
Wind_Speed
103 107 111 116 119 122 125 123 122 127 125 130 126 119 111 108 101 98 94 93 92 93 88 87 84 83 76 72 71 70 67 67 69 68 62 62 63 61 65 58 57 62 62
114 119 126 125 121 124 127 129 128 122 120 115 116 114 104 103 102 95 94 88 85 85 82 75 71 73 70 66 62 62 63 59 60 61 60 51 47 54 56 56 52 51 55
126 124 125 130 126 127 124 120 121 118 114 110 109 104 103 101 98 93 94 87 85 78 75 71 64 62 57 49 54 57 54 59 62 51 47 48 47 42 49 48 44 49 51
132 131 131 128 126 120 120 117 115 114 108 106 106 101 100 98 92 92 79 73 65 67 63 57 56 51 51 47 53 52 56 62 63 61 49 51 46 40 44 45 47 49 51
134 130 127 117 117 116 113 105 101 100 93 91 89 80 77 71 71 73 73 72 68 59 57 50 46 47 47 45 59 60 60 58 58 55 47 54 50 44 47 43 42 48 48
128 127 116 109 107 98 93 84 77 73 74 64 66 66 66 68 68 65 64 58 57 50 49 45 43 47 52 51 56 63 62 63 60 54 48 55 57 49 46 42 42 47 44
120 115 107 98 86 73 69 69 65 60 58 59 56 56 53 52 53 52 52 48 46 43 43 41 43 50 55 57 57 63 62 61 58 49 49 51 47 50 50 47 39 41 46
101 85 69 65 63 56 53 53 52 51 48 46 43 41 40 41 40 39 41 43 43 41 43 41 46 51 58 56 57 58 61 50 56 50 48 52 51 50 56 57 44 45 45
56 55 47 43 40 38 37 39 37 36 34 31 31 31 29 29 29 28 29 33 38 40 41 42 47 53 57 54 56 60 67 60 60 54 52 55 50 55 55 64 58 46 52
39 30 27 25 25 23 19 20 19 19 20 19 19 20 22 22 23 25 26 27 28 33 37 42 45 52 57 53 55 60 63 57 58 51 55 57 59 56 55 56 58 60 51
14 13 7 9 7 5 4 4 7 12 14 13 14 14 14 16 19 24 25 26 28 30 31 35 41 51 54 57 58 59 66 63 60 61 55 53 55 60 53 50 52 54 47
6 10 14 15 15 14 14 12 11 19 22 24 24 26 25 26 26 20 21 21 27 31 33 35 39 41 51 54 55 57 69 70 72 67 67 59 59 62 58 60 56 52 50
16 20 20 21 21 21 22 21 21 20 19 19 19 20 20 21 20 22 23 24 22 19 26 35 39 41 47 48 59 60 58 75 79 79 72 68 62 59 69 69 62 52 51
20 20 20 19 21 22 22 21 20 18 16 14 15 17 14 16 16 15 17 19 19 21 21 19 24 36 44 50 52 58 65 60 78 80 80 77 76 64 63 70 76 71 69
15 17 18 19 18 19 20 21 22 21 21 22 22 19 20 19 20 22 25 26 25 25 23 20 20 21 28 35 44 58 63 70 71 74 84 87 81 86 79 60 68 80 83
18 18 20 20 18 21 24 24 26 27 28 27 29 29 27 26 26 27 27 26 26 24 21 25 26 21 17 22 28 37 47 56 69 78 78 84 92 92 87 87 72 71 76
20 19 21 22 22 23 25 26 26 28 31 35 37 37 34 32 32 35 34 32 32 32 32 32 32 30 33 36 30 29 30 37 51 61 76 84 81 86 98 90 88 87 73
25 25 25 25 24 26 27 30 32 33 33 34 37 37 35 34 34 36 37 38 40 42 42 40 41 43 44 43 43 42 44 41 40 49 59 69 86 87 84 90 104 98 95
26 28 31 33 34 33 35 35 36 38 41 41 40 42 42 43 44 44 45 47 47 49 50 51 52 53 55 54 53 53 52 52 52 52 48 60 69 81 93 90 90 107 112
33 33 35 37 38 38 39 42 46 47 48 50 51 50 50 52 53 53 51 51 51 53 56 59 60 61 63 64 64 64 63 61 60 59 61 60 65 72 81 88 98 94 106
38 40 42 41 39 40 43 47 52 56 57 58 58 53 53 56 57 57 59 60 60 60 62 65 68 68 68 68 70 70 70 70 68 64 67 67 71 75 79 83 87 98 96
43 45 48 49 47 47 49 53 58 62 61 62 62 60 60 62 64 65 66 68 67 67 69 73 76 78 78 79 80 81 81 78 74 74 75 77 76 76 82 87 87 90 103
53 54 55 57 59 61 62 62 62 64 64 66 67 69 70 71 71 72 75 76 78 80 82 81 82 86 90 90 89 89 89 87 86 86 84 85 83 83 86 92 95 94 93
56 58 60 62 65 67 66 67 67 68 69 70 73 76 79 81 81 84 86 87 89 90 90 90 91 92 93 97 97 98 99 101 95 89 94 92 88 87 88 92 98 100 99
56 58 61 65 69 70 71 70 71 73 76 78 80 83 86 88 91 93 96 99 101 103 103 102 102 102 103 104 102 101 104 103 97 93 86 95 92 90 89 90 96 101 102
59 63 65 67 67 70 72 75 77 79 82 86 90 92 95 97 99 101 102 104 107 110 110 107 104 103 101 101 100 100 98 97 94 90 90 82 85 92 92 91 94 99 102

GFSSE_250_spd_012.txt.gz
Wind_Speed
106 107 109 107 113 115 117 124 125 120 121 125 117 120 116 110 106 111 110 107 103 99 95 91 89 84 84 80 77 77 75 75 72 66 63 63 65 66 66 68 66 65 62
112 111 112 118 123 125 124 126 124 121 118 116 116 113 107 113 110 106 101 92 95 92 87 87 82 86 81 78 75 72 69 64 62 61 61 60 61 63 63 63 66 65 59
113 113 113 117 121 123 121 121 120 120 114 111 110 114 110 102 97 92 90 79 73 76 75 73 71 68 68 69 66 63 60 58 54 53 54 54 59 60 60 52 56 58 58
115 118 120 123 121 120 115 118 120 116 111 112 105 97 99 88 81 73 68 63 59 58 56 51 55 57 58 59 60 55 47 49 50 48 46 52 58 57 56 52 49 50 51
125 121 127 127 120 117 118 115 116 105 94 90 85 86 76 71 69 62 61 59 52 53 52 58 59 59 60 58 52 50 42 49 48 48 46 55 56 60 55 51 49 47 49
132 126 127 125 120 119 111 96 85 84 75 68 62 58 59 56 57 56 58 55 54 53 54 53 52 49 51 54 54 48 41 47 51 51 51 58 58 60 61 53 50 48 51
129 127 120 112 98 84 69 60 61 54 55 49 45 45 45 45 43 42 42 40 41 43 44 46 44 45 45 47 46 47 43 43 51 61 55 54 54 55 58 61 53 52 54
121 103 95 75 65 61 53 51 48 42 36 35 34 34 34 35 34 33 30 30 31 33 35 36 37 40 42 43 45 46 43 43 50 62 58 55 52 50 54 63 57 53 58
82 67 58 53 51 45 43 41 33 29 26 25 25 25 24 25 27 28 27 25 25 24 25 28 32 35 38 41 45 44 44 45 48 54 61 60 56 50 43 51 53 51 61
52 45 40 34 23 24 19 16 11 12 9 10 12 13 12 14 13 16 20 22 24 25 24 25 28 33 35 37 42 45 45 47 49 54 56 64 66 60 54 43 46 53 51
21 16 9 10 11 9 8 6 7 10 10 11 14 14 14 15 13 15 16 16 15 16 21 23 26 28 30 35 39 39 44 47 48 57 53 56 67 61 60 53 53 52 55
7 9 11 11 12 15 16 17 17 20 20 22 24 21 23 23 22 19 20 21 21 15 11 12 21 26 30 32 34 39 44 45 51 54 57 60 61 59 63 65 57 51 54
9 11 14 14 16 15 15 13 16 15 18 23 24 23 24 25 24 22 22 25 25 22 20 14 12 12 14 25 32 36 37 45 54 56 59 61 61 65 61 69 65 66 61
12 15 19 19 18 19 21 23 23 22 21 25 26 29 31 28 28 28 27 27 27 26 24 22 20 18 19 16 20 26 34 42 43 56 58 69 69 64 65 68 70 64 59
14 15 19 22 20 23 27 27 26 25 27 28 29 29 33 32 31 31 31 32 30 30 28 23 21 22 19 18 17 17 20 28 39 50 58 63 63 74 75 70 65 73 70
14 15 17 20 22 22 24 25 27 28 28 28 28 29 29 30 31 31 32 33 33 33 34 33 33 32 27 26 25 26 27 23 25 33 45 59 65 72 74 79 77 76 77
23 24 25 26 28 30 31 29 29 30 31 32 35 37 38 39 39 38 38 38 38 39 40 41 40 40 40 39 37 35 35 36 35 35 33 36 53 67 73 78 83 82 80
23 22 21 24 28 32 33 34 33 34 36 39 41 44 44 44 45 43 43 42 41 42 42 42 42 43 45 46 48 50 50 48 46 46 46 45 40 48 61 76 82 83 93
31 32 33 36 39 42 43 43 43 46 49 51 51 51 49 47 47 48 49 50 51 52 53 52 52 52 53 53 53 54 55 56 56 54 52 53 53 52 51 49 71 83 86
43 45 45 45 46 48 49 50 51 53 54 54 54 55 55 55 57 58 58 60 60 61 62 62 63 63 63 62 62 63 64 64 65 64 63 60 59 59 59 61 56 61 80
47 46 47 48 50 53 54 55 56 57 60 62 62 62 62 63 63 64 64 67 67 67 69 71 72 73 74 74 74 75 75 75 75 74 73 72 71 70 69 68 68 68 65
51 55 53 53 55 56 59 59 58 57 58 61 65 68 68 67 70 72 74 76 78 80 81 82 82 83 84 85 83 83 83 83 83 83 81 80 80 80 80 78 75 74 76
54 57 58 58 60 61 58 58 61 64 65 68 72 74 77 80 82 83 85 87 91 94 94 95 95 95 95 95 96 95 93 92 95 94 92 89 89 88 89 88 86 84 83
54 55 57 60 59 61 62 64 66 70 72 75 78 81 84 87 90 94 96 98 100 102 103 102 101 101 100 99 99 102 107 103 98 97 97 97 94 94 95 95 94 93 91
54 56 57 59 62 66 70 73 74 77 80 83 88 90 92 95 98 102 106 106 105 106 107 104 105 105 101 100 98 96 97 101 100 96 95 98 98 99 98 96 96 96 96
56 59 62 66 70 74 78 82 84 87 91 93 96 98 101 102 104 108 109 110 109 108 106 105 100 97 93 94 96 93 92 93 95 98 96 96 98 103 102 101 100 99 99

GFSSE_250_spd_015.txt.gz
Wind_Speed
97 107 106 107 108 110 113 112 107 105 109 103 116 117 114 115 118 117 106 106 104 100 101 101 101 101 96 92 89 87 83 81 77 75 70 66 65 65 65 66 68 62 63
106 112 114 115 117 116 114 115 116 118 120 120 120 115 113 112 114 107 107 98 97 98 92 92 88 81 76 77 73 75 74 72 71 70 69 61 60 58 56 54 56 58 58
109 107 113 120 122 129 121 123 126 125 122 123 117 108 102 98 94 90 85 76 77 71 77 80 72 69 67 64 62 63 62 60 62 65 65 61 57 50 53 55 56 54 56
110 116 116 119 123 129 129 126 119 115 114 102 97 95 86 80 71 69 70 67 63 63 61 61 58 57 53 51 50 47 50 47 50 53 53 54 52 51 55 58 55 56 55
115 120 127 128 126 118 122 126 118 102 91 80 72 74 71 67 58 58 56 55 52 52 51 54 57 52 51 49 49 50 51 51 47 50 51 50 50 50 54 60 54 59 53
127 127 127 122 124 118 112 102 83 72 65 60 59 54 51 51 47 43 41 37 40 41 41 44 45 49 50 56 60 55 51 50 47 45 47 46 45 43 40 60 58 58 58
125 121 113 113 108 91 76 75 60 53 50 47 45 41 39 37 35 32 31 30 30 30 31 31 31 34 37 38 41 41 42 43 42 46 47 46 46 39 44 60 56 54 50
111 105 104 91 71 65 56 50 44 38 33 32 32 31 29 25 25 26 23 21 23 24 24 23 24 26 28 30 33 36 37 38 39 44 44 46 47 44 53 55 56 51 55
96 82 74 60 50 41 34 29 27 25 23 19 20 21 18 18 17 14 12 13 17 20 21 22 22 22 22 23 26 31 34 35 37 43 39 42 48 46 56 56 58 51 57
63 59 48 40 36 31 27 24 19 16 16 19 19 18 19 20 17 16 17 16 17 17 17 18 19 19 20 20 22 25 25 30 34 38 38 39 49 48 57 57 60 58 59
40 33 27 25 23 22 20 21 19 19 22 24 25 25 27 28 28 26 26 23 22 23 21 17 19 22 21 20 21 21 22 26 33 37 39 42 46 47 55 60 56 60 57
17 16 19 23 22 22 23 23 21 21 21 21 23 24 25 27 26 27 27 27 27 26 24 19 16 16 18 20 23 23 24 24 32 37 41 45 51 50 54 63 62 58 56
15 17 15 16 14 14 18 18 19 20 22 23 24 23 23 25 26 26 26 26 26 26 25 25 22 19 17 19 19 20 25 27 28 36 42 45 52 52 54 59 66 61 56
10 11 11 13 17 19 21 24 23 22 22 21 21 23 25 28 29 29 28 27 26 28 28 27 27 25 24 23 22 20 19 19 28 34 43 47 52 58 57 62 63 67 68
9 15 20 23 25 27 29 30 29 27 27 28 29 29 31 34 36 36 35 34 33 32 31 31 31 29 27 30 32 28 27 23 21 25 35 44 55 57 63 58 63 66 67
17 23 24 24 25 30 33 33 34 36 37 36 37 40 43 43 43 42 40 39 38 38 38 36 36 37 36 37 37 36 35 33 33 30 28 32 43 51 59 65 63 65 68
19 26 30 30 32 35 36 37 39 42 44 45 46 47 49 49 49 49 48 45 43 43 43 44 43 43 42 42 42 42 42 42 44 42 41 37 38 40 56 64 72 68 64
27 29 28 30 35 38 41 44 46 48 48 48 49 50 49 48 49 49 50 51 50 51 53 53 53 53 53 52 52 51 50 50 50 51 51 50 49 47 46 47 65 75 79
35 33 38 42 41 42 46 48 47 48 49 49 49 47 47 47 49 52 54 57 57 58 59 60 61 61 62 63 63 62 61 60 59 58 59 59 57 55 55 55 54 56 73
41 46 48 46 46 49 52 50 49 49 52 53 54 55 57 57 58 60 61 61 63 63 66 68 69 72 72 73 73 72 71 70 69 69 68 68 65 63 63 63 63 62 65
43 45 45 48 47 49 49 50 52 55 57 58 59 61 62 67 66 65 65 67 68 70 71 73 74 75 78 79 80 83 83 81 79 79 80 78 77 76 75 72 71 71 70
47 46 49 48 51 52 52 55 58 60 63 64 64 66 67 69 70 73 77 80 81 83 87 88 90 90 90 90 90 91 89 90 90 89 87 86 86 85 85 82 80 79 79
47 47 48 50 54 57 59 60 62 64 66 68 69 71 72 74 78 82 85 86 90 93 95 97 98 98 100 98 98 97 96 93 94 95 94 93 93 92 93 92 90 89 87
55 52 56 58 59 61 63 66 69 71 73 75 75 76 79 84 86 89 91 95 97 99 102 103 105 105 104 103 100 101 96 92 92 94 95 95 95 98 98 99 99 99 100
51 56 57 59 62 65 69 72 75 77 78 79 82 85 88 89 92 95 99 101 100 102 104 103 102 102 103 104 99 95 94 92 93 93 93 96 96 97 101 102 104 106 108
55 57 59 63 68 71 75 78 80 82 83 85 90 92 94 99 101 103 105 106 109 111 109 102 98 100 101 100 98 94 92 88 85 88 91 90 93 96 96 99 99 103 108

GFSSE_250_spd_018.txt.gz
Wind_Speed
90 93 95 96 95 98 106 104 108 113 114 117 118 118 117 111 108 108 114 114 113 111 106 103 100 99 98 93 90 92 92 91 92 91 90 91 85 77 73 71 70 65 65
93 95 99 101 103 107 110 115 116 115 117 118 117 123 111 110 112 103 99 95 85 85 85 81 81 82 79 78 78 74 75 76 76 75 74 74 72 72 65 67 61 59 58
98 101 105 107 108 114 117 118 121 121 117 118 110 109 109 100 86 79 78 74 69 68 69 74 70 70 67 71 67 69 68 70 70 68 64 63 66 63 61 61 58 59 52
99 108 112 111 114 118 119 119 117 116 109 107 93 91 78 74 63 62 64 56 57 55 55 59 57 55 57 57 61 60 54 56 55 57 60 60 59 55 54 55 55 49 47
109 115 112 111 111 112 112 110 111 102 95 82 75 74 69 58 52 49 48 48 46 46 48 48 47 48 50 52 53 53 53 48 47 43 39 46 50 48 50 51 50 43 45
114 115 113 109 109 108 106 103 104 88 70 60 49 46 42 37 37 37 36 36 36 37 37 35 35 35 35 37 39 42 48 48 47 45 45 44 41 44 43 49 49 50 53
107 104 101 98 100 102 94 76 60 43 33 31 27 25 23 21 21 23 23 25 27 29 29 28 27 26 27 27 27 31 35 39 42 48 49 45 46 44 46 47 43 57 59
97 93 98 101 94 80 56 40 31 23 21 22 22 21 23 24 25 25 24 22 22 23 24 26 26 25 22 20 21 23 24 27 30 34 35 40 41 40 43 47 37 57 62
88 89 84 72 55 40 26 20 19 20 17 19 19 21 22 21 23 24 26 26 24 25 26 26 24 25 27 25 22 19 19 23 27 28 32 36 37 43 45 41 38 47 65
73 67 58 35 22 15 16 18 17 19 20 21 20 21 19 20 21 22 23 22 21 22 22 23 25 23 23 24 24 22 19 19 19 25 31 32 36 39 43 39 49 50 56
55 32 27 18 12 12 16 18 17 19 18 19 20 19 19 20 21 22 23 24 25 24 22 22 22 21 21 23 21 21 23 20 18 21 23 28 33 34 41 44 50 51 53
24 18 13 12 11 13 16 17 19 19 20 20 20 19 19 21 23 26 30 32 31 29 28 26 25 22 21 21 22 22 19 20 22 23 25 26 33 33 38 47 49 51 60
17 13 9 10 12 12 14 16 19 21 24 26 27 26 26 28 34 35 35 35 35 33 32 32 31 29 26 22 23 22 23 25 20 22 27 30 33 43 34 45 42 52 58
15 11 9 12 15 17 21 24 26 28 30 32 33 34 35 37 39 39 37 37 37 37 38 36 34 34 32 32 30 27 26 28 27 22 25 32 33 42 45 39 51 48 59
16 16 17 20 23 26 29 33 35 37 39 40 40 40 39 40 41 40 39 38 37 37 38 39 40 39 38 36 35 35 34 33 34 32 28 26 32 37 46 54 46 57 55
21 25 24 27 33 35 37 38 40 41 43 43 42 42 43 43 42 43 43 44 43 40 39 39 40 42 43 43 42 42 41 39 38 38 38 37 34 33 42 55 59 53 57
29 30 33 34 36 39 43 43 44 45 47 48 46 46 46 47 47 47 48 49 50 52 52 52 51 51 50 49 48 49 49 49 47 45 45 44 45 42 40 44 61 64 62
30 34 38 40 42 44 44 44 44 44 46 47 47 48 48 50 50 50 51 53 55 57 57 55 54 56 57 59 60 59 58 57 57 56 54 53 51 52 52 50 49 58 72
38 39 38 38 41 44 46 45 45 46 46 48 50 51 52 56 57 58 60 61 63 65 64 63 64 64 64 65 65 66 67 66 66 65 63 63 62 60 59 61 60 56 57
39 37 36 40 44 46 43 42 45 48 50 53 54 56 59 61 63 66 69 71 71 69 66 68 71 71 70 73 72 71 73 74 76 75 75 72 70 70 69 68 68 67 68
39 39 39 43 46 43 44 48 51 52 54 56 60 63 66 68 70 71 69 69 71 74 78 78 78 81 83 83 81 83 82 82 82 86 85 81 80 77 77 78 77 76 75
41 43 46 45 44 46 51 53 55 58 60 64 68 70 71 72 72 72 74 77 81 83 84 88 92 93 95 96 94 92 87 89 89 90 92 94 90 87 85 83 86 86 84
46 41 42 46 50 52 53 56 60 64 67 69 71 72 72 73 76 78 81 82 83 88 89 93 96 100 101 103 102 101 101 94 96 94 91 99 95 94 93 92 92 92 94
41 45 48 50 51 54 58 60 62 65 68 70 70 72 76 80 83 84 89 94 99 99 105 106 105 107 107 105 107 106 101 101 97 98 96 96 98 92 94 96 100 98 98
47 47 48 52 56 57 61 64 68 72 73 73 76 79 83 87 88 94 101 103 108 111 113 112 111 112 107 106 105 102 103 99 103 99 97 98 95 95 89 91 96 101 103
48 51 54 58 61 65 69 72 77 78 79 81 87 90 92 95 97 102 109 113 117 121 122 121 112 109 106 103 103 103 104 102 97 97 98 99 99 88 91 91 91 96 101

GFSSE_250_spd_021.txt.gz
Wind_Speed
85 92 87 91 96 95 98 104 106 108 110 113 114 115 114 116 114 109 105 106 104 104 101 96 93 95 91 88 84 81 81 81 82 83 83 90 95 96 95 95 86 78 77
91 92 90 100 100 100 105 109 113 117 116 118 120 108 106 110 117 117 104 97 96 87 84 79 77 77 74 75 74 74 73 73 75 72 72 74 74 75 76 79 81 77 72
96 95 100 103 104 107 112 113 113 113 112 111 104 109 111 112 108 97 85 82 77 71 69 64 64 66 67 64 64 65 66 64 64 64 66 65 58 60 61 64 63 64 62
100 101 103 104 109 114 111 108 109 109 103 102 106 101 97 85 81 72 60 58 51 50 52 53 52 51 52 53 54 56 58 59 61 59 63 60 59 62 59 58 56 59 57
101 103 106 108 111 108 106 111 109 99 99 99 91 82 73 58 49 41 37 30 27 31 34 38 41 41 43 43 44 44 46 50 52 51 54 52 49 49 52 53 53 54 55
109 111 112 110 108 108 106 102 97 97 88 77 60 54 41 33 25 23 19 17 18 19 21 23 24 24 27 31 31 31 32 34 38 44 51 44 42 42 38 50 53 52 56
108 113 102 99 102 96 92 91 87 76 62 43 29 22 18 16 19 19 22 24 24 23 24 26 25 26 23 23 25 26 26 25 26 30 35 41 34 41 37 32 39 47 49
104 98 95 98 91 85 86 74 55 33 24 19 16 17 19 19 20 22 23 25 26 27 30 31 31 31 29 28 28 23 23 22 20 21 25 32 40 45 44 42 37 36 46
92 92 88 85 83 71 51 36 23 16 15 16 19 19 18 19 20 21 21 26 30 30 28 28 29 30 29 30 30 30 26 21 20 19 19 22 28 36 37 36 41 40 47
87 87 82 75 55 39 28 19 17 17 18 20 21 20 21 22 19 19 25 28 30 30 28 27 26 26 27 27 28 29 27 24 21 20 18 21 23 26 32 36 41 43 45
80 66 54 42 29 21 18 15 16 19 20 22 23 24 23 23 22 26 30 31 30 28 27 27 27 27 27 27 26 26 26 24 22 20 20 21 23 22 27 34 40 42 42
56 42 31 24 20 18 19 19 19 21 21 24 27 30 31 30 30 31 32 32 32 32 31 29 27 27 28 29 29 28 27 26 25 23 21 20 21 23 25 29 40 41 48
30 24 22 20 16 17 19 21 24 25 26 29 31 34 35 36 37 37 36 36 36 37 36 35 33 30 27 27 28 31 31 30 28 28 25 23 22 23 27 33 37 44 51
22 21 21 21 23 26 26 29 31 33 37 39 40 41 42 43 43 41 41 42 42 40 39 38 36 36 36 34 32 30 31 33 34 34 30 31 26 24 27 32 40 39 54
22 24 27 27 31 32 35 36 37 39 43 44 43 41 42 44 45 45 45 45 45 44 42 42 42 43 44 44 43 41 38 34 34 35 35 40 35 32 29 32 42 41 46
27 29 31 32 36 39 42 41 43 45 43 45 43 43 44 46 46 46 48 47 49 49 50 50 50 50 51 50 49 48 46 45 42 41 40 39 44 42 38 35 33 52 50
32 36 37 38 40 39 38 41 43 46 48 47 45 47 47 47 49 49 49 51 53 55 56 57 57 58 58 57 55 55 55 52 51 51 49 47 48 48 49 48 42 39 56
35 37 39 41 41 39 39 41 44 46 44 43 44 46 50 51 52 54 56 57 58 59 60 61 62 60 59 58 59 61 63 64 63 64 62 58 56 57 57 54 55 51 47
38 39 39 36 36 40 40 44 49 43 43 46 48 49 51 53 56 58 61 62 62 62 63 64 64 63 62 65 67 67 67 67 69 69 68 69 69 64 63 66 63 61 61
37 38 38 38 41 43 44 48 44 47 49 50 51 52 55 58 60 62 63 65 65 63 65 69 69 68 69 68 74 75 75 75 78 80 79 78 75 73 76 68 72 73 68
41 45 45 46 44 41 42 47 50 49 51 54 58 61 62 64 67 68 68 68 68 71 73 75 73 76 80 84 87 84 86 87 88 90 88 89 87 83 82 81 78 80 80
47 44 40 41 45 48 50 50 52 55 59 63 66 69 69 73 75 75 74 73 81 83 83 84 85 86 87 92 94 99 97 96 101 99 96 97 96 94 91 88 87 86 84
41 41 45 47 49 50 52 54 58 61 64 66 70 72 75 77 76 78 79 79 83 87 88 90 91 93 95 100 106 107 107 106 107 110 108 99 99 98 100 95 92 92 91
43 47 50 50 51 53 57 60 63 65 68 71 70 72 76 79 82 84 87 91 95 94 95 97 99 103 107 108 112 116 115 115 113 113 112 107 102 101 98 102 98 92 95
50 51 51 52 56 59 62 66 68 68 74 73 79 81 86 88 90 94 96 99 103 103 104 105 107 111 117 121 121 119 119 119 117 110 102 104 108 103 100 100 102 97 93
53 52 53 58 62 63 67 69 72 73 78 80 85 91 94 98 101 103 105 107 110 113 114 117 118 124 127 127 126 123 119 115 110 104 99 96 101 104 99 101 101 100 100

GFSSE_250_spd_024.txt.gz
Wind_Speed
77 81 85 90 90 93 91 95 101 103 104 106 108 112 114 112 112 109 108 105 105 110 103 96 92 91 89 86 90 82 80 81 80 75 67 66 69 63 70 76 83 86 91
84 84 87 91 96 101 104 103 106 108 108 112 115 116 114 110 106 102 105 106 100 98 88 82 77 78 72 73 68 70 73 67 67 67 69 63 64 63 68 82 90 98 93
88 92 93 98 101 102 104 109 110 112 114 115 111 108 103 104 106 103 96 89 78 77 73 65 60 54 57 57 56 59 58 59 60 59 59 59 58 60 62 66 71 71 75
96 97 100 102 105 109 111 116 116 119 120 109 104 101 103 100 89 80 67 59 50 43 37 34 39 36 37 39 40 43 45 48 49 49 47 51 50 48 48 52 61 59 57
99 103 105 106 107 111 114 116 118 113 106 101 100 95 86 75 61 51 41 28 28 20 15 15 15 17 17 19 24 26 27 28 29 34 37 40 36 30 49 41 56 63 60
99 103 109 110 111 114 117 116 102 97 97 93 83 72 58 38 28 20 13 10 13 18 19 17 17 19 19 19 21 20 19 19 18 21 26 27 23 42 47 58 58 56 55
103 107 105 109 112 109 102 97 96 90 85 72 60 43 30 24 17 16 15 18 23 24 25 26 26 26 25 24 23 22 24 18 15 17 15 17 22 31 34 45 50 47 47
101 101 104 99 99 100 91 90 83 69 63 47 33 18 16 18 18 18 19 22 27 27 27 27 28 29 30 30 30 28 26 25 20 15 15 12 21 33 24 34 39 42 46
101 101 108 102 95 85 78 71 57 47 34 24 20 18 20 21 22 23 26 28 29 31 31 31 29 27 27 27 27 29 30 28 23 20 17 12 16 39 43 39 33 41 36
104 99 94 86 79 71 64 49 40 28 25 21 19 18 22 25 28 29 31 32 32 32 31 30 29 28 27 27 27 28 28 28 27 24 22 16 15 20 30 38 42 44 44
95 83 79 74 62 51 45 31 27 26 25 22 22 24 27 30 30 33 32 34 33 33 32 32 32 30 28 26 25 25 26 27 27 26 27 19 17 17 20 24 29 33 38
81 78 65 52 50 36 29 27 28 28 28 29 30 31 33 37 38 38 38 36 36 35 34 33 32 31 30 28 28 28 27 27 26 26 26 28 22 17 16 20 27 34 40
67 60 49 37 31 30 30 31 34 33 36 38 39 39 40 42 42 39 37 39 38 37 35 35 35 34 33 34 34 34 35 34 32 29 27 32 27 26 20 17 23 27 35
53 45 34 28 30 35 34 37 38 38 41 42 44 46 46 44 43 42 42 42 42 41 41 40 39 39 42 43 41 41 41 41 40 39 35 34 32 29 27 24 22 27 35
35 31 31 33 33 38 39 40 43 44 46 43 44 45 46 47 46 46 47 47 46 46 45 45 45 45 45 45 47 47 46 45 42 41 39 42 41 36 34 30 28 27 35
31 32 32 38 41 42 44 46 47 48 46 45 46 46 48 47 47 46 46 46 48 48 49 51 53 53 52 52 51 51 50 47 45 43 41 41 45 46 43 40 38 34 33
32 33 36 12 55 47 46 47 45 43 43 45 48 48 45 46 48 51 50 50 51 53 55 56 57 58 58 57 56 54 52 53 53 51 52 50 50 49 49 48 46 45 43
38 38 35 43 44 44 39 39 42 44 47 49 50 45 49 53 52 54 55 59 58 56 58 60 61 61 60 59 58 60 60 61 59 59 58 56 53 53 52 53 53 55 54
40 39 40 39 44 45 46 46 45 46 46 47 50 51 52 55 56 59 59 60 62 64 65 64 64 64 62 63 70 70 69 70 67 66 64 67 66 63 60 62 60 60 61
37 38 40 44 46 39 43 45 47 48 51 51 52 53 57 59 60 61 64 65 64 65 66 65 69 71 70 71 71 74 76 76 75 75 74 74 74 73 75 71 70 68 69
36 41 45 44 44 45 50 51 53 51 51 55 57 58 61 60 64 66 68 68 71 73 76 79 76 77 80 84 84 83 81 81 84 86 85 82 82 86 87 84 84 82 80
39 43 44 46 47 52 55 55 55 55 59 62 62 62 65 64 66 71 74 75 78 83 85 87 88 89 88 93 93 93 90 88 90 91 92 94 96 96 96 95 95 95 94
43 46 50 51 51 56 57 56 59 63 67 68 69 71 72 73 76 80 83 85 88 90 95 96 99 100 100 101 105 106 102 100 99 99 100 102 106 107 108 109 106 102 100
49 53 56 55 55 59 62 64 66 68 71 73 74 76 78 81 85 89 93 96 98 99 102 106 107 110 113 113 115 117 119 118 115 106 109 114 119 117 113 111 107 103 101
54 58 59 56 60 62 66 68 70 73 77 78 81 83 88 92 96 99 103 105 107 110 114 115 116 120 123 124 124 124 126 127 124 115 104 111 115 113 107 103 100 101 100
58 59 59 63 65 66 68 73 77 81 84 87 90 93 96 100 104 108 111 115 119 121 123 125 125 127 130 131 130 124 122 121 119 111 103 95 96 98 100 96 92 92 93

GFSSE_250_spd_027.txt.gz
Wind_Speed
74 73 77 79 82 86 87 87 91 96 102 102 106 109 106 106 109 114 108 97 99 101 105 97 86 80 75 74 70 70 70 69 68 67 62 60 56 55 54 59 59 59 58
79 80 81 84 87 90 92 97 101 104 104 105 109 108 106 113 115 105 98 99 98 94 85 74 67 58 58 52 48 52 56 57 55 57 62 55 54 56 53 55 57 62 65
84 85 87 90 93 96 99 102 105 107 106 107 109 106 111 107 103 98 95 91 83 69 63 51 46 40 41 39 35 34 40 44 49 50 53 54 56 51 46 51 70 71 78
89 92 94 96 100 105 108 110 111 111 110 106 106 108 109 99 94 84 80 72 58 41 34 26 22 18 17 16 16 17 23 28 31 33 34 42 50 50 41 38 47 64 80
90 92 96 99 101 106 108 110 114 112 111 105 113 103 91 85 74 66 48 40 23 13 12 12 14 15 17 17 15 15 15 14 18 19 22 28 38 45 48 42 38 47 76
94 96 100 103 104 106 108 111 109 108 109 108 92 87 79 74 51 35 22 14 13 14 14 18 20 21 18 18 18 20 18 21 18 14 18 18 25 33 39 52 42 36 51
94 98 99 99 104 106 107 106 106 106 89 85 79 76 56 44 27 19 18 19 18 20 22 25 25 24 24 20 17 15 14 18 19 18 18 11 16 25 38 39 48 43 46
96 96 100 101 102 103 104 104 97 84 79 77 62 45 30 24 22 21 22 23 25 28 30 29 27 24 25 24 23 22 21 17 15 19 21 15 12 20 34 49 43 41 50
95 97 99 98 98 99 97 90 77 74 68 47 40 32 26 25 24 26 27 28 30 33 32 32 29 27 26 25 24 22 21 21 18 16 16 19 15 10 26 38 48 45 51
98 97 96 97 97 92 78 71 63 56 44 33 34 33 28 29 28 30 34 35 35 36 35 33 30 29 27 26 25 24 23 23 18 18 20 14 17 13 13 32 39 38 37
93 93 99 96 87 72 65 57 50 40 36 32 35 36 37 40 39 37 39 41 41 38 36 34 33 33 31 29 29 27 25 27 27 26 25 25 17 15 15 15 36 45 48
97 97 94 83 72 62 55 52 41 35 36 38 39 40 46 46 45 46 45 44 43 42 41 39 36 36 35 34 33 33 32 31 31 28 31 31 29 26 20 17 19 24 31
96 89 84 68 54 46 43 41 39 40 41 46 44 47 49 50 46 46 47 48 45 42 43 42 39 39 39 38 36 38 37 36 35 33 35 35 35 33 32 26 21 22 27
80 73 65 48 44 41 40 43 41 46 45 50 52 53 54 53 51 48 47 45 43 43 42 44 45 44 42 43 43 42 43 45 44 43 41 40 39 36 35 36 33 27 26
62 48 42 35 36 40 45 46 43 46 49 52 55 55 54 51 49 49 47 43 43 45 47 48 47 48 49 49 47 48 47 47 48 46 44 44 44 44 41 39 38 37 32
49 33 30 33 38 40 45 39 54 55 49 46 48 48 51 55 50 48 46 47 49 48 48 50 50 51 51 51 51 51 51 52 52 49 46 45 46 46 46 46 45 43 43
32 27 27 25 28 33 42 49 47 50 51 47 50 52 51 53 50 51 50 49 52 54 53 52 53 54 55 55 54 53 52 53 53 53 54 55 55 54 54 53 50 50 50
33 29 31 17 14 19 42 50 51 55 49 47 46 47 51 56 56 53 56 56 56 57 57 58 59 58 56 57 57 57 57 59 59 62 65 64 62 61 59 62 62 58 52
35 31 25 17 28 35 46 54 55 52 54 54 54 54 53 52 57 61 63 62 63 64 64 64 64 66 66 64 68 69 70 68 66 66 67 70 71 70 71 66 65 66 64
38 32 24 27 31 43 49 55 56 54 58 60 59 58 59 59 61 65 66 66 68 68 69 71 73 75 75 76 78 78 78 79 79 79 78 78 78 78 77 76 77 74 73
34 35 36 36 37 42 48 54 56 58 61 64 64 63 63 64 67 68 69 69 70 71 74 78 79 80 83 88 87 88 88 89 90 90 91 91 89 87 85 85 83 81 82
41 40 42 45 48 51 56 59 60 63 65 68 67 67 68 71 74 77 76 77 79 81 84 87 89 90 93 98 98 100 98 99 100 101 102 102 98 95 97 97 94 91 89
44 47 49 51 55 58 61 63 64 66 69 69 71 74 76 77 79 81 83 84 87 89 92 95 97 102 105 109 112 111 110 109 106 107 110 113 111 110 108 107 106 104 98
47 51 52 53 57 62 65 64 66 69 69 73 74 78 81 85 87 89 92 94 97 100 104 107 109 111 114 117 120 123 123 120 115 110 115 118 120 120 120 120 120 115 112
50 53 55 58 61 61 62 68 71 71 73 77 81 85 87 90 94 98 102 105 109 113 118 120 123 123 122 120 123 125 124 122 117 111 105 110 114 113 112 109 109 108 109
53 57 62 63 62 63 65 67 69 74 78 83 88 90 94 98 103 107 110 114 118 122 127 126 127 125 124 120 118 115 111 108 106 102 94 88 90 96 97 95 96 93 93

GFSSE_250_spd_033.txt.gz
Wind_Speed
73 74 74 75 79 78 80 83 83 85 87 90 95 94 95 95 98 101 103 101 99 102 109 106 95 100 97 75 62 59 51 43 39 37 44 48 47 46 46 50 49 53 52
74 73 77 78 79 81 81 83 85 87 90 95 94 97 98 100 102 102 102 101 104 109 101 90 90 77 69 57 45 45 42 40 34 34 33 37 39 40 40 39 48 53 54
77 78 78 78 81 82 84 86 88 92 95 94 94 100 101 103 105 102 103 108 107 91 83 83 67 54 50 40 34 33 34 32 34 34 34 30 33 41 41 52 39 42 57
76 76 79 83 85 88 92 93 95 96 94 98 100 103 104 105 105 103 105 101 84 75 72 60 50 42 36 32 30 30 30 30 28 27 31 29 27 28 37 46 47 47 45
81 82 83 84 85 86 90 95 96 93 99 100 100 102 103 102 102 104 99 86 70 60 56 46 42 39 34 33 30 32 30 29 29 25 26 24 25 27 30 39 53 56 50
87 85 86 84 84 85 88 90 93 99 101 100 103 100 97 100 108 99 78 65 56 49 45 40 41 40 38 37 38 38 34 32 26 24 21 23 22 23 24 27 36 51 53
84 82 81 86 89 90 91 95 94 95 96 99 99 96 103 105 93 73 60 52 45 44 39 42 41 44 45 44 42 42 38 35 34 28 23 19 21 19 22 23 25 33 42
82 89 90 90 94 93 96 97 93 92 97 100 99 102 96 81 65 57 53 45 40 40 41 45 47 48 50 51 49 45 40 37 34 33 31 27 22 21 19 21 24 24 31
88 92 94 92 90 92 96 96 92 96 101 96 96 86 70 61 55 47 45 42 42 44 45 47 50 50 51 51 50 46 40 38 36 36 36 34 30 25 24 20 20 24 24
86 84 87 88 93 96 96 92 95 92 91 83 86 62 56 52 50 47 45 44 46 50 50 51 52 51 50 49 44 42 40 39 38 37 38 36 35 32 28 24 23 21 24
82 86 86 88 87 90 94 93 92 86 83 76 66 56 51 51 52 50 46 46 51 51 52 50 49 46 47 45 42 39 37 37 38 38 39 39 37 37 34 33 31 27 22
86 84 85 87 92 95 91 90 88 85 74 61 55 51 52 51 52 44 46 50 46 45 44 44 44 47 45 41 40 40 40 40 41 42 43 44 45 45 44 41 38 34 30
84 86 88 93 95 94 97 90 82 75 63 55 54 55 54 47 47 50 53 50 49 47 45 45 46 45 45 46 45 45 46 45 47 49 51 49 46 46 46 44 42 39 36
88 88 91 90 87 91 85 82 67 57 57 53 53 55 50 50 50 52 49 47 43 47 47 47 49 50 49 47 48 50 51 52 51 52 52 51 50 47 46 44 43 42 40
79 86 86 91 92 87 80 67 61 54 53 54 56 52 52 48 52 53 52 51 53 52 53 51 53 53 53 52 54 55 55 56 56 56 56 56 55 50 47 45 44 43 41
88 89 86 84 82 72 59 55 54 53 56 57 56 59 59 53 57 60 58 54 55 56 58 55 56 56 56 57 60 61 61 61 61 62 61 58 57 54 53 54 52 50 49
89 86 77 74 61 55 51 49 53 57 51 59 60 58 60 56 60 65 65 59 59 60 60 59 59 58 58 58 61 65 65 65 66 68 68 67 66 64 64 62 61 59 58
78 66 60 58 49 48 52 54 53 58 60 63 65 60 59 63 67 65 69 68 67 65 62 62 63 63 64 63 65 68 71 72 72 72 71 72 71 70 71 71 70 69 67
51 48 41 44 38 45 59 59 59 63 64 62 61 61 61 65 68 70 73 73 73 70 71 72 73 72 71 72 72 73 76 78 79 79 79 79 78 78 78 78 78 77 76
48 47 37 42 42 55 59 63 66 61 67 66 64 66 67 68 71 73 74 76 74 74 75 75 75 77 77 77 79 80 83 85 87 89 90 90 90 88 87 86 85 84 85
48 37 38 43 54 54 62 68 69 70 68 66 67 68 70 72 73 76 76 75 75 76 78 80 81 82 85 86 87 88 88 90 91 94 97 96 95 97 97 96 95 95 96
45 50 51 52 57 59 62 64 65 65 64 66 68 70 72 74 75 76 78 77 79 82 85 87 89 90 93 94 95 95 93 96 99 104 106 106 106 106 105 104 105 106 105
50 51 50 52 55 57 59 63 65 66 66 67 71 73 75 77 78 79 81 84 86 89 93 95 99 101 101 101 102 104 105 105 107 112 115 117 117 118 117 116 116 115 116
50 49 51 52 53 57 60 61 63 65 66 68 71 74 77 79 82 84 88 92 97 101 104 108 108 109 111 112 115 116 116 115 114 112 111 117 121 123 122 120 120 122 122
48 46 50 52 54 56 60 63 64 67 70 73 77 79 82 85 89 93 97 101 105 109 112 115 117 119 121 124 124 124 123 121 119 116 112 116 121 125 123 123 119 115 115
41 44 51 54 57 59 60 62 67 71 73 76 79 82 85 90 95 99 102 107 111 114 118 120 123 123 124 124 122 122 122 122 122 121 116 112 117 122 122 119 114 112 106

GFSSE_250_spd_036.txt.gz
Wind_Speed
72 72 77 76 78 80 79 83 81 82 83 84 85 87 89 91 93 94 98 99 100 95 100 103 104 98 96 91 86 75 66 57 51 45 40 34 31 30 35 43 44 47 53
76 78 80 80 82 80 81 79 81 82 83 87 87 92 93 92 96 99 100 100 98 102 102 104 99 93 85 80 61 51 47 44 45 43 42 38 32 32 30 31 34 35 41
80 81 79 81 79 79 81 83 86 89 93 93 92 92 93 97 101 102 98 100 98 99 104 96 89 83 73 57 44 42 39 37 38 39 40 38 35 31 27 29 32 33 36
83 79 73 74 77 82 85 88 91 93 94 93 95 98 100 102 99 101 96 98 97 101 98 82 79 72 51 42 40 41 37 37 37 37 37 37 32 29 29 28 26 29 34
81 82 79 82 83 88 91 92 94 93 94 98 96 99 101 103 97 96 98 99 100 95 83 78 67 51 43 40 37 38 38 38 40 38 34 34 34 27 25 26 29 27 27
83 86 85 84 90 91 95 95 95 93 97 97 98 100 100 96 94 100 102 94 95 80 73 66 53 46 44 44 43 41 43 46 44 39 36 32 30 30 28 25 22 20 20
86 86 87 89 89 93 90 91 90 93 95 96 101 97 93 97 98 103 97 91 77 71 62 54 47 46 47 46 47 46 45 46 43 41 36 33 29 31 31 29 27 27 26
85 84 87 87 87 85 87 90 91 91 93 95 93 88 98 101 95 90 87 81 68 57 52 48 45 50 49 49 50 48 47 43 41 37 37 32 32 31 31 30 29 29 26
78 80 81 81 83 85 88 90 92 88 89 91 90 99 102 96 98 86 76 68 64 56 49 43 51 51 49 47 44 43 43 40 39 37 34 34 31 31 32 32 29 29 28
82 81 82 84 88 86 86 87 87 87 88 93 96 98 93 89 79 69 68 62 58 50 42 47 50 46 43 42 40 41 41 37 37 36 35 34 34 33 34 34 34 32 31
82 86 81 80 87 90 84 84 86 89 96 95 93 92 87 74 69 69 60 59 52 46 48 50 50 46 44 44 42 40 40 39 39 37 37 37 36 36 38 39 41 41 39
77 82 81 80 85 81 83 84 89 90 90 89 90 78 70 66 63 61 58 59 55 50 47 46 46 45 46 46 47 45 44 43 41 40 41 42 43 42 40 40 39 38 39
82 78 87 95 87 82 84 84 94 90 90 79 68 68 64 64 65 60 56 52 50 51 49 49 47 52 49 48 47 48 46 45 46 47 45 45 47 47 47 45 43 42 39
80 83 84 79 84 86 90 88 85 77 70 65 63 64 62 66 64 62 61 57 59 56 55 55 55 54 54 55 53 52 49 48 49 51 52 52 52 51 50 50 47 45 41
74 74 79 80 82 83 86 79 78 65 62 59 61 60 63 63 65 63 63 63 59 60 58 62 63 62 62 58 53 54 54 52 52 53 54 55 54 55 55 54 52 51 48
75 80 80 80 81 85 84 76 65 63 60 63 59 59 58 60 63 66 69 69 66 59 60 68 69 69 67 66 62 60 60 60 59 60 60 60 60 60 59 60 60 56 52
80 83 85 82 76 67 54 53 57 58 61 60 58 59 61 64 67 68 68 67 65 65 68 72 73 71 72 71 67 67 68 67 65 65 67 68 68 67 66 65 65 63 60
81 81 76 65 59 42 45 48 52 59 64 60 61 64 65 70 68 68 73 73 70 69 69 71 73 74 74 71 70 70 69 70 71 73 74 74 74 73 75 75 73 71 69
70 63 53 43 26 28 37 39 49 56 58 62 67 69 72 77 77 79 73 72 72 72 73 76 77 78 76 74 72 73 74 77 78 79 80 81 82 82 82 81 79 78 78
51 49 45 36 17 20 46 56 58 67 73 78 77 78 80 79 76 74 73 73 74 76 78 80 80 79 77 76 78 80 82 84 87 88 88 90 89 88 87 87 86 85 85
46 44 35 29 40 54 62 69 74 78 80 78 79 80 79 78 76 74 75 76 79 80 81 81 81 82 83 84 85 85 88 91 94 97 99 98 97 96 95 94 95 96 95
28 32 36 41 46 55 63 73 76 74 79 78 78 77 77 77 76 77 79 80 81 83 84 85 86 88 90 91 93 95 95 98 100 102 104 104 106 105 105 103 102 103 105
47 49 52 54 55 57 63 68 71 73 74 75 76 76 77 78 79 80 81 82 84 85 88 89 91 94 96 99 101 103 105 103 102 105 108 110 110 112 113 113 112 113 114
52 54 55 57 58 61 66 68 69 70 71 72 74 77 79 81 82 82 83 85 88 92 95 98 99 104 108 112 115 117 117 116 116 113 115 118 120 121 123 123 122 120 122
40 42 45 46 48 55 60 62 66 69 71 73 76 77 77 80 81 82 88 93 96 99 102 106 111 116 118 121 122 120 121 122 124 124 121 121 119 123 125 126 123 120 119
42 44 47 50 54 58 61 64 67 69 72 74 77 79 80 81 85 90 94 97 101 105 110 115 120 122 125 125 123 124 124 123 121 121 114 108 107 114 120 115 114 113 115

GFSSE_250_spd_042.txt.gz
Wind_Speed
78 78 77 76 77 77 77 78 79 79 80 82 80 77 78 80 82 84 84 86 87 89 84 86 93 94 80 86 88 85 82 86 77 68 58 57 50 46 43 43 37 32 31
82 81 81 78 79 78 75 75 77 81 81 82 80 80 82 84 87 84 85 87 88 83 83 92 94 89 81 86 90 83 86 74 64 53 47 49 47 45 42 39 39 35 35
81 81 80 76 78 79 79 79 78 78 78 79 82 82 82 83 84 83 87 85 82 85 89 92 83 81 86 87 83 84 70 65 59 48 46 46 43 42 42 38 39 36 35
81 79 76 77 77 78 79 79 80 78 80 80 83 84 85 88 89 89 87 85 88 88 95 83 81 84 82 81 75 70 62 58 52 48 46 45 41 41 39 38 33 33 31
83 82 80 80 81 80 78 79 80 83 83 84 82 87 90 90 89 87 89 90 91 92 80 75 81 81 78 76 64 63 57 51 47 46 45 42 39 35 37 32 31 29 27
86 83 84 82 82 82 79 81 86 85 86 86 88 91 87 81 82 92 90 87 91 82 82 79 85 78 70 62 58 56 51 44 46 43 40 38 37 33 35 29 28 28 25
82 83 85 84 75 81 85 85 84 86 84 86 86 86 84 89 93 86 87 85 81 79 80 80 78 70 62 56 56 49 42 42 42 39 37 37 35 30 30 29 26 26 25
76 78 79 81 81 78 80 82 83 83 81 81 85 84 89 89 90 82 83 84 82 75 71 73 68 63 57 56 53 47 40 39 40 36 36 38 35 34 31 29 26 24 24
64 68 72 73 78 74 74 79 83 85 83 86 89 93 93 86 84 81 81 76 74 75 69 67 60 59 57 54 51 41 37 39 38 38 37 38 38 37 35 30 28 25 23
81 77 74 73 80 81 74 77 82 84 88 88 89 84 80 79 81 78 77 73 72 72 71 62 58 55 52 46 46 45 46 45 44 40 39 41 41 38 38 35 31 31 31
72 74 72 76 76 78 78 76 76 84 84 80 77 80 83 77 74 75 70 66 69 69 68 58 56 49 48 48 48 49 47 47 49 47 42 40 41 45 44 41 39 38 36
60 69 78 79 81 75 77 85 88 77 84 77 75 75 78 78 77 77 65 69 69 68 61 56 52 52 51 52 53 54 50 48 48 50 48 46 43 44 46 48 46 45 43
59 65 65 65 72 81 72 70 72 72 72 74 81 81 78 78 75 77 73 69 65 62 56 53 53 55 56 58 60 60 60 57 52 49 50 52 51 48 50 48 49 49 48
57 56 59 61 64 65 60 67 70 72 77 80 80 72 70 74 68 68 71 61 63 62 54 56 58 60 62 66 66 68 65 60 56 55 55 56 56 54 53 50 51 50 50
67 66 66 63 60 68 69 72 77 79 76 78 71 70 69 70 66 69 69 66 65 64 65 63 64 68 71 77 77 75 69 64 62 60 60 59 58 57 56 55 53 53 54
68 61 63 67 68 68 68 72 74 75 77 69 62 65 62 68 68 69 73 74 73 73 69 68 72 79 80 83 82 78 74 69 66 66 64 62 63 61 59 58 57 57 55
53 58 61 63 67 68 71 68 74 66 59 61 58 60 65 70 69 70 73 74 76 74 69 74 83 87 91 90 91 88 81 73 70 68 67 68 66 66 65 63 62 61 61
55 59 62 59 62 64 70 69 57 55 53 51 53 61 61 59 64 70 65 70 64 71 77 87 91 98 98 100 93 86 81 78 75 75 74 74 73 73 72 72 70 69 67
58 61 60 62 65 62 54 49 41 44 49 54 60 61 68 63 66 66 72 77 81 86 93 98 100 103 100 92 89 86 85 83 82 82 82 80 79 78 77 75 77 77 76
54 54 56 54 53 52 39 47 38 50 58 59 62 68 68 68 75 81 86 91 93 95 99 100 102 102 93 90 90 88 88 87 88 87 84 84 82 82 82 82 82 83 83
52 52 51 49 44 43 47 50 52 53 60 60 68 77 80 82 83 89 96 94 95 102 98 98 96 93 93 91 91 89 89 89 87 86 87 87 89 90 92 91 92 93 93
44 39 38 37 37 41 44 46 52 56 55 66 77 76 81 85 88 92 96 96 94 89 88 88 87 89 90 89 87 87 87 89 91 89 95 99 100 102 103 103 103 102 102
37 38 39 38 39 42 44 46 50 52 55 60 63 68 70 72 77 79 81 81 83 85 87 89 88 85 84 87 90 93 96 101 104 108 109 109 113 116 119 119 119 119 119
28 32 35 38 42 45 48 51 54 56 58 62 65 69 72 75 77 79 81 82 84 84 82 83 85 90 93 97 102 104 107 111 116 117 120 123 125 128 128 127 122 121 121
31 35 38 42 46 49 52 56 58 61 64 66 68 70 72 73 75 75 75 73 74 80 84 87 93 95 99 102 107 109 111 111 116 119 120 121 124 126 127 127 121 116 110
35 38 42 45 49 52 55 58 60 62 64 66 66 66 65 65 64 65 71 78 81 85 90 93 97 101 102 103 106 108 109 110 112 116 119 119 117 119 119 117 114 109 104

GFSSE_250_spd_045.txt.gz
Wind_Speed
74 75 74 78 78 77 75 77 77 76 77 78 79 77 78 76 80 81 81 82 83 85 86 89 87 83 89 89 88 85 76 84 84 83 83 76 72 63 56 51 46 46 44
78 82 83 80 83 79 80 82 83 81 80 79 80 80 81 84 84 85 83 84 87 86 89 89 90 85 93 91 84 78 83 84 80 80 72 66 57 51 53 51 44 42 39
83 82 86 86 85 85 84 84 80 76 78 78 78 80 85 82 80 84 85 84 86 88 90 85 86 89 89 83 79 79 82 77 77 69 65 58 44 49 48 44 40 38 36
71 79 85 88 88 88 85 83 81 79 80 82 81 81 83 83 85 86 85 87 87 87 83 88 90 93 85 76 77 82 78 74 68 67 60 48 45 42 41 37 34 34 32
73 79 83 84 81 79 81 81 83 82 82 81 83 85 86 87 86 85 88 90 86 86 91 97 88 81 78 74 75 73 71 68 64 60 51 42 41 38 37 34 31 31 32
77 77 81 81 82 82 80 79 75 78 84 84 86 87 85 82 84 89 88 85 87 91 94 84 81 78 77 74 72 71 69 62 59 50 41 41 40 36 36 33 32 29 29
77 78 82 81 76 80 84 84 85 86 84 86 87 86 87 87 88 87 88 90 94 85 75 79 75 72 71 72 72 63 64 57 47 39 36 39 39 37 37 33 34 30 27
69 75 78 74 76 74 77 78 81 82 76 83 81 75 83 87 89 88 89 91 76 79 76 69 73 73 72 72 63 59 54 44 41 39 39 41 39 38 37 37 34 33 29
38 51 60 64 66 60 53 63 64 74 79 64 74 79 86 89 87 86 85 80 78 71 71 74 70 71 68 64 59 56 44 40 38 39 42 42 41 43 40 37 37 35 33
61 63 63 59 67 64 60 62 65 71 75 79 73 81 82 83 77 75 73 70 75 74 73 76 73 67 66 60 53 45 43 44 44 44 44 40 42 49 43 40 37 37 37
59 59 56 63 64 68 71 66 72 74 68 72 81 87 74 75 76 73 76 78 77 76 76 71 65 64 59 57 47 45 43 43 45 49 50 53 51 47 48 43 42 40 38
77 75 72 78 80 75 67 67 63 72 73 69 69 73 76 75 81 83 79 81 76 77 68 65 63 59 54 52 49 53 48 47 50 53 54 56 55 51 47 45 44 46 44
76 78 69 68 76 71 68 72 81 68 65 68 68 71 77 82 75 76 78 79 78 65 65 64 60 61 58 56 56 56 54 53 59 60 62 63 59 54 52 53 50 50 51
74 73 72 65 60 59 64 59 64 67 64 68 74 78 74 68 63 74 71 74 72 72 69 68 65 62 62 56 56 60 56 68 74 75 67 73 57 54 55 53 55 53 52
71 75 75 78 77 75 75 71 72 70 75 77 74 60 60 71 75 78 75 76 74 71 69 67 67 66 60 56 60 66 74 81 86 87 74 71 66 58 56 57 56 57 56
73 72 76 77 79 75 74 69 72 73 74 74 75 71 73 72 70 70 69 71 72 74 75 75 71 64 64 70 69 81 84 90 90 92 89 78 73 69 65 62 62 61 61
65 68 71 68 69 72 70 70 66 68 70 72 68 70 65 69 67 67 71 72 72 71 77 75 73 66 78 80 88 87 92 96 98 98 93 82 77 72 71 70 68 66 65
47 55 57 59 58 62 65 60 63 68 57 53 60 66 63 62 60 64 70 74 77 74 69 78 80 87 88 92 95 97 100 100 94 88 82 82 78 76 72 72 74 73 70
55 55 56 56 58 62 68 69 72 65 46 54 62 56 55 66 70 69 71 76 83 82 82 86 90 95 97 101 104 104 98 93 90 86 85 80 80 77 75 75 72 77 77
51 58 60 63 65 67 63 64 62 56 55 58 59 63 63 72 71 74 78 81 85 89 95 96 100 102 102 99 94 92 90 89 88 83 81 79 76 77 77 79 81 80 77
50 55 58 60 61 62 62 59 54 55 54 59 61 67 71 77 77 82 85 88 94 98 99 102 89 87 89 88 89 88 86 84 84 82 84 87 87 88 90 89 91 89 90
60 59 55 54 52 49 46 46 47 49 53 57 61 60 67 73 76 76 79 81 82 85 85 85 87 86 85 81 81 83 84 88 94 98 100 100 100 103 106 106 106 105 105
45 43 40 39 37 37 39 41 44 48 52 57 60 64 68 71 74 77 80 83 84 83 81 77 74 75 79 88 91 93 97 98 100 106 110 113 113 114 116 118 121 120 121
33 29 29 32 36 39 43 47 51 55 59 63 67 70 71 76 77 78 78 77 73 70 68 74 78 83 89 93 98 102 106 110 113 111 112 116 119 120 121 121 124 122 122
25 29 32 36 40 43 46 50 55 59 62 64 66 68 69 70 70 70 68 66 68 71 76 80 85 92 98 101 105 107 109 110 110 109 108 110 110 113 117 116 117 117 117
29 33 36 39 42 45 48 51 53 55 57 59 59 60 62 62 62 62 66 69 74 77 82 86 93 97 100 104 105 104 104 107 109 112 113 111 109 109 110 111 110 107 106

GFSSE_250_spd_048.txt.gz
Wind_Speed
76 76 76 77 77 77 76 72 70 74 75 78 79 80 81 81 81 83 83 83 82 82 83 83 85 84 84 82 82 84 86 88 82 79 76 76 76 81 82 74 69 55 51
74 77 77 78 79 79 78 77 78 79 81 81 81 81 82 83 84 82 81 82 81 81 83 88 88 87 84 82 84 88 85 80 79 78 72 76 78 81 76 70 56 52 50
75 77 76 76 79 79 78 75 81 85 84 85 85 86 87 86 85 84 82 81 84 85 85 84 86 86 86 84 89 86 83 79 74 72 75 78 76 69 64 57 48 48 40
76 78 78 76 80 82 75 75 76 81 83 84 85 86 82 82 82 80 83 86 86 88 85 87 90 89 87 89 88 79 78 73 70 73 75 74 69 60 56 45 43 40 33
71 80 82 79 79 79 75 70 73 74 77 74 77 78 79 82 84 88 86 88 87 87 89 91 89 89 91 87 79 79 67 69 72 69 70 62 61 49 41 40 39 36 32
69 74 76 81 76 78 73 74 73 79 76 75 78 77 80 83 83 85 85 83 87 88 92 88 87 86 78 74 69 64 73 68 72 64 69 57 44 37 36 37 38 35 32
52 61 64 69 66 71 68 68 70 70 71 69 67 71 66 68 78 80 83 84 85 86 85 81 81 73 71 69 74 71 68 67 66 62 58 46 38 35 39 40 38 38 34
49 50 65 65 71 67 73 72 60 58 60 66 68 65 60 72 66 73 77 77 79 82 78 78 72 69 69 72 72 71 69 67 65 57 46 37 36 32 33 38 40 39 39
39 48 59 56 60 61 62 57 55 56 60 70 65 64 66 70 76 71 76 77 85 81 73 64 68 73 72 72 73 69 67 61 54 44 38 37 34 31 34 36 38 45 43
41 52 48 43 48 46 51 56 53 60 63 61 64 64 68 64 67 71 77 83 75 75 71 73 77 77 73 77 73 69 61 55 47 41 43 39 40 36 37 40 45 48 48
54 61 58 55 44 44 47 51 56 59 60 64 67 73 70 71 78 81 79 74 74 81 82 83 81 79 77 75 70 63 56 55 47 49 49 46 45 50 53 49 53 46 47
53 53 57 57 51 52 61 66 69 68 75 78 81 81 82 84 83 81 83 83 86 84 85 83 78 76 74 69 64 59 56 51 48 45 40 53 55 62 65 61 50 45 46
56 57 59 64 67 70 71 74 78 76 74 79 87 83 74 75 79 80 84 86 85 87 78 77 76 76 73 65 60 59 58 51 39 43 55 55 67 72 72 72 70 49 47
71 71 72 75 76 77 79 81 78 75 73 68 69 73 79 80 84 80 76 81 78 81 82 77 81 71 67 67 63 57 55 54 57 55 68 71 68 79 79 80 75 64 51
74 76 78 78 78 80 80 72 69 74 75 79 78 75 79 78 80 80 84 81 87 86 83 81 73 72 68 65 68 64 66 63 75 73 76 77 79 84 84 84 78 68 60
75 79 77 81 81 78 82 82 80 83 78 80 77 78 81 87 82 83 87 88 87 92 79 73 75 75 72 73 76 66 71 82 81 84 91 89 91 91 89 81 71 69 65
68 75 78 83 82 85 84 83 84 85 85 83 87 83 80 82 87 88 91 88 85 79 75 73 73 77 80 72 77 86 85 90 91 96 90 83 84 77 75 72 72 71 67
48 52 56 61 72 80 80 77 76 78 75 75 80 81 82 85 86 85 81 78 75 75 74 77 81 78 83 83 87 89 94 98 96 94 84 80 77 76 77 75 73 73 74
39 43 49 51 55 60 65 68 69 66 71 75 77 78 78 78 77 73 72 73 75 79 83 82 86 87 89 87 85 86 86 87 85 81 78 74 75 72 71 72 74 74 75
46 45 48 51 55 58 57 60 64 69 70 71 71 69 67 67 68 67 70 76 80 80 80 85 89 87 86 85 85 84 80 74 73 76 73 75 80 82 84 83 83 83 83
48 51 56 61 59 58 61 68 69 63 61 62 61 60 61 64 67 70 73 77 82 81 80 80 80 80 80 78 74 70 68 73 78 84 87 90 94 96 99 100 100 100 100
52 55 53 55 57 61 59 56 56 52 49 49 52 55 60 63 67 70 74 75 76 77 77 76 76 74 71 70 71 74 76 82 89 93 98 102 106 108 111 113 114 114 112
47 49 51 51 51 49 46 42 42 45 48 50 55 58 61 64 66 65 65 65 65 66 68 69 69 68 70 73 77 80 84 88 92 99 104 108 113 115 118 121 121 119 117
45 43 43 39 35 36 38 40 43 45 48 51 53 54 59 62 63 64 65 65 67 69 71 73 74 75 75 75 81 88 94 98 101 104 109 114 116 117 119 121 120 118 115
37 32 30 32 35 36 39 41 42 43 44 46 49 52 55 56 58 61 65 68 69 71 73 74 73 74 75 82 89 95 101 107 113 115 112 109 109 113 114 116 115 115 111
27 29 30 31 34 36 37 37 39 43 45 50 57 61 65 67 67 65 63 66 70 71 72 73 75 78 83 91 98 102 107 109 111 113 112 111 108 106 106 104 103 104 104

GFSSE_250_spd_051.txt.gz
Wind_Speed
71 71 69 69 64 68 71 72 72 72 73 74 77 78 79 78 78 79 81 83 82 83 86 85 86 82 84 84 80 82 81 79 79 80 72 70 68 69 68 70 76 83 76
68 64 63 69 70 64 67 70 71 75 76 75 77 79 79 80 80 84 87 88 88 87 78 81 80 83 82 82 82 80 79 77 81 75 67 70 65 66 71 79 82 81 72
64 69 75 66 69 67 61 69 71 71 71 73 76 78 81 81 80 81 80 80 79 79 79 82 83 82 80 80 80 79 81 81 80 67 67 67 63 73 78 74 79 70 65
67 66 74 80 76 74 74 77 75 74 72 74 73 74 77 77 75 77 80 81 83 81 76 77 78 75 77 80 78 84 80 73 69 66 65 69 73 74 72 74 70 60 50
68 67 69 72 74 79 82 78 77 79 76 75 76 77 75 75 76 72 67 70 74 68 70 74 72 76 80 78 81 81 74 66 64 65 72 73 73 71 68 68 55 48 43
54 56 63 73 77 78 79 78 76 74 69 73 75 69 67 69 65 63 68 71 72 69 73 67 73 74 77 76 88 75 65 63 70 73 74 70 71 69 63 51 44 40 39
51 52 62 62 63 63 61 58 66 72 68 66 63 66 65 58 61 65 68 65 67 70 70 74 81 75 79 90 77 69 67 72 77 75 77 70 70 60 51 42 34 34 34
42 56 61 56 56 56 52 50 57 56 56 59 61 60 57 58 60 66 60 64 65 72 80 77 73 82 92 74 69 71 81 82 77 74 76 66 60 51 45 42 39 31 29
50 57 52 53 58 57 54 50 50 57 57 56 55 61 58 61 62 63 64 69 78 83 75 83 82 82 75 72 83 86 89 76 74 70 69 63 56 51 44 45 36 31 32
65 68 55 54 48 49 46 53 51 54 57 53 57 56 59 59 60 68 77 74 77 83 88 78 80 80 79 83 89 87 80 79 76 71 65 62 54 50 47 45 44 42 40
51 52 58 56 52 52 52 44 53 49 44 48 52 57 61 60 71 77 80 81 85 85 83 82 81 85 87 89 84 81 80 77 71 60 57 59 50 50 49 39 47 52 48
43 53 62 62 55 56 57 56 54 51 52 56 57 56 67 73 82 84 84 87 88 87 85 85 88 87 83 83 84 82 81 74 67 62 53 46 43 39 41 51 55 56 64
43 55 57 56 55 55 54 56 59 61 64 64 72 75 77 79 83 85 88 83 82 87 88 92 78 82 84 84 81 76 69 65 61 56 56 51 51 51 54 63 70 70 72
38 46 52 55 57 58 59 66 66 66 71 71 73 74 79 83 77 82 83 83 90 83 85 86 87 88 83 82 78 71 67 64 65 62 63 66 65 67 70 68 69 77 82
46 46 48 57 58 63 67 65 71 74 74 75 76 77 79 83 86 91 90 88 86 86 83 85 86 88 86 85 77 72 69 72 74 73 77 75 79 82 82 81 87 83 77
58 61 63 65 65 66 67 72 77 78 82 85 85 89 88 91 93 92 95 94 92 89 91 89 91 84 80 76 75 75 77 79 80 82 82 82 88 83 84 85 77 74 71
55 64 64 68 73 76 77 79 80 84 86 88 91 95 89 89 88 92 90 88 88 86 83 83 81 79 74 76 79 82 81 86 87 85 86 81 78 76 78 77 72 70 70
52 66 66 75 80 85 87 83 83 85 82 79 76 80 83 82 83 83 86 84 82 80 76 76 75 75 78 80 82 84 83 81 81 80 78 74 71 68 66 64 66 68 68
51 47 53 49 62 61 58 60 59 62 66 67 71 70 70 74 78 79 75 72 69 69 72 76 79 81 84 83 81 79 78 77 76 75 70 69 68 69 70 72 73 75 77
38 45 47 45 51 59 61 61 63 64 66 69 70 74 74 74 70 69 66 67 69 71 72 73 74 73 71 69 69 68 68 67 65 64 67 71 73 76 78 81 84 85 85
38 41 47 49 50 52 58 63 67 67 67 68 71 67 64 61 61 62 63 63 63 64 64 67 69 70 70 71 71 72 72 72 73 73 74 79 82 85 89 94 97 99 101
40 40 52 58 64 64 62 63 63 62 60 59 54 56 55 55 53 50 51 55 61 63 65 68 70 73 75 76 75 74 74 75 75 77 79 82 89 94 99 105 107 109 111
50 51 54 54 53 54 56 57 54 54 51 50 49 49 45 43 45 50 55 60 63 68 74 74 73 74 73 74 76 77 75 75 74 80 85 91 99 103 107 113 118 121 122
46 46 48 48 51 50 50 48 44 45 44 43 42 41 44 47 51 56 61 65 70 74 78 79 78 76 75 74 77 78 77 75 75 77 86 95 104 111 117 123 127 128 128
39 40 41 43 45 41 41 42 43 42 39 40 42 45 53 55 59 63 67 71 76 80 83 85 81 79 78 76 75 77 81 86 93 97 97 104 111 117 122 124 126 126 121
37 37 38 38 40 41 42 42 41 40 42 44 48 53 55 58 62 66 70 72 77 80 84 86 81 79 78 78 82 88 93 97 102 106 108 109 110 113 117 118 115 109 106

GFSSE_250_spd_054.txt.gz
Wind_Speed
76 73 70 66 69 68 70 69 67 66 64 65 66 68 68 71 73 75 77 77 78 79 81 81 82 84 81 76 77 80 83 82 78 73 73 76 72 64 62 62 61 61 66
74 72 71 71 70 68 70 74 70 68 67 66 67 65 68 71 73 74 75 75 77 79 82 82 77 78 78 78 79 81 72 64 70 74 80 77 64 66 65 64 65 72 74
72 68 71 73 70 70 71 73 72 71 68 67 66 64 66 72 75 76 75 77 75 79 77 77 78 76 74 71 67 67 67 69 79 73 83 71 66 64 64 71 78 81 81
69 65 65 67 70 69 72 73 75 74 73 75 76 78 77 79 78 77 78 79 78 73 71 71 68 72 70 63 60 60 66 74 71 83 77 66 65 66 75 79 82 85 83
62 59 57 59 68 68 70 74 76 81 82 80 77 77 81 84 77 76 73 74 71 70 71 70 69 65 62 59 63 68 74 79 88 88 67 64 68 82 83 82 79 74 73
55 49 49 52 60 63 63 73 76 75 75 78 76 70 62 59 61 69 74 70 71 68 64 64 63 62 60 62 72 77 77 89 83 72 65 78 83 86 81 76 69 73 68
31 33 32 41 52 54 61 56 59 60 59 60 59 59 57 60 62 63 66 68 63 63 66 69 68 61 64 76 79 79 83 86 70 75 81 81 78 79 77 73 73 60 55
22 24 34 44 42 50 53 55 52 52 57 54 51 53 59 58 60 62 62 65 66 68 66 70 64 71 79 84 84 83 82 81 83 85 86 80 75 72 75 70 61 54 49
28 31 35 39 43 55 55 53 43 43 47 52 51 55 56 61 63 61 61 61 63 65 64 61 72 78 83 85 80 80 77 82 79 79 76 75 77 71 67 61 58 52 53
42 47 34 41 54 56 56 47 45 40 45 58 59 59 56 56 52 56 58 62 63 59 60 76 79 80 80 80 83 83 87 80 80 79 73 75 72 66 63 61 54 52 52
51 61 40 51 61 58 53 57 49 50 53 55 60 55 59 53 59 59 54 55 61 76 81 81 87 81 81 89 90 91 89 90 84 79 78 75 67 63 58 50 44 43 46
59 60 67 56 55 56 58 49 50 50 54 54 55 62 58 49 52 55 63 73 73 75 80 85 92 88 89 89 94 89 85 83 83 81 79 73 64 57 54 52 47 51 47
56 68 71 63 58 59 56 53 51 53 58 57 61 56 62 62 66 73 75 84 85 88 89 88 91 90 89 86 83 79 80 84 83 79 76 72 67 64 57 62 59 60 63
33 51 58 62 65 55 53 57 54 51 56 62 60 69 71 74 78 74 85 85 87 92 92 87 83 81 82 86 87 84 81 83 82 82 76 71 68 69 74 75 72 71 78
27 28 36 50 47 54 54 55 58 62 64 66 70 71 74 76 81 83 89 90 93 88 86 83 85 85 85 85 84 85 79 79 77 77 76 77 78 75 72 73 78 80 78
35 39 40 40 43 49 49 54 56 60 67 69 76 77 74 80 84 87 87 83 81 82 82 80 82 80 81 82 79 79 78 79 81 82 82 82 82 81 79 77 77 77 78
35 43 45 50 55 53 58 61 67 72 72 73 74 80 84 84 80 76 75 79 79 80 82 82 81 82 80 80 79 80 82 83 83 81 80 76 74 72 73 74 74 75 74
42 41 50 52 47 52 59 64 68 66 62 66 77 82 77 81 79 76 77 80 83 85 81 75 75 72 72 71 72 73 75 77 78 79 80 78 74 70 68 66 66 68 71
44 36 48 55 59 53 50 50 57 59 58 64 69 71 71 76 76 79 82 86 82 74 73 69 69 68 64 64 67 72 75 76 76 75 77 77 76 77 75 71 72 73 75
50 49 43 48 55 59 57 52 60 61 60 63 65 70 72 77 79 79 75 72 68 65 67 63 61 62 63 68 71 73 77 78 76 77 78 79 81 80 78 77 77 78 79
37 55 57 45 49 49 51 56 54 58 62 64 70 74 74 74 75 70 65 64 63 63 57 60 63 67 70 73 76 79 82 81 79 80 81 81 81 80 79 80 81 84 87
32 33 36 40 46 49 50 55 61 66 69 71 72 72 67 65 62 60 60 60 56 58 61 64 67 72 75 79 81 80 84 83 78 79 78 78 79 80 83 86 91 94 96
36 39 43 47 53 54 51 53 54 57 59 62 64 60 58 56 58 56 56 57 62 65 67 70 73 74 79 84 85 86 86 77 74 78 79 82 87 92 96 101 105 109 112
40 42 47 50 53 53 54 54 57 59 58 56 55 54 53 55 55 57 60 63 68 72 74 75 77 81 85 88 93 94 88 79 75 75 82 87 93 99 106 111 115 117 119
44 45 44 44 45 48 48 49 49 49 50 52 53 54 53 55 58 62 66 69 73 75 77 79 82 88 90 94 95 91 86 83 86 88 88 94 101 107 108 107 111 114 117
42 41 42 40 38 44 44 44 46 50 51 52 53 56 58 61 64 66 68 73 74 77 78 81 86 89 93 97 94 88 85 88 93 98 102 106 104 102 103 105 110 110 110

GFSSE_250_spd_057.txt.gz
Wind_Speed
75 77 75 74 71 69 67 69 69 70 68 67 69 68 66 67 72 69 71 70 69 68 70 72 74 75 76 77 77 76 77 77 76 72 69 71 63 68 74 79 71 57 54
77 77 73 71 70 69 70 69 70 72 71 73 70 68 67 68 68 67 69 67 71 69 72 72 73 71 74 73 72 72 74 75 75 75 72 61 67 70 80 70 59 58 55
78 78 72 71 71 70 67 66 67 71 73 76 72 71 72 70 70 71 69 71 74 78 76 78 76 74 72 70 70 69 76 76 73 68 60 68 73 78 77 67 62 69 77
75 73 69 68 64 64 64 65 65 72 74 73 74 71 72 73 76 81 80 79 80 82 79 74 73 70 70 67 68 70 67 65 56 59 67 72 79 80 77 71 75 81 85
73 71 69 64 61 60 62 65 68 75 72 71 70 70 74 76 76 80 81 83 83 76 74 72 68 69 64 59 61 65 68 66 60 67 71 79 78 76 73 80 83 86 84
66 68 64 55 45 57 57 59 72 72 70 73 64 68 69 68 65 69 68 67 70 69 64 67 67 64 63 62 65 68 65 69 67 73 71 68 70 77 85 85 86 83 85
44 45 43 49 43 48 54 49 50 53 53 60 61 60 62 62 60 61 62 60 61 64 65 66 66 67 64 59 62 61 66 67 73 73 73 78 85 87 87 87 83 75 75
32 30 37 40 45 37 40 43 44 47 52 54 53 54 54 51 56 58 57 58 61 62 63 63 64 66 64 63 57 59 69 74 80 83 88 88 87 84 83 80 76 72 73
32 41 39 34 35 41 44 42 44 46 51 49 51 48 50 53 56 58 56 60 61 63 58 56 52 54 57 62 71 71 81 85 86 92 91 86 86 78 74 74 76 74 70
36 37 36 35 38 42 41 44 45 52 56 53 42 48 54 54 54 58 62 63 48 48 54 51 56 72 74 77 77 89 88 92 94 94 93 81 77 74 78 74 70 66 65
33 43 39 43 45 44 49 51 52 51 57 55 49 51 58 56 58 50 54 50 50 48 58 67 74 80 79 84 89 93 96 97 90 84 76 78 74 75 78 74 68 66 62
37 51 49 55 55 49 46 49 50 47 53 48 58 56 61 55 57 58 52 53 55 67 71 73 78 86 87 91 96 99 92 87 83 81 77 75 73 72 70 71 68 66 64
56 57 51 47 59 52 54 52 51 43 45 55 50 55 56 55 55 55 58 67 67 71 82 82 86 88 93 94 91 83 80 82 83 82 81 80 78 75 72 72 72 72 72
40 57 68 59 58 65 59 60 47 58 60 45 55 59 61 64 63 68 71 74 78 77 77 83 88 87 83 82 83 84 87 82 81 77 75 79 80 78 76 74 73 73 73
28 40 57 64 63 62 67 59 57 55 52 52 58 57 63 72 76 77 76 81 85 85 86 87 91 86 85 86 81 78 78 76 74 72 74 73 74 73 73 72 72 71 70
27 27 28 31 50 52 55 56 57 60 61 64 58 61 66 68 71 77 77 78 83 86 87 87 83 84 83 80 79 73 69 70 70 73 74 72 71 71 73 74 73 72 71
27 30 29 31 35 42 43 47 47 60 59 66 61 63 68 76 75 71 72 73 81 79 79 80 82 80 78 72 70 70 70 67 66 69 73 76 77 76 77 77 76 75 74
30 34 34 35 43 51 47 50 53 56 52 61 58 61 67 68 67 67 73 81 77 79 78 80 78 76 71 69 69 67 68 70 71 74 76 78 80 79 81 78 76 76 76
34 36 41 45 54 48 50 46 64 62 58 60 66 60 62 68 72 77 79 75 75 75 76 75 72 68 68 67 68 70 74 76 78 79 81 82 83 85 84 77 75 75 75
43 45 46 46 53 57 56 53 56 61 71 69 67 68 72 75 75 72 72 72 74 75 73 70 67 68 67 67 71 75 78 81 82 83 84 86 89 90 84 77 74 72 72
35 43 46 48 52 53 53 54 56 54 59 61 62 59 63 66 69 68 69 68 68 68 67 67 67 68 70 74 78 81 81 84 85 88 90 92 95 91 85 80 77 78 80
35 35 37 39 42 50 52 52 54 52 53 56 60 61 64 64 63 64 65 65 65 66 68 68 71 74 77 79 81 82 83 85 88 92 96 97 96 91 86 83 84 87 90
32 33 40 40 41 43 47 49 53 57 59 61 61 59 59 59 60 63 64 65 68 68 68 71 74 77 80 82 82 82 83 85 90 96 98 96 93 91 91 93 95 98 101
44 44 41 42 43 45 51 55 56 58 58 54 54 55 55 58 62 65 67 70 70 71 74 76 75 78 78 78 82 86 90 93 97 96 94 93 93 95 98 101 105 109 112
47 41 41 44 45 47 49 51 51 50 49 49 50 52 56 62 66 69 70 70 70 72 76 80 79 79 80 83 86 89 91 99 100 96 90 91 94 101 106 109 114 116 115
43 42 43 44 44 42 39 41 43 46 47 49 53 57 61 66 69 72 73 73 72 75 77 79 79 81 86 90 92 94 97 103 99 94 93 97 102 104 111 114 115 115 113

GFSSE_250_spd_060.txt.gz
Wind_Speed
74 72 73 74 72 72 70 69 69 67 68 67 66 67 68 69 68 67 67 70 72 72 72 73 71 71 72 72 72 73 76 75 72 72 70 72 70 70 66 63 61 61 64
77 74 74 75 71 70 69 69 69 69 69 68 67 67 70 71 73 73 72 71 72 72 70 67 67 67 68 68 74 76 76 72 70 69 66 68 66 62 62 63 64 68 70
77 77 77 76 71 67 67 68 68 69 68 67 68 70 70 72 71 71 71 72 76 73 73 71 71 74 73 75 78 75 70 68 65 62 63 63 59 61 59 63 65 68 68
79 79 76 74 71 67 65 68 68 67 65 67 67 73 69 69 72 77 72 73 75 74 74 75 71 67 65 64 65 61 63 62 62 63 58 56 60 57 62 67 66 76 77
76 75 76 73 70 67 66 64 61 60 62 63 68 70 71 71 73 76 75 73 72 73 72 69 63 61 61 61 60 63 62 60 59 58 59 51 57 63 68 73 77 81 87
69 65 68 64 56 50 56 59 59 57 62 65 63 67 66 70 72 73 72 72 70 67 65 58 57 56 57 58 57 55 55 55 55 59 51 55 62 70 75 76 82 87 91
57 53 44 49 50 51 55 53 60 59 58 60 61 59 61 55 56 55 61 62 62 54 57 56 57 58 59 54 54 54 56 54 55 57 65 67 72 74 80 84 90 92 83
45 41 43 44 48 51 50 49 46 43 46 43 41 47 45 45 48 52 59 60 59 53 57 59 60 54 50 50 54 52 56 65 68 68 73 79 80 83 91 93 83 75 75
29 31 42 47 45 47 47 53 50 39 45 43 45 44 46 48 54 58 58 56 57 59 60 54 50 54 57 56 59 61 64 67 76 80 82 84 86 92 86 74 75 78 70
38 40 43 43 42 48 44 42 44 42 42 43 45 50 48 48 44 47 52 53 54 53 59 60 59 57 56 58 66 71 72 79 83 81 81 84 84 77 78 77 73 73 69
36 44 48 44 41 46 44 46 50 51 40 46 48 45 44 51 48 50 52 46 55 63 64 63 67 64 65 66 69 71 74 78 82 85 83 77 81 80 77 78 75 71 67
40 44 49 54 44 42 47 47 56 49 44 46 50 47 50 48 52 53 57 60 61 62 64 63 67 72 77 79 79 85 84 85 89 86 82 84 80 81 78 72 69 66 64
37 34 45 42 45 43 51 48 48 47 44 52 54 45 51 51 51 51 54 63 63 69 74 70 76 79 83 82 84 87 92 94 90 87 89 81 79 74 67 61 59 61 61
41 45 45 50 50 57 55 56 56 53 54 48 45 52 52 47 53 58 63 60 67 74 71 75 78 78 83 79 81 85 87 84 86 82 81 76 69 64 60 64 65 66 67
39 53 63 56 55 59 58 56 52 55 63 57 57 54 55 59 63 64 64 63 66 71 75 78 78 76 79 83 85 85 85 80 78 76 71 67 64 65 66 67 69 72 75
35 41 51 62 61 55 53 64 57 54 54 66 62 58 60 68 64 65 71 73 72 74 75 77 76 80 87 88 82 79 76 74 71 68 68 67 69 70 72 73 75 76 79
34 34 32 29 46 64 59 61 63 56 53 55 54 48 52 61 61 58 65 65 62 68 74 74 78 82 83 77 76 75 71 70 69 70 71 73 74 75 77 78 80 82 82
34 31 34 32 29 36 42 46 47 55 52 56 58 60 59 63 68 66 66 72 70 78 82 81 79 78 76 73 71 71 70 72 71 73 76 80 82 83 83 84 82 82 83
28 31 33 31 34 37 41 42 44 50 51 48 49 61 69 75 74 73 75 77 83 79 79 73 73 71 71 72 71 72 74 73 76 79 82 84 82 82 82 81 84 87 89
29 32 32 33 35 37 39 45 49 52 56 57 58 56 59 67 69 73 74 77 77 76 69 68 70 69 71 71 73 72 74 78 79 81 82 82 84 84 85 86 89 92 93
30 32 35 38 44 43 45 49 52 55 62 58 63 61 64 65 66 65 70 70 69 67 65 66 70 71 73 76 75 76 77 80 83 84 83 86 88 90 90 93 94 94 90
33 31 32 36 40 48 46 49 44 47 57 63 56 63 68 66 65 65 65 68 66 65 67 70 73 75 77 77 77 79 80 84 85 84 87 91 95 95 95 97 99 98 91
31 32 38 36 36 38 38 43 47 50 48 58 64 62 60 64 65 67 65 62 62 66 71 74 77 80 81 81 80 82 84 84 82 88 92 94 96 98 101 103 103 99 98
41 39 38 38 38 40 44 47 49 52 50 53 57 60 60 62 60 57 58 61 65 69 72 72 69 69 73 76 78 81 81 86 87 88 92 96 98 102 106 103 101 104 107
44 45 42 44 49 51 51 48 52 54 54 53 54 56 54 54 55 59 61 64 68 71 72 72 72 75 77 76 77 81 86 89 93 94 97 99 101 101 101 108 111 112 114
49 48 46 46 46 46 47 48 46 44 48 50 49 49 53 58 60 63 66 69 72 73 74 74 74 72 75 77 81 84 87 91 96 100 103 101 98 103 108 113 115 115 115

GFSSE_250_spd_063.txt.gz
Wind_Speed
76 75 76 75 74 74 73 73 72 71 68 68 67 66 66 65 68 67 67 69 70 68 71 68 69 70 74 75 74 73 72 72 73 74 71 73 75 68 64 62 60 58 58
74 77 76 74 74 73 72 70 71 68 68 68 68 68 68 68 71 72 72 72 71 72 74 74 74 75 77 76 75 72 71 70 70 69 72 69 64 60 59 61 60 59 57
74 74 73 75 75 73 71 70 69 67 67 68 68 68 70 70 71 74 74 74 75 76 76 75 74 74 73 72 74 70 69 66 62 59 60 60 57 61 63 57 57 55 60
73 75 75 74 73 71 71 69 69 68 66 67 67 68 70 70 72 75 75 74 75 76 74 75 75 75 74 70 68 66 62 57 57 59 59 59 60 58 58 59 58 58 63
70 71 71 72 70 69 69 69 68 64 66 69 68 66 67 67 66 68 73 72 74 71 76 75 68 71 66 67 65 59 54 56 59 59 62 62 62 57 57 59 60 62 66
61 60 56 49 52 60 59 62 61 63 65 64 65 63 64 64 65 67 70 71 70 73 69 68 63 59 58 56 54 55 58 61 64 62 59 60 54 58 61 58 61 65 69
61 55 57 56 55 46 46 50 54 53 57 58 60 62 62 63 63 62 63 60 59 61 62 56 57 55 52 53 54 58 58 51 52 65 58 60 60 66 71 68 68 74 73
46 36 32 34 34 33 43 44 46 53 54 55 55 55 56 51 47 55 47 47 50 51 53 51 51 53 56 57 55 59 61 67 61 58 63 67 66 69 72 73 78 75 75
41 35 35 34 37 42 45 44 42 45 46 43 44 44 44 42 43 47 48 52 50 49 48 50 53 51 53 57 62 61 61 60 65 66 73 76 77 81 82 81 81 78 78
41 35 31 20 34 40 44 43 42 45 50 52 47 40 38 45 46 43 49 48 52 50 51 53 55 59 65 67 60 60 63 67 68 73 75 77 80 79 78 76 77 75 74
36 41 49 53 54 48 39 52 51 47 46 46 49 52 42 44 45 49 53 51 46 48 46 52 58 61 61 62 65 68 71 75 78 78 73 73 78 80 79 78 80 77 67
38 42 44 49 48 47 49 31 41 49 46 46 48 54 52 52 48 46 48 52 53 50 55 50 53 59 58 67 69 70 75 76 77 78 80 81 82 73 74 77 72 67 58
33 44 54 44 43 42 31 40 45 41 49 52 51 59 51 56 46 44 44 51 41 45 61 63 61 60 67 69 73 76 77 77 80 79 81 78 72 71 68 67 66 61 60
41 47 52 47 44 49 41 49 48 47 49 52 49 49 51 56 56 62 57 61 62 65 61 62 67 70 72 75 75 74 76 81 84 82 72 74 68 69 63 64 65 65 68
39 48 47 46 57 58 52 50 50 47 52 51 49 54 58 60 62 60 58 63 59 63 70 75 75 73 76 80 79 79 82 83 78 76 72 67 67 66 65 64 67 70 74
32 45 49 48 51 55 50 49 55 54 53 54 51 52 59 61 64 62 56 56 58 63 67 68 76 78 73 75 81 85 85 80 72 70 68 67 67 69 69 71 73 73 75
30 34 36 48 50 49 46 50 51 51 55 60 61 64 64 58 55 54 59 65 66 68 70 69 72 75 81 83 83 78 71 69 69 69 69 70 71 71 73 74 75 77 76
26 33 39 51 50 52 47 49 52 58 59 59 63 57 61 63 64 65 67 70 73 75 73 82 84 84 77 77 74 72 69 67 68 71 73 76 76 77 77 78 80 79 78
32 30 34 38 39 44 58 57 47 48 49 56 56 63 63 64 65 62 61 61 62 68 68 70 68 71 76 74 70 68 69 71 73 77 78 80 79 80 81 81 80 80 82
30 27 23 26 30 33 35 46 48 39 43 47 49 52 55 57 62 65 68 72 72 76 76 77 78 78 72 69 69 71 74 76 76 76 77 78 80 81 82 80 82 84 84
22 20 22 25 28 30 32 35 37 40 40 44 52 54 60 63 63 68 68 69 74 72 65 69 68 72 65 67 69 72 74 75 76 78 79 80 81 82 82 85 85 87 90
27 27 28 29 30 33 34 41 40 48 50 47 44 45 46 51 54 61 66 69 67 67 67 67 66 66 67 69 72 73 76 77 78 79 79 79 81 85 88 90 92 95 96
27 30 32 31 31 36 38 42 43 43 46 46 47 49 52 56 59 60 58 60 63 64 65 64 65 68 70 73 75 78 80 80 79 80 83 85 87 90 93 96 98 101 103
29 29 32 37 38 39 41 45 45 45 50 54 54 55 56 55 58 57 59 59 59 61 64 67 70 73 74 76 78 79 78 80 81 82 86 91 92 94 96 100 103 104 107
34 37 37 42 44 45 45 48 48 50 49 50 52 54 53 52 53 54 53 59 63 66 69 71 74 75 78 79 76 75 80 85 89 89 88 90 92 97 101 103 108 111 112
38 40 42 43 43 45 47 47 45 44 42 45 48 46 45 48 52 55 60 66 70 72 73 73 75 77 75 73 76 82 88 91 90 91 91 95 98 103 108 111 114 114 116

GFSSE_250_spd_066.txt.gz
Wind_Speed
81 81 81 80 79 80 78 76 75 73 71 70 69 69 70 68 69 68 69 67 67 69 68 70 71 69 69 69 70 73 75 77 77 80 80 79 79 77 73 73 71 67 67
82 81 80 80 80 77 78 78 76 74 72 70 69 70 71 70 71 71 72 71 70 72 72 72 73 75 73 72 75 75 77 78 80 78 77 76 74 72 64 66 63 63 64
78 76 77 76 77 77 78 76 75 74 72 71 71 71 70 72 73 72 73 73 73 73 75 74 74 74 74 73 77 79 79 80 79 78 76 75 70 62 62 60 60 59 62
74 72 71 73 74 75 75 75 73 71 70 70 69 69 71 73 72 73 74 74 74 74 76 74 75 75 75 75 77 77 78 76 75 73 69 65 65 63 59 60 59 65 57
63 67 70 71 72 74 72 72 74 72 70 69 69 69 70 72 72 73 72 73 75 76 76 72 72 74 73 74 76 72 67 68 63 59 57 60 61 58 61 61 59 60 56
58 56 62 66 66 63 67 71 72 72 68 66 68 69 69 68 69 68 70 72 70 71 71 71 68 66 59 57 60 57 55 55 53 54 58 56 54 61 63 59 61 60 68
31 45 56 51 46 52 52 62 66 68 68 64 61 62 65 66 66 65 64 63 69 66 66 67 65 56 53 54 55 54 58 56 55 55 57 60 61 62 61 62 64 73 69
24 39 41 42 36 44 50 52 50 50 53 58 61 60 59 59 59 60 58 59 57 61 55 55 52 53 57 57 53 55 57 53 54 59 64 61 65 64 68 71 76 66 68
51 38 29 33 32 32 36 42 45 48 49 51 49 50 53 51 47 46 49 50 45 41 48 53 55 56 53 52 55 55 60 63 65 67 65 66 66 68 76 70 69 69 71
40 39 35 27 30 26 38 37 36 35 39 42 42 41 41 39 42 42 40 43 44 45 49 55 56 55 56 53 53 61 61 64 65 66 71 69 69 75 77 77 73 72 67
53 48 43 38 33 26 45 41 31 44 48 47 46 44 43 47 44 47 42 45 45 48 53 52 53 48 54 52 60 64 61 57 70 69 72 74 79 76 77 78 73 71 75
55 45 45 42 41 41 41 42 40 47 53 51 55 44 43 47 49 53 56 56 50 48 52 53 55 57 56 60 66 61 63 68 72 71 76 75 78 80 81 78 74 72 68
53 53 46 36 51 48 48 42 43 44 49 39 46 52 51 52 55 54 55 56 58 59 54 59 60 62 62 68 57 64 72 72 77 78 78 81 81 78 72 72 69 64 61
50 51 51 53 51 59 52 55 52 48 40 37 54 51 52 54 57 57 59 61 61 61 59 60 61 65 64 53 61 69 72 73 77 75 82 79 72 69 69 65 63 64 65
37 39 45 48 55 63 59 46 47 53 55 52 54 52 59 52 55 58 56 58 58 62 64 57 62 56 61 68 73 75 79 82 85 81 77 76 73 68 64 65 65 66 69
26 41 37 50 47 51 51 54 58 54 52 57 56 56 57 58 51 55 57 58 59 59 63 61 63 71 72 76 80 79 70 76 72 81 81 73 69 69 68 68 70 71 73
45 44 47 48 53 50 56 55 59 58 58 51 55 59 60 60 61 60 60 65 69 71 73 76 77 77 79 78 74 75 81 83 87 77 73 71 68 69 70 70 71 72 72
39 34 39 50 49 50 57 59 56 58 59 59 53 48 53 55 59 61 58 53 59 67 72 75 69 66 72 75 79 84 83 76 72 71 71 70 69 70 72 75 76 78 78
32 35 38 47 46 46 50 57 57 56 51 55 56 61 64 63 64 70 67 68 69 68 64 65 71 73 74 75 79 75 70 70 68 68 69 72 73 76 78 79 81 80 80
32 34 33 37 40 38 39 46 49 51 58 61 59 50 47 53 54 57 56 57 61 65 69 69 67 69 71 69 66 66 68 69 69 71 74 75 78 81 81 81 81 81 84
20 24 29 34 32 39 33 41 44 37 42 50 47 50 49 47 49 53 56 54 54 54 56 59 61 61 60 62 64 66 70 70 73 75 77 80 80 80 79 82 85 88 89
24 26 26 24 27 25 27 29 32 34 37 41 45 45 50 50 54 51 55 56 56 59 63 62 62 62 62 66 68 70 70 72 77 79 81 81 77 81 85 88 91 92 91
31 30 32 33 32 30 31 32 34 37 39 43 47 48 49 53 54 57 60 60 61 64 62 63 61 61 68 70 72 75 76 77 78 79 78 79 83 88 92 95 94 93 96
30 27 26 30 31 33 36 36 38 41 45 48 50 52 54 57 58 59 58 60 62 61 60 58 59 65 72 74 76 78 80 82 84 81 79 81 88 97 98 96 98 99 102
35 37 38 36 36 38 42 42 44 45 49 50 51 53 54 55 55 57 58 56 57 56 58 62 66 72 75 78 80 82 83 83 80 82 86 93 96 95 96 99 103 105 107
37 38 39 40 42 42 44 46 46 44 43 46 48 49 52 55 54 52 50 53 57 60 64 67 71 74 78 81 83 83 81 80 83 86 91 96 98 100 100 106 108 111 111

GFSSE_250_spd_069.txt.gz
Wind_Speed
82 84 86 84 83 83 81 80 78 75 74 74 74 72 71 71 71 69 69 70 69 70 69 71 69 72 72 73 73 73 74 74 74 74 76 77 79 79 80 80 78 74 74
78 82 83 85 84 83 82 80 79 76 76 76 75 74 72 72 73 72 72 73 73 73 71 73 73 74 75 75 75 75 75 76 76 76 78 78 80 82 81 82 75 71 67
72 79 80 81 83 83 81 79 78 77 76 76 76 74 75 75 75 74 75 75 74 76 75 75 75 77 76 76 76 76 75 76 76 78 80 80 80 81 78 73 67 64 64
67 72 76 76 77 74 75 77 75 74 75 75 75 76 77 77 77 77 77 77 77 76 76 76 77 77 76 76 77 77 78 76 75 79 79 79 76 66 63 62 63 61 60
57 58 62 67 69 72 72 73 74 72 71 73 75 75 77 75 76 76 76 76 76 75 76 77 76 76 76 76 75 75 75 75 74 75 69 64 65 62 63 61 61 58 59
49 40 42 46 58 66 68 65 66 67 68 70 71 75 75 73 74 73 74 74 74 74 72 74 75 72 74 72 72 74 73 74 67 63 60 62 62 57 59 58 64 65 64
10 18 26 37 45 51 61 63 61 61 63 66 68 75 73 71 72 70 70 71 72 71 71 68 67 67 68 71 64 70 66 65 62 60 57 58 57 60 65 65 59 65 68
11 14 24 27 35 44 46 47 51 57 55 57 61 64 67 67 69 69 69 70 67 64 61 61 57 55 61 64 64 59 58 59 56 55 59 62 67 65 62 66 70 69 70
43 48 32 37 24 25 34 40 38 44 47 46 50 52 56 59 62 66 62 53 53 54 55 54 54 55 56 56 53 56 60 59 59 62 63 63 66 67 67 70 70 74 74
51 48 35 44 30 24 18 32 34 37 42 49 50 47 46 42 48 47 45 45 44 46 46 50 48 49 53 54 61 55 55 57 60 62 61 67 69 66 71 74 77 75 76
53 44 46 35 39 32 30 26 28 34 33 36 34 37 35 41 41 40 41 44 45 42 42 42 44 49 55 58 56 57 56 59 61 68 71 66 66 68 72 76 78 81 78
50 41 43 34 32 34 34 37 43 46 42 35 39 40 49 47 52 47 41 47 53 54 53 56 56 53 54 52 57 61 62 63 68 65 57 64 72 74 72 79 78 75 79
51 44 42 42 42 41 38 47 46 41 45 43 44 43 44 49 49 49 50 50 57 58 58 57 60 64 66 65 65 68 65 69 62 60 66 77 83 80 78 75 83 84 80
58 57 49 54 51 42 45 47 47 55 49 47 49 49 49 47 47 51 49 56 62 63 62 62 60 63 67 69 69 68 64 61 68 70 82 85 81 81 82 87 85 74 73
57 61 53 54 53 49 48 54 55 58 50 53 53 54 54 44 47 49 53 56 64 66 66 65 63 66 65 67 68 69 72 73 77 86 82 79 79 82 86 82 72 69 69
58 59 58 51 46 54 53 59 59 57 58 55 53 52 49 53 54 54 55 57 56 61 60 62 63 67 68 71 75 77 80 83 82 78 76 84 84 85 76 73 69 67 69
48 46 43 52 54 55 59 52 56 59 59 61 61 61 61 55 58 54 58 57 61 58 59 61 66 69 74 73 72 77 76 78 77 81 82 81 74 74 74 70 71 70 70
44 48 47 52 47 53 55 56 49 57 54 58 62 58 59 61 61 54 60 59 59 64 68 70 68 66 71 74 80 75 74 77 77 76 76 75 73 68 67 73 73 73 76
50 52 45 47 53 50 56 56 56 60 58 58 58 63 61 63 65 66 66 64 64 67 70 68 68 70 69 71 71 73 72 73 71 66 70 71 71 72 73 71 77 78 80
44 53 49 48 53 49 54 52 55 60 64 64 64 62 61 62 64 65 64 68 60 63 64 61 63 65 65 64 64 68 70 69 66 69 69 71 74 77 78 80 80 80 79
37 45 45 49 46 43 43 54 50 46 51 59 64 63 60 61 60 60 56 55 59 58 60 59 60 62 66 68 68 70 68 67 70 70 71 75 77 78 79 81 83 83 84
32 34 35 43 43 40 40 36 37 38 38 40 43 49 52 51 55 53 53 54 56 58 63 63 66 69 68 70 70 68 65 64 65 73 78 81 81 83 83 81 81 83 87
27 28 29 29 32 35 33 36 36 38 42 41 42 44 46 47 49 52 55 56 60 63 66 68 69 68 68 67 67 66 66 71 74 75 74 80 83 84 85 86 86 88 90
35 35 33 35 34 37 39 37 40 39 38 40 44 47 50 52 53 57 58 60 61 63 64 65 67 67 65 60 66 71 74 78 82 82 85 84 82 81 84 88 91 92 93
39 33 32 32 31 33 35 36 37 43 44 46 47 50 54 57 60 62 62 59 59 62 63 64 63 61 62 65 71 74 80 83 85 86 89 95 93 91 90 88 92 96 98
39 35 37 41 43 42 45 45 45 48 50 53 52 56 58 59 58 56 57 61 62 61 59 60 61 62 67 74 77 79 81 83 85 86 89 90 90 92 95 97 97 98 103

GFSSE_250_spd_072.txt.gz
Wind_Speed
54 55 63 68 71 80 86 87 85 84 82 81 79 77 77 75 75 73 74 72 70 69 70 70 70 73 72 72 73 73 73 74 74 74 75 75 76 77 75 76 76 78 78
48 51 52 57 65 71 81 86 85 82 83 82 81 79 79 78 77 76 74 73 72 72 73 72 73 75 75 75 75 77 77 75 76 77 77 75 75 74 75 76 76 78 78
51 66 59 54 53 62 74 82 83 83 82 83 82 81 80 80 78 76 75 75 74 75 75 74 74 76 76 78 78 77 77 77 78 77 77 74 75 75 75 76 77 76 73
44 53 55 60 57 53 70 78 80 80 79 79 80 80 78 78 78 77 77 77 77 77 78 75 76 78 79 80 80 78 78 79 78 79 77 77 75 76 76 71 70 64 65
34 35 39 43 51 56 59 70 67 70 72 72 75 76 78 78 79 79 76 77 78 79 78 77 78 79 78 80 79 77 78 79 79 77 75 75 75 75 71 67 64 63 57
16 22 35 40 30 35 45 58 63 66 67 66 68 71 73 74 75 76 76 77 76 75 75 75 76 78 79 78 78 77 76 76 76 75 74 73 71 67 64 65 68 61 63
29 12 3 11 16 20 30 38 49 59 60 62 62 62 64 69 72 71 72 73 72 71 73 75 75 77 77 75 72 71 73 70 65 66 66 63 62 64 63 61 65 61 66
19 17 13 17 22 25 27 32 36 34 46 53 56 58 56 56 59 62 64 68 70 70 72 72 73 74 73 68 63 60 58 58 59 63 60 61 59 60 61 62 59 68 65
32 32 15 13 27 24 23 24 32 37 40 46 48 51 56 56 55 53 57 59 59 58 61 65 66 65 64 57 56 56 56 57 56 57 59 60 63 62 64 61 71 62 61
46 40 48 41 48 40 33 20 23 26 27 32 39 43 46 46 47 48 44 43 43 45 49 50 49 48 48 49 56 60 58 57 58 59 63 64 61 62 64 76 64 64 67
52 51 50 49 47 44 45 31 22 24 26 27 28 25 29 33 31 33 40 42 42 42 44 43 48 48 50 50 52 52 53 60 56 54 59 64 66 72 74 64 67 68 74
58 55 55 53 50 43 43 36 39 38 40 35 31 30 31 29 33 37 41 41 39 44 45 47 48 53 49 54 55 55 61 58 60 65 68 70 73 74 62 67 72 78 86
62 64 43 46 46 50 48 37 41 44 50 37 33 37 32 37 41 40 40 44 46 49 50 50 50 57 62 62 61 64 61 66 68 68 68 72 72 71 74 79 82 83 77
60 55 46 40 47 44 54 42 50 46 45 38 40 40 42 41 47 45 42 45 47 47 55 60 60 61 61 60 61 65 68 72 73 78 71 75 80 80 81 86 81 83 84
58 51 44 42 49 50 45 44 46 51 42 49 45 45 47 49 52 53 51 49 50 47 51 53 57 61 65 69 71 75 75 79 77 76 79 80 77 76 77 79 82 82 81
55 52 46 45 50 52 50 46 48 49 51 52 49 53 53 53 55 57 56 59 60 55 57 55 61 61 63 64 66 72 74 74 74 73 72 73 76 80 79 80 79 74 75
63 57 51 49 52 59 56 51 53 52 56 56 54 50 49 53 54 55 54 54 54 51 55 59 63 60 62 66 71 75 71 69 69 73 78 79 78 77 75 76 75 76 73
58 56 43 56 56 58 59 57 57 56 53 55 57 57 56 58 63 61 58 58 60 64 65 64 68 69 71 76 73 70 67 72 73 73 73 70 72 75 78 74 75 72 71
53 55 51 54 55 55 58 62 62 61 58 58 53 54 61 58 62 62 64 63 64 62 67 71 75 77 71 73 69 69 72 70 68 70 75 79 79 77 74 72 72 72 74
47 50 51 50 50 53 54 60 60 59 55 55 59 63 62 58 57 61 62 63 66 69 69 69 68 67 66 68 67 68 68 71 76 79 78 77 76 73 73 71 73 74 76
50 50 48 47 48 50 53 50 50 57 57 58 57 54 59 60 63 66 69 69 68 66 70 67 64 63 64 64 65 69 71 76 77 76 74 74 71 69 73 79 81 81 80
39 45 47 51 50 53 52 49 55 52 54 58 57 53 55 59 61 56 56 58 61 60 62 65 65 65 67 70 70 73 73 70 70 70 70 71 72 78 81 80 80 83 86
34 37 40 48 53 55 52 55 54 51 45 48 48 47 45 46 48 52 54 53 55 56 61 63 64 67 70 72 71 72 73 72 69 66 66 72 79 81 84 87 89 89 89
24 30 33 41 46 54 53 47 51 50 46 47 49 48 45 46 49 53 55 58 60 59 60 66 70 71 71 67 73 73 71 69 67 71 76 77 81 84 85 86 92 95 95
33 30 35 34 38 36 40 39 41 47 47 45 44 46 50 54 57 57 59 61 62 64 69 73 70 67 69 71 68 68 68 70 73 77 85 89 90 89 91 92 91 88 88
40 41 41 43 39 37 38 42 44 44 47 48 50 51 57 60 59 57 61 63 67 70 72 66 67 70 73 70 69 69 71 74 79 81 86 92 91 94 98 100 99 96 94

GFSSE_250_spd_075.txt.gz
Wind_Speed
25 25 34 40 46 54 55 58 65 73 79 84 84 82 81 81 80 79 77 74 75 73 73 72 70 71 72 72 73 73 73 75 74 73 74 74 76 77 76 74 74 75 75
26 12 28 40 35 31 39 53 59 61 73 78 80 84 84 83 83 81 79 77 79 76 75 72 72 72 73 73 74 75 75 75 75 75 77 76 76 76 75 73 75 75 75
32 25 28 45 31 36 41 44 45 55 66 76 82 81 81 82 84 83 81 79 81 77 76 75 74 74 75 74 75 75 77 75 75 77 77 77 75 74 74 75 76 76 74
40 31 20 35 38 41 53 51 54 59 54 65 74 78 78 77 80 80 82 80 79 78 77 77 77 76 77 75 76 77 77 76 76 77 78 77 76 76 75 76 75 76 72
40 35 37 32 36 41 44 43 50 58 56 56 62 71 72 72 74 75 80 82 79 78 77 79 78 77 77 77 77 78 77 76 76 75 76 76 75 75 74 73 71 65 63
34 34 14 18 17 13 16 25 28 36 47 47 54 57 62 65 67 70 72 75 78 77 76 78 78 77 76 76 75 75 76 73 75 73 73 74 71 68 66 63 61 60 57
38 27 35 35 27 32 32 28 26 30 30 33 40 50 55 59 62 64 67 67 70 71 72 72 72 73 74 71 72 73 74 69 69 69 69 69 64 62 58 58 58 59 61
32 29 33 37 35 35 30 26 29 28 28 28 34 42 50 56 58 59 59 61 62 64 65 68 67 67 66 66 65 62 65 67 64 62 59 58 57 56 57 60 60 59 60
36 40 30 37 33 36 45 36 33 32 40 32 32 30 36 45 50 52 55 54 53 52 55 57 58 62 59 59 60 56 52 54 52 51 55 57 51 58 58 59 59 62 62
43 40 43 45 42 34 66 47 42 29 34 27 22 24 28 29 35 44 45 47 47 52 53 53 53 50 48 50 46 44 48 50 55 55 52 52 60 56 54 59 66 66 69
47 48 55 58 50 38 39 43 39 39 33 27 21 20 20 23 27 31 33 38 38 36 38 39 42 41 40 39 42 45 51 49 50 52 54 55 55 54 64 68 69 72 77
54 45 50 60 60 52 53 45 52 55 39 36 33 30 25 25 26 30 27 30 30 32 34 36 35 40 41 44 44 47 52 52 54 55 58 59 65 69 71 76 80 75 74
63 53 46 60 66 56 44 60 57 45 40 40 44 43 34 34 32 31 31 36 36 36 32 38 41 42 42 43 49 49 57 57 60 61 62 67 71 75 76 78 75 75 79
61 61 57 62 61 73 56 54 58 51 54 59 49 47 47 42 35 35 33 39 43 42 43 39 43 45 45 50 52 56 57 60 61 70 73 74 77 77 79 76 74 74 76
70 57 56 68 67 63 66 57 56 56 55 55 51 49 48 45 39 40 43 46 47 48 49 53 54 56 52 56 58 59 63 65 63 66 72 73 74 73 72 73 75 78 77
65 70 56 66 69 71 71 61 59 53 57 53 52 52 49 46 47 44 45 49 49 51 54 56 54 56 57 60 62 64 65 63 68 73 75 74 73 73 75 77 78 78 76
53 55 55 62 65 70 71 61 61 59 56 57 56 54 52 48 49 50 51 54 55 58 59 59 59 57 58 55 58 65 69 73 77 76 72 69 72 74 74 73 73 78 80
55 58 55 55 58 63 68 66 61 59 58 61 55 57 52 54 53 52 50 49 55 56 58 57 57 58 63 65 67 70 71 71 70 72 72 71 75 74 74 78 78 78 79
60 57 55 53 56 56 66 65 69 65 56 56 58 59 55 53 55 55 57 58 56 55 58 63 63 66 69 68 70 70 74 71 68 65 65 68 72 75 77 79 78 76 75
59 60 57 57 57 58 59 62 66 66 64 58 55 55 61 57 59 61 58 60 61 63 64 63 69 69 71 72 72 73 70 69 67 68 71 73 74 75 75 76 75 75 71
59 59 63 59 62 58 58 57 61 62 66 62 64 60 64 67 59 60 61 58 65 63 64 66 68 74 72 71 69 68 67 68 69 72 75 77 76 78 78 77 75 72 71
54 53 53 57 55 52 56 56 59 64 62 61 60 61 58 61 65 70 69 66 64 62 65 67 66 66 66 66 65 66 67 72 75 79 79 76 78 79 76 75 75 74 77
43 49 52 55 53 57 58 58 57 58 65 60 54 60 60 60 59 61 62 59 55 55 57 58 61 62 63 68 67 68 73 76 78 78 77 77 78 77 76 77 77 78 80
36 40 49 49 48 49 46 56 56 62 60 60 60 58 59 58 52 52 54 56 55 57 60 62 64 66 65 68 72 74 77 79 76 76 79 78 76 77 74 77 81 88 89
27 36 43 39 37 44 52 55 57 58 61 60 58 51 56 56 55 58 55 57 61 63 64 65 64 66 70 72 73 76 76 78 78 79 75 76 74 76 76 81 85 86 89
30 28 29 37 39 39 44 48 48 46 46 51 56 59 57 57 59 59 60 63 63 67 70 70 71 74 78 76 74 77 81 83 80 76 73 79 83 84 84 88 90 91 92

GFSSE_250_spd_078.txt.gz
Wind_Speed
49 53 45 45 44 44 34 21 21 32 51 69 69 75 77 78 82 82 82 80 80 79 77 75 74 73 74 72 71 71 71 71 71 73 72 73 73 74 73 74 75 76 75
47 45 39 40 30 26 29 25 22 25 27 42 52 58 71 76 79 83 86 85 82 82 79 77 78 76 76 73 73 72 73 74 74 76 75 74 74 73 75 75 74 75 74
40 42 49 41 15 15 19 12 18 24 34 40 44 54 58 67 73 78 83 84 86 83 82 80 80 77 79 75 76 73 75 75 74 75 74 74 74 74 74 74 74 73 72
34 49 55 41 20 38 19 21 23 28 39 39 40 50 50 52 59 68 73 77 80 85 81 81 80 78 77 79 77 75 77 75 76 73 73 73 73 73 72 72 71 71 70
43 45 45 43 48 39 21 14 16 23 24 27 36 46 47 51 52 60 72 75 76 75 78 78 79 78 78 79 77 77 77 76 76 74 73 71 71 70 71 71 70 70 67
41 28 36 40 34 26 6 4 16 20 27 28 32 40 49 57 56 56 60 65 70 72 73 74 73 74 77 78 78 75 75 73 73 72 72 71 71 67 68 65 60 57 57
38 30 30 28 16 10 12 19 20 27 23 26 29 28 30 46 53 55 56 59 62 65 65 67 67 67 67 71 72 69 69 69 70 70 68 65 64 62 58 53 54 52 53
38 23 20 20 22 22 32 30 38 32 36 35 37 38 37 30 33 38 42 47 52 55 57 56 57 59 58 61 68 65 63 64 62 63 61 59 51 49 50 51 52 50 54
38 26 29 25 36 29 30 43 35 42 40 43 41 42 42 29 31 34 38 42 46 47 50 53 51 52 49 50 57 57 54 53 50 49 48 48 48 50 51 52 51 55 55
48 49 44 44 29 36 42 44 38 43 37 34 34 31 24 23 26 30 31 37 43 43 47 49 48 46 40 40 49 45 40 41 44 46 45 48 49 48 51 53 55 54 57
51 55 47 44 55 36 38 39 60 63 44 30 27 33 35 26 23 23 25 26 28 34 38 39 36 39 35 33 36 40 43 44 41 41 43 49 51 52 52 53 58 62 65
54 51 53 55 51 45 55 42 49 42 40 40 35 27 26 29 26 25 23 25 30 31 35 37 36 36 33 34 36 38 39 41 44 46 49 54 56 59 61 63 66 69 74
57 56 52 52 56 52 41 53 52 54 48 38 32 31 28 29 29 32 29 29 33 38 31 29 30 32 31 36 39 42 43 44 45 48 54 56 58 60 65 66 67 72 73
57 57 47 47 63 53 58 67 65 56 52 49 44 33 35 36 42 45 42 39 41 39 35 34 37 38 39 41 48 52 51 55 56 59 60 59 64 64 65 71 73 74 72
57 61 52 55 59 64 55 63 60 48 56 51 54 51 49 50 53 51 51 47 43 42 41 41 41 43 45 48 54 56 55 56 59 63 60 61 66 69 71 75 73 75 73
52 60 61 59 64 70 65 63 59 49 51 53 48 48 49 54 57 56 60 52 46 48 49 47 47 51 52 55 57 59 60 60 60 57 66 71 72 75 76 75 75 74 72
50 62 70 66 60 73 72 71 65 55 57 58 61 57 49 50 55 56 55 49 52 50 54 54 54 55 57 58 60 62 63 64 68 70 73 75 75 74 73 73 69 68 73
50 66 68 71 67 69 72 64 71 71 62 67 62 61 56 52 51 49 48 50 51 54 56 57 59 62 59 59 60 59 65 69 72 72 72 72 76 72 67 69 71 74 77
49 52 66 72 73 71 74 71 70 69 67 68 70 64 63 61 59 56 55 55 55 55 54 59 62 60 64 64 68 68 68 70 73 74 76 74 71 71 72 73 75 78 82
61 52 61 71 77 74 70 74 70 71 69 65 66 71 66 57 63 65 67 66 64 67 71 73 70 69 68 69 70 71 73 77 75 72 72 72 71 72 74 76 80 83 81
76 59 61 62 68 75 77 72 69 69 69 69 62 61 66 66 69 65 65 66 69 65 63 65 69 71 74 72 71 70 71 69 71 70 70 72 74 77 78 80 78 78 79
65 61 60 62 63 61 63 70 71 69 67 70 67 67 62 67 70 63 68 63 68 70 66 74 71 74 75 70 68 66 67 70 74 76 76 74 75 76 77 77 79 81 83
51 57 55 59 64 65 63 62 63 63 61 59 62 69 68 69 70 72 71 70 68 69 72 70 70 69 67 66 66 66 67 73 72 74 75 77 75 75 77 80 83 82 79
29 45 58 64 65 61 61 58 62 61 67 67 64 62 66 67 72 71 71 73 74 74 73 68 66 65 66 68 70 70 70 71 77 77 77 76 76 79 83 85 81 79 78
17 27 33 39 53 62 60 62 62 66 68 65 67 68 67 65 65 70 72 73 68 70 66 67 67 66 69 73 76 74 77 77 77 78 83 84 83 84 83 81 83 83 85
19 16 18 24 31 38 40 44 45 49 50 53 54 55 58 66 66 60 59 63 68 69 71 73 74 75 76 77 78 77 74 75 76 79 83 83 82 82 79 84 87 88 90

GFSSE_250_spd_081.txt.gz
Wind_Speed
62 61 61 58 59 65 60 61 58 49 51 48 54 54 57 65 75 83 81 78 80 80 77 77 79 78 78 77 78 79 79 75 73 71 72 71 71 69 70 70 72 74 74
58 58 58 58 56 56 55 55 44 27 25 24 29 31 36 43 59 63 70 77 80 83 82 80 80 80 78 81 83 82 81 79 75 74 75 74 73 72 72 74 75 74 74
54 53 54 54 45 45 48 35 31 24 20 17 18 23 27 33 41 47 59 69 71 73 75 77 87 87 85 83 82 82 84 78 79 78 76 74 74 73 74 75 75 72 73
46 49 49 47 46 45 38 39 25 18 14 14 22 22 22 24 32 38 43 50 62 73 75 77 78 83 84 83 84 84 84 81 81 80 76 74 75 73 74 75 74 74 73
40 45 43 40 44 34 38 28 19 11 12 14 11 14 20 26 33 38 41 44 44 49 63 68 70 74 77 80 82 80 80 81 81 80 78 76 74 73 71 72 72 69 68
31 29 31 31 33 40 30 28 22 15 7 13 12 11 14 16 17 23 33 44 46 50 50 56 62 67 70 71 72 73 72 73 72 73 71 73 73 70 67 66 68 65 62
26 31 32 38 39 36 18 18 16 5 4 10 11 19 23 26 26 31 35 37 46 51 54 56 58 61 63 65 67 64 63 66 66 64 62 63 65 63 62 60 59 55 54
30 34 43 35 37 24 19 20 16 13 17 18 19 26 29 24 27 35 40 38 32 37 46 52 54 56 56 55 54 54 52 54 54 54 56 54 54 54 52 52 50 50 47
39 37 42 35 31 29 29 28 31 27 18 23 20 25 28 30 36 37 38 36 30 28 33 39 42 43 45 45 43 43 44 44 48 47 48 47 48 50 45 45 44 46 50
40 38 38 36 42 42 31 34 38 41 27 21 21 27 30 31 43 45 32 26 27 26 28 37 39 41 41 38 41 44 44 40 43 43 45 46 45 39 40 44 49 52 49
49 47 42 43 39 38 40 40 44 47 34 32 28 25 25 32 24 29 26 28 31 30 26 27 30 34 35 35 34 36 35 32 37 39 41 42 42 42 45 50 53 55 56
57 48 45 45 34 37 37 40 46 50 44 36 29 26 31 31 30 29 26 27 25 24 25 24 26 27 27 28 28 28 31 34 38 40 44 44 45 49 56 55 57 58 61
53 43 43 38 35 32 35 34 46 48 48 44 39 40 33 36 24 17 16 19 25 34 32 34 32 30 31 33 32 32 35 37 42 46 47 48 51 54 58 61 65 66 67
54 46 41 43 38 34 34 36 44 53 56 48 41 41 40 39 32 36 30 29 30 36 42 37 40 38 39 41 41 42 43 47 50 52 53 55 58 61 67 65 68 72 73
56 48 47 46 46 42 39 34 46 49 52 49 47 42 49 44 45 36 38 42 42 43 47 48 49 50 47 49 48 51 52 53 55 57 59 62 66 70 68 71 73 75 78
54 51 44 48 50 47 41 41 45 52 45 40 54 55 49 51 43 43 48 46 41 48 46 47 53 53 49 49 52 55 56 58 59 60 64 68 67 71 75 76 74 76 77
53 53 48 50 50 49 44 41 47 46 42 40 42 45 47 41 41 45 50 48 48 47 50 50 46 50 51 54 55 56 56 59 64 70 71 71 72 74 75 77 78 80 76
53 56 52 56 53 49 54 52 54 50 50 50 44 45 46 51 55 56 59 60 57 55 53 56 51 49 52 56 60 61 69 73 71 68 70 76 77 74 76 78 78 76 75
59 56 58 59 60 57 54 54 59 58 55 56 54 49 53 51 50 50 51 49 51 55 56 58 63 63 63 63 68 69 69 69 72 73 75 76 77 75 76 76 75 75 79
63 57 60 61 61 57 57 63 61 65 58 62 62 62 57 57 58 64 63 65 66 61 63 66 70 66 63 62 62 71 72 76 77 75 75 74 75 76 74 75 78 81 80
60 65 60 63 64 61 59 58 70 64 67 61 61 61 64 69 71 73 77 70 73 74 70 64 64 65 67 72 72 71 71 71 71 71 69 70 71 72 74 77 81 82 85
73 61 68 56 61 65 65 63 66 74 74 72 70 72 70 67 68 71 72 70 67 67 68 66 66 69 68 70 67 68 66 68 67 69 71 73 74 77 79 81 83 83 81
67 84 77 73 65 63 69 70 72 75 77 76 73 70 67 71 74 71 63 68 67 65 63 67 68 70 67 72 70 70 67 68 70 71 73 76 78 80 79 74 76 79 81
43 59 88 80 73 74 65 65 74 80 76 76 73 78 79 73 71 73 73 66 67 70 75 73 70 72 69 67 68 67 68 71 76 77 78 79 74 74 73 77 81 80 80
26 34 50 62 70 68 65 66 65 70 72 73 73 74 76 76 77 81 78 72 76 76 74 68 68 67 66 68 70 74 76 76 74 71 69 70 71 75 79 82 80 84 84
20 26 33 40 49 53 62 63 64 65 68 72 73 73 72 76 75 68 64 70 72 66 68 70 73 73 72 75 76 75 75 72 65 65 67 73 76 79 83 87 88 89 87

GFSSE_250_spd_084.txt.gz
Wind_Speed
69 67 67 61 63 66 60 61 64 66 67 67 68 70 71 65 69 72 79 77 78 78 76 78 77 72 75 80 78 75 77 80 78 75 73 73 72 72 72 71 71 72 72
66 62 60 58 59 58 58 59 61 61 61 57 60 56 55 55 53 67 65 68 72 72 80 78 79 77 75 78 79 77 76 78 82 78 78 78 78 77 76 74 75 75 75
61 58 55 56 56 57 54 56 57 60 58 48 51 40 33 36 39 43 43 41 50 56 63 69 80 84 81 80 83 83 79 81 82 82 79 79 78 79 78 79 77 75 73
55 53 49 50 49 52 52 54 57 56 46 39 32 28 20 19 21 30 35 40 47 50 58 61 64 72 77 70 74 79 81 82 84 82 84 83 80 81 79 79 78 78 76
44 42 39 36 42 44 43 51 53 54 37 36 30 22 18 22 15 20 25 32 36 39 40 45 55 59 66 68 74 75 75 76 79 78 77 78 76 76 75 71 73 71 64
24 24 18 25 33 33 34 36 37 38 35 32 27 21 17 12 15 9 6 6 14 19 25 37 50 49 47 46 53 57 63 66 69 70 71 68 68 68 62 59 60 57 59
20 29 31 16 19 20 23 29 37 39 32 30 27 20 16 18 11 8 15 23 21 25 29 31 33 44 45 44 45 49 51 52 54 53 57 56 54 55 56 54 55 52 51
22 27 34 29 20 26 33 31 32 31 24 17 18 24 17 11 12 16 17 17 28 37 28 25 25 26 32 38 40 42 45 45 41 41 44 46 47 48 50 48 46 46 47
21 30 37 35 42 38 37 35 32 26 21 18 15 16 14 12 12 17 15 17 36 33 25 28 25 22 22 24 29 32 34 35 36 38 37 36 38 39 39 39 41 39 37
29 39 40 41 48 46 30 33 33 31 26 19 16 14 12 14 14 13 15 29 38 35 33 30 25 21 22 23 25 27 28 28 29 32 34 31 32 34 35 35 38 41 46
35 37 39 39 45 34 38 40 38 34 30 27 24 20 15 15 12 11 17 27 36 35 27 26 17 16 21 20 22 25 27 28 28 29 29 32 33 35 36 38 42 46 49
37 44 47 44 43 33 35 36 38 32 33 31 25 16 19 10 12 16 21 15 16 35 17 27 31 29 25 25 27 26 28 31 33 34 36 38 40 42 43 46 50 54 57
41 47 48 49 47 35 34 32 32 31 30 32 29 20 25 16 17 21 9 14 25 28 27 34 33 25 28 31 33 36 39 41 42 43 44 48 46 46 48 54 58 60 64
45 46 43 43 40 34 38 34 40 33 37 39 36 33 34 31 18 27 27 34 34 32 38 40 35 38 38 39 38 44 46 47 50 50 51 51 52 57 57 59 63 65 68
47 42 40 42 40 31 29 29 30 33 42 43 36 48 35 26 31 32 32 33 32 34 29 32 35 35 34 39 39 46 52 51 53 54 51 50 53 57 61 66 67 66 66
46 42 40 39 35 28 24 34 32 27 38 45 38 36 32 34 37 39 36 34 30 30 36 33 40 45 49 54 51 52 50 54 50 53 55 56 61 60 63 68 66 68 68
47 46 39 35 36 30 28 26 20 30 39 41 46 49 41 41 38 38 44 44 38 38 45 48 46 48 52 53 49 48 55 55 55 57 63 64 63 63 63 66 68 70 69
48 49 52 42 38 35 30 28 30 32 38 43 42 45 46 46 42 43 47 38 42 46 44 49 47 50 51 49 53 55 57 59 65 65 65 62 60 61 65 66 67 68 69
45 49 54 50 46 40 36 32 36 39 42 38 39 40 40 50 50 47 47 44 48 48 48 49 59 59 65 59 60 64 63 60 61 61 60 60 61 64 65 64 65 66 67
50 47 51 49 52 48 42 44 38 42 44 50 50 49 47 49 51 48 53 56 56 57 60 62 62 64 60 53 57 59 56 58 61 63 63 63 64 61 62 64 64 67 70
43 47 43 53 54 52 53 43 45 42 46 50 54 52 54 57 58 59 61 61 61 61 61 55 53 51 61 65 63 61 61 67 70 64 63 64 65 64 65 65 67 70 67
59 55 50 48 51 51 58 56 54 54 50 54 58 64 62 64 65 64 65 66 63 62 62 60 66 66 60 59 61 61 64 66 71 67 66 63 64 67 70 67 63 60 60
48 61 63 57 47 55 55 57 62 58 64 61 59 59 68 73 72 73 72 67 70 70 70 68 65 63 61 59 66 69 67 67 66 69 68 70 73 70 62 58 58 62 65
37 41 67 67 68 57 57 61 60 60 65 64 70 70 68 66 72 74 72 74 69 62 58 60 65 68 63 62 65 78 71 71 68 70 73 68 59 56 57 59 64 66 70
39 43 46 65 65 67 70 70 66 67 65 64 63 64 62 65 63 63 66 68 60 66 64 69 72 65 71 70 72 74 79 76 76 75 66 55 54 55 60 65 72 77 83
18 20 25 35 53 64 69 65 68 71 78 69 70 65 66 67 67 68 67 63 68 69 70 68 74 74 73 75 77 79 77 73 64 60 51 54 59 65 70 79 86 91 93

GFSSE_250_spd_087.txt.gz
Wind_Speed
69 70 69 65 60 57 63 66 66 68 66 68 71 73 69 71 72 76 74 73 74 75 76 74 75 74 78 79 75 72 78 79 76 74 75 74 74 74 73 72 70 69 69
63 63 60 57 53 56 59 58 61 60 60 62 66 70 66 65 67 67 64 65 66 66 67 69 72 73 74 75 77 75 79 78 74 75 77 77 78 76 71 73 74 73 73
58 55 48 46 51 48 53 58 56 55 56 56 62 65 61 61 60 51 49 51 50 57 61 64 73 79 79 79 80 80 75 79 79 76 78 79 78 79 80 78 75 77 78
51 44 39 33 42 42 44 49 53 53 52 53 52 56 58 47 40 36 34 37 40 40 39 47 56 63 72 75 79 82 81 80 83 83 83 81 80 80 80 80 80 81 82
47 39 31 23 21 30 35 41 48 48 50 50 47 46 44 33 28 26 25 27 31 37 42 43 49 53 53 56 64 70 68 65 70 73 70 70 69 72 70 70 74 73 73
36 30 18 13 4 10 15 25 36 41 47 46 43 42 32 33 26 26 27 27 13 8 7 16 17 23 28 35 45 45 44 43 47 56 58 61 60 61 61 62 57 52 57
24 21 33 34 41 16 33 24 24 32 40 46 40 37 30 30 32 29 22 16 10 10 12 10 18 15 16 19 30 38 40 38 37 37 39 40 43 44 46 45 47 45 44
10 25 34 36 35 32 20 23 18 22 25 35 36 38 34 31 32 28 24 18 13 15 15 17 16 17 11 10 13 17 25 31 28 28 29 31 33 35 35 36 38 38 37
10 17 37 43 36 30 21 16 15 18 26 32 35 35 32 28 26 23 20 17 17 16 18 24 24 19 7 5 6 8 13 17 19 23 26 28 31 31 31 34 35 33 32
13 27 37 43 49 51 35 26 22 20 28 32 36 38 33 29 21 21 19 15 12 12 13 24 18 11 10 10 10 8 7 8 10 13 20 27 29 32 33 37 36 37 36
18 34 41 41 52 45 40 39 35 27 32 35 30 24 20 17 17 21 20 18 16 12 7 14 17 15 24 21 17 17 16 17 15 22 26 26 30 30 35 37 42 42 41
25 44 41 42 55 45 39 48 42 41 39 35 25 21 20 20 21 21 21 17 9 10 14 18 16 30 28 24 21 28 29 31 27 27 29 32 35 36 49 49 40 41 45
26 44 44 46 51 40 45 48 48 49 42 35 28 26 23 24 25 14 21 13 16 16 26 28 27 29 31 29 32 32 32 31 30 36 39 41 44 46 43 44 43 47 50
31 43 46 45 46 42 36 47 46 42 40 37 29 30 26 25 20 14 20 18 19 25 29 31 31 36 32 31 38 30 35 37 38 46 47 47 47 41 44 47 55 55 53
30 41 44 33 41 38 33 32 32 40 39 32 29 34 33 32 21 22 20 24 27 27 34 27 34 31 36 39 35 38 41 43 43 47 48 47 46 45 51 55 54 51 52
26 42 40 37 42 37 38 32 36 36 41 34 34 35 39 35 30 31 31 29 29 31 24 35 39 32 34 38 41 42 47 48 43 45 47 43 49 52 51 53 50 51 52
20 38 43 34 39 39 39 32 29 33 33 36 35 40 40 38 25 32 36 35 37 34 34 36 29 34 38 48 44 52 56 54 51 47 49 51 50 51 51 53 51 51 53
29 33 41 34 39 38 37 37 25 29 32 37 35 40 36 42 43 41 41 41 40 32 27 33 38 46 50 52 52 55 52 51 46 44 48 48 50 55 56 52 52 54 56
18 35 42 38 36 38 34 32 28 22 28 34 37 41 41 46 50 43 42 43 45 45 51 50 51 52 54 55 48 53 51 48 49 50 51 50 55 56 54 52 55 56 58
28 27 33 48 43 40 37 34 34 26 27 34 40 43 41 42 46 49 48 53 52 50 53 57 50 54 52 52 54 49 48 49 54 60 65 64 60 56 57 58 58 56 60
35 33 40 45 39 44 47 43 36 37 30 30 38 46 50 46 41 42 50 50 53 57 61 61 59 58 57 56 52 51 59 65 67 61 55 55 59 60 62 58 59 62 63
41 38 39 39 31 31 34 50 46 45 41 33 35 39 48 53 55 56 55 60 60 57 60 58 58 65 63 69 68 68 66 61 59 58 58 61 60 62 65 63 62 61 58
35 43 42 43 48 40 35 28 37 45 50 48 44 42 45 46 48 52 54 58 61 68 71 68 65 71 69 66 66 58 58 60 61 61 64 66 66 64 60 56 54 48 49
33 39 34 32 47 45 47 44 38 38 48 56 52 53 54 52 55 58 60 63 64 68 68 63 60 61 65 59 55 58 58 62 62 64 67 66 61 60 57 51 53 53 60
12 22 33 36 31 44 43 50 52 47 46 53 56 53 56 58 59 63 66 68 60 62 60 60 62 61 60 59 56 59 69 67 65 66 65 68 57 60 58 54 69 72 77
9 10 13 23 31 40 43 42 47 49 48 51 55 59 63 63 62 64 63 61 58 63 62 61 59 57 54 57 62 63 65 64 69 66 53 53 54 57 62 69 76 79 82

GFSSE_250_spd_090.txt.gz
Wind_Speed
69 67 65 64 63 61 60 62 64 63 64 67 70 73 67 72 78 79 76 79 80 78 78 78 77 78 77 77 77 77 78 77 77 79 79 77 76 72 76 79 79 75 73
60 59 58 60 58 53 52 55 56 60 55 60 64 68 65 67 69 71 73 70 69 71 69 70 71 72 74 75 73 77 78 80 79 76 75 75 73 77 75 75 77 77 76
58 57 53 52 47 40 43 47 48 51 52 52 56 60 65 66 66 62 57 62 68 63 59 59 58 62 62 65 72 73 74 78 81 79 79 76 76 78 78 79 78 77 79
58 53 47 40 32 32 37 27 35 40 45 50 49 52 57 59 60 59 46 53 54 50 50 50 51 51 55 59 66 72 76 75 76 76 78 81 80 80 81 75 78 82 82
54 45 35 26 19 21 10 7 22 26 36 46 50 46 51 52 52 54 53 48 40 39 38 38 39 39 48 55 62 68 70 76 76 72 72 74 76 75 75 72 77 76 74
45 33 24 13 17 15 10 15 13 38 35 37 46 48 49 48 49 39 34 35 34 31 30 41 41 31 22 25 32 38 40 41 44 47 50 51 49 52 53 55 53 54 48
32 25 26 30 30 23 18 17 26 34 35 31 39 45 46 42 39 32 32 28 26 31 30 17 17 14 16 24 34 37 40 40 44 43 40 38 36 35 30 31 34 36 41
23 24 38 41 44 49 28 16 31 38 30 29 34 40 40 42 36 32 27 28 30 27 20 15 7 10 15 16 23 25 27 32 35 34 31 27 17 19 23 24 26 27 29
18 41 41 45 45 35 32 25 31 32 29 27 31 40 36 38 33 32 29 27 27 25 20 17 11 7 6 8 7 6 8 4 7 5 4 2 9 10 14 15 19 26 33
23 45 37 40 46 41 38 49 54 28 18 17 25 36 34 33 34 28 32 31 28 28 22 13 8 5 13 4 6 3 7 7 9 7 10 12 15 17 22 24 25 33 30
17 28 38 39 46 47 51 44 41 28 20 16 20 29 32 30 29 32 33 33 28 23 19 14 13 10 11 12 19 8 8 14 18 16 14 16 19 22 26 30 33 30 31
14 26 33 45 49 47 47 39 40 36 29 17 24 28 34 35 36 34 31 23 27 27 18 19 14 18 18 19 17 17 17 22 21 19 22 26 29 34 38 36 34 32 32
16 27 33 45 55 51 45 45 47 52 30 21 24 34 32 32 30 26 26 29 32 23 20 15 18 20 20 21 21 23 19 22 22 30 37 38 39 39 35 32 34 34 36
16 23 31 34 45 45 44 44 44 37 29 30 28 34 33 25 21 20 21 23 33 17 24 23 23 22 18 16 21 24 28 27 36 38 40 37 41 41 36 39 37 36 40
25 22 29 35 44 47 46 41 45 42 34 37 37 34 28 24 26 25 18 23 29 24 24 23 26 21 22 21 28 34 37 44 47 41 42 39 42 42 40 39 40 43 44
19 24 34 32 42 50 40 43 50 39 41 45 39 32 29 29 30 29 24 18 26 25 32 29 25 24 18 24 39 39 43 45 44 45 41 45 41 43 41 41 43 45 48
15 15 29 35 45 42 38 42 40 42 41 39 38 34 34 34 34 33 32 30 25 34 29 31 30 37 36 38 42 48 46 47 44 47 47 44 44 43 44 46 48 51 51
26 16 29 31 34 31 38 37 46 45 46 42 42 38 35 31 35 34 36 29 25 28 32 41 41 37 35 47 49 47 54 52 57 49 49 46 45 46 48 51 53 54 57
16 30 20 29 31 37 39 45 37 33 38 41 39 39 36 39 42 42 40 32 31 38 39 46 41 45 55 48 53 60 57 55 53 49 46 48 47 50 54 58 58 56 56
30 21 25 31 34 35 41 39 38 33 32 39 40 38 40 41 42 43 39 43 41 44 48 46 50 49 56 58 58 60 58 51 46 49 50 51 55 53 56 60 58 58 60
43 28 30 32 36 40 41 42 41 43 44 36 35 37 43 46 44 45 46 42 51 57 51 52 59 53 57 63 65 60 53 53 58 53 57 60 55 56 58 56 58 61 63
47 45 35 35 31 39 48 44 42 39 38 36 34 34 43 49 49 50 52 52 47 52 52 52 55 62 66 67 56 52 62 62 59 56 54 57 60 59 57 57 58 61 61
39 46 50 40 38 37 40 47 49 47 45 40 40 38 38 46 54 53 53 56 58 59 60 63 66 67 63 57 58 63 58 59 60 56 57 57 55 54 55 57 57 56 48
20 39 47 49 42 35 36 37 34 33 35 35 42 44 47 48 48 50 50 50 54 58 61 61 63 62 60 63 62 60 58 55 59 57 56 59 62 61 58 51 49 45 49
12 19 38 37 40 38 33 41 43 38 37 35 38 41 44 46 48 49 52 54 56 58 61 62 60 62 62 58 53 52 57 59 59 60 61 59 59 54 46 50 51 56 60
7 10 14 29 46 43 36 35 43 45 45 46 47 49 52 52 55 56 56 59 62 62 62 62 61 57 53 51 52 57 56 57 60 61 60 59 52 52 55 59 63 66 71

GFSSE_250_spd_093.txt.gz
Wind_Speed
69 66 67 66 66 65 65 65 64 62 63 65 69 74 78 79 80 81 82 81 82 82 79 80 80 80 82 80 79 80 79 78 77 76 76 79 79 79 78 76 76 75 77
62 59 59 57 57 58 56 54 53 53 55 58 62 65 68 71 75 73 76 77 77 78 80 78 73 77 79 78 77 77 77 77 75 76 73 74 75 76 76 77 77 79 80
59 57 57 55 55 55 52 46 43 44 44 45 49 56 65 65 66 68 68 68 69 66 68 68 64 62 62 67 66 68 71 72 72 74 76 75 76 77 79 76 78 81 80
59 57 52 50 49 46 38 35 34 30 24 27 30 37 49 59 60 63 61 62 55 51 56 61 59 53 56 56 57 57 55 57 63 66 75 76 77 78 80 76 77 79 80
59 56 50 44 37 28 23 20 8 8 13 9 18 29 38 45 55 57 54 52 42 41 45 45 39 38 44 44 46 46 51 58 60 60 62 62 67 69 73 73 74 70 64
54 48 40 32 26 23 22 17 10 2 22 30 28 33 30 40 46 52 54 50 33 36 37 35 38 35 40 43 46 51 44 44 44 40 46 48 52 52 53 48 47 43 42
43 37 26 21 31 42 35 28 14 8 20 40 36 38 34 35 45 50 51 49 38 41 37 37 30 36 40 38 35 32 31 33 35 39 42 43 41 37 37 35 28 25 22
34 22 36 40 44 42 44 46 32 24 31 40 40 44 40 33 45 46 45 39 34 39 34 27 30 29 24 20 20 27 34 33 36 38 39 32 26 23 15 9 12 9 11
19 15 48 46 46 48 43 50 43 51 37 36 43 48 38 32 39 43 37 34 31 25 27 28 25 15 13 8 16 16 14 16 15 16 13 10 8 9 9 13 17 21 24
16 26 47 50 46 44 38 45 40 48 41 37 41 46 36 28 36 41 35 31 28 26 24 26 22 17 16 14 7 8 15 11 8 7 8 9 5 11 17 17 27 29 31
18 38 45 42 48 41 49 40 43 60 57 53 45 36 27 26 32 32 34 30 26 27 30 26 20 19 23 19 8 8 14 8 7 5 2 9 17 21 28 27 29 30 30
13 36 47 37 43 45 38 32 38 58 53 45 36 33 27 19 29 31 29 26 26 27 31 24 22 24 18 21 13 11 13 13 14 9 11 18 24 33 37 32 28 35 30
7 21 40 42 42 43 43 38 47 43 40 39 41 33 21 27 33 30 26 26 30 31 30 24 28 30 21 17 16 14 20 15 15 17 26 29 36 42 43 28 30 33 36
9 17 30 34 44 55 47 54 58 50 52 37 34 29 22 26 32 34 31 32 30 33 30 30 28 22 21 19 15 15 20 23 27 29 35 41 48 47 36 35 32 39 38
9 19 23 31 42 61 59 60 56 55 43 44 48 35 27 28 32 30 30 34 30 34 35 34 28 24 25 20 22 20 25 28 29 35 39 45 47 46 43 37 40 41 40
8 22 27 25 44 55 62 55 56 60 55 52 44 35 31 34 30 26 29 28 22 24 34 27 30 26 27 23 22 26 37 30 39 45 45 49 47 49 42 38 41 42 44
14 12 33 28 45 53 52 53 59 58 53 53 37 38 43 37 29 30 27 23 19 17 28 35 30 31 26 30 39 41 34 43 48 52 54 56 52 49 40 44 47 46 51
23 20 29 32 38 48 49 51 54 62 44 41 38 45 41 38 31 28 25 24 27 25 23 34 28 26 34 40 40 35 43 48 56 53 51 55 53 45 45 47 47 49 52
28 28 20 35 35 54 50 50 50 53 56 54 42 50 45 38 33 27 27 29 30 28 25 27 32 36 36 40 39 47 55 56 62 58 64 59 50 47 50 50 52 54 56
33 31 30 31 37 41 42 58 49 45 43 46 42 45 44 39 32 34 31 31 35 34 31 31 36 43 52 52 52 56 62 63 60 66 65 55 51 52 54 56 57 58 59
43 36 33 35 35 37 36 47 45 43 41 38 46 45 44 41 37 36 36 40 49 40 37 37 40 47 52 55 59 58 65 62 67 68 62 56 54 56 55 57 59 58 58
40 44 39 35 38 37 39 39 48 47 45 38 42 40 39 41 42 41 43 48 51 44 44 46 48 57 64 61 64 67 69 70 72 68 60 56 56 58 59 57 57 58 59
29 45 46 41 37 38 41 45 42 43 48 40 42 44 41 41 43 43 48 54 50 52 57 55 55 60 61 68 70 71 71 75 74 60 64 61 59 59 59 58 58 63 62
11 32 49 51 40 39 41 42 47 48 46 45 42 41 39 40 39 49 50 55 51 57 64 63 66 65 68 65 67 69 74 70 64 64 63 62 63 63 61 61 63 60 53
9 14 37 54 52 43 42 44 45 50 49 49 46 42 44 45 44 48 52 60 66 67 68 67 67 65 66 68 72 73 67 64 64 65 63 63 65 62 62 66 61 53 47
10 12 15 37 49 52 47 48 47 46 46 53 52 47 46 46 51 56 58 58 58 62 64 65 63 64 68 72 68 62 61 62 67 67 68 66 63 62 61 59 60 58 53

GFSSE_250_spd_096.txt.gz
Wind_Speed
64 68 67 68 71 70 68 68 67 66 65 65 65 68 72 75 78 79 80 80 81 83 85 83 83 82 81 81 83 82 83 81 79 78 78 79 78 78 75 79 78 79 77
58 61 61 61 62 63 62 60 58 58 56 54 56 59 63 65 70 75 77 80 79 79 80 80 80 80 79 80 80 79 80 79 78 76 74 74 73 74 75 73 76 75 76
59 56 59 58 56 56 54 53 50 50 48 47 46 48 48 51 56 60 68 71 73 76 77 76 76 75 73 73 72 67 74 73 72 73 71 75 74 72 71 71 72 76 77
60 59 62 58 55 51 49 47 44 40 40 41 34 28 23 24 32 42 51 59 63 63 68 68 66 63 61 63 59 57 59 58 57 61 57 58 58 64 71 69 68 71 74
63 60 59 57 48 48 44 37 34 32 25 24 26 17 6 11 22 28 37 47 51 53 53 54 54 45 41 38 45 49 50 50 53 47 46 51 56 58 61 63 60 60 60
56 53 53 49 46 41 33 28 21 16 15 16 21 17 17 20 24 31 34 40 43 42 45 35 39 36 33 37 32 39 39 39 37 43 45 45 44 41 51 54 50 43 36
49 49 48 43 39 32 24 35 33 28 27 22 26 26 30 30 35 34 37 35 40 30 29 26 28 28 30 30 35 36 36 40 41 42 39 35 41 48 44 39 30 24 23
41 38 35 35 32 25 39 50 47 41 32 28 24 23 37 38 40 42 37 33 37 39 29 27 34 28 33 31 35 37 34 35 35 32 36 36 40 32 17 10 7 6 13
32 26 23 27 24 42 59 53 54 46 33 40 30 38 32 28 32 39 41 32 33 35 32 32 40 36 28 28 31 28 26 27 30 34 34 26 14 9 5 9 11 17 21
22 19 19 30 44 58 61 54 51 44 36 35 45 49 29 33 39 39 38 28 29 32 31 41 42 34 25 14 15 21 20 16 12 8 8 11 8 4 7 12 15 21 22
17 17 30 40 54 53 47 50 48 47 41 45 53 47 24 34 35 30 33 22 27 32 40 32 30 27 21 19 13 17 21 17 13 8 10 12 9 8 16 18 29 27 28
8 10 38 46 47 50 47 42 42 48 49 41 61 46 37 36 40 33 33 24 26 30 28 25 25 26 22 21 19 18 18 14 14 9 10 10 12 21 25 29 32 34 30
8 13 31 44 48 47 44 39 37 38 48 61 61 40 29 34 39 29 28 23 32 30 28 28 24 23 26 27 21 16 19 18 15 14 14 16 22 25 27 32 36 38 38
11 15 30 44 50 46 40 40 36 30 49 55 62 58 46 27 27 24 22 33 33 31 26 28 31 26 30 27 24 20 19 18 16 23 18 25 31 32 33 41 42 44 40
21 15 20 42 43 47 39 39 37 39 40 46 31 48 35 24 22 28 27 31 35 28 28 31 32 29 32 28 21 20 18 26 24 24 25 30 31 35 36 43 46 47 42
21 17 22 41 44 40 37 37 38 48 49 44 37 48 31 25 19 23 25 32 31 26 33 30 31 29 26 25 26 24 23 27 33 29 33 32 36 36 47 49 55 49 45
20 24 24 24 46 40 39 38 43 50 56 66 53 55 47 32 25 23 30 35 28 29 24 30 32 35 29 28 28 27 30 34 33 35 38 40 43 49 50 54 54 49 49
25 26 25 31 37 48 40 47 54 49 47 58 46 52 51 44 33 27 27 30 29 29 21 24 27 32 33 31 27 31 33 36 38 44 46 50 53 59 58 61 55 50 51
21 30 26 35 34 43 50 51 52 53 58 52 44 49 52 46 35 32 30 25 25 24 22 22 24 28 35 38 33 35 38 39 47 52 49 47 56 62 63 63 58 53 54
19 32 33 30 39 45 51 55 49 55 59 64 51 47 46 35 39 40 35 31 28 26 29 28 28 27 28 39 46 45 44 52 55 54 60 62 62 65 66 69 56 56 59
21 30 37 34 39 40 54 54 53 52 54 52 46 44 46 40 36 44 40 35 36 31 35 39 36 33 34 32 45 53 50 54 58 60 67 67 67 69 69 63 58 60 64
27 22 42 41 36 43 53 54 58 57 51 50 52 48 50 45 39 46 45 39 36 40 38 41 43 43 46 45 51 54 58 61 64 65 69 71 70 71 71 61 66 64 67
25 22 43 42 42 41 44 51 56 53 52 54 48 43 43 44 39 43 43 44 47 47 47 45 50 50 51 55 55 57 61 65 70 71 74 73 71 75 65 66 65 69 68
24 22 27 50 44 46 44 47 54 58 57 52 53 47 42 46 49 47 47 49 51 53 49 55 56 58 55 57 60 66 66 70 72 73 74 73 75 72 68 67 71 71 72
19 17 26 46 54 46 47 45 50 50 52 59 52 52 50 46 48 51 50 53 52 54 54 60 59 62 65 64 67 69 72 73 74 73 74 76 72 69 70 70 74 72 73
16 18 15 29 52 54 48 51 53 54 55 54 57 55 53 49 49 50 50 50 50 52 53 54 58 63 68 69 70 70 70 73 75 76 76 72 68 71 75 74 73 73 73

GFSSE_250_spd_099.txt.gz
Wind_Speed
64 65 65 65 65 68 68 66 66 67 67 68 68 69 70 72 73 74 76 78 77 80 82 84 86 85 85 85 85 84 85 84 83 81 80 79 77 76 76 75 75 76 78
58 59 60 61 61 63 62 60 60 59 58 56 56 56 59 62 64 67 68 70 72 74 75 76 78 79 79 80 83 83 83 81 81 80 78 78 79 77 76 75 70 74 71
55 58 60 60 61 60 61 59 57 56 52 48 45 45 48 50 52 51 53 54 59 61 64 69 74 74 74 73 72 72 73 74 73 73 73 69 69 66 69 70 70 65 69
55 58 58 58 60 57 56 55 54 50 44 40 41 38 38 35 30 27 16 16 21 37 46 53 58 64 65 66 67 66 65 62 59 60 61 60 59 63 66 65 59 58 57
56 58 57 56 54 50 46 47 46 44 40 36 31 29 25 18 10 10 11 17 21 26 30 36 39 43 48 48 52 53 47 47 50 46 53 55 54 55 58 56 49 50 51
51 55 52 48 47 46 43 39 37 32 35 26 23 19 23 20 10 10 13 20 22 29 28 31 32 32 28 35 32 31 29 33 35 39 38 42 43 40 39 39 43 47 43
45 47 50 46 45 42 40 33 31 31 28 28 28 17 18 16 23 20 19 20 26 30 29 27 24 22 24 25 26 25 31 34 34 33 36 36 33 42 43 42 45 33 24
43 43 40 39 36 30 30 28 32 39 40 50 40 29 21 35 36 21 21 20 22 31 24 23 28 24 23 25 25 20 23 31 34 31 37 33 34 36 34 23 13 10 9
42 34 32 30 27 25 24 28 35 45 54 51 52 49 50 44 36 26 23 24 25 32 21 25 28 28 19 14 13 23 30 35 32 31 35 37 31 28 18 13 8 11 14
35 28 23 21 23 20 26 30 38 53 59 56 50 48 44 33 37 39 28 28 29 24 15 23 24 17 18 25 25 33 32 33 29 28 27 24 18 16 16 15 9 13 15
23 20 15 12 12 19 31 41 47 57 54 49 48 48 46 52 42 24 23 18 19 28 23 22 19 23 30 32 32 22 24 22 15 13 15 19 21 19 14 10 10 11 15
22 18 19 17 17 19 36 47 53 52 48 52 53 44 46 43 33 26 24 22 23 27 26 24 35 38 35 35 21 16 17 19 12 17 17 21 19 10 9 13 14 21 23
29 16 22 17 19 22 31 51 54 47 44 48 44 46 40 44 26 29 24 24 29 30 22 27 34 34 30 31 23 21 21 14 13 16 16 20 19 17 17 14 17 23 28
30 22 17 21 20 27 35 45 51 40 41 40 44 40 44 32 43 30 22 24 24 24 25 27 28 29 33 30 27 21 19 17 25 22 18 26 18 15 15 20 23 28 32
28 30 18 17 21 33 40 46 46 41 40 37 39 46 31 31 35 28 23 23 22 24 25 24 26 35 31 36 30 25 22 14 21 22 22 24 21 19 21 25 31 35 43
26 30 24 15 30 37 40 43 42 37 35 47 48 51 34 33 24 28 26 24 23 30 31 28 30 36 29 33 34 28 22 20 20 23 25 24 21 23 30 37 38 39 47
29 26 28 18 20 41 45 43 39 37 31 39 46 47 51 39 27 25 27 19 28 30 27 30 34 38 27 23 29 21 20 21 22 26 31 34 33 30 29 38 44 52 53
33 29 35 28 20 36 47 39 40 45 37 34 43 44 41 45 28 25 27 19 24 28 24 28 35 33 30 27 27 31 30 28 30 30 34 39 40 42 39 44 51 55 57
33 32 26 33 25 32 35 39 37 38 41 41 44 44 63 57 49 36 22 21 23 26 24 22 26 25 27 26 33 33 36 35 39 35 42 41 47 51 49 51 58 60 63
32 31 27 31 26 32 30 38 41 44 46 51 53 46 58 57 54 49 38 27 23 24 24 22 22 27 28 31 33 32 36 47 50 49 47 49 51 52 54 57 62 64 67
34 33 29 28 31 34 34 34 45 50 50 60 54 50 58 54 58 49 43 33 29 30 32 29 29 27 29 31 34 36 38 45 47 51 54 50 51 57 61 64 66 68 74
33 33 33 26 40 34 40 31 42 52 56 54 53 49 53 47 50 53 46 39 42 37 35 36 35 33 34 36 40 42 44 50 54 53 54 57 60 63 64 66 68 74 72
33 32 32 26 31 38 38 36 38 55 53 58 56 59 54 44 47 47 51 49 39 45 48 41 43 41 42 41 43 46 54 56 56 59 62 64 65 66 67 71 75 75 75
31 31 30 25 24 45 41 40 39 44 49 53 56 62 58 65 47 45 48 47 48 47 55 53 51 49 47 49 50 50 58 61 65 65 63 64 72 72 70 73 76 77 77
27 28 24 21 18 40 43 43 41 41 46 51 51 54 56 50 47 49 45 48 48 48 54 53 51 50 52 54 58 57 59 64 64 65 68 71 74 75 75 81 78 81 79
23 25 21 18 17 28 44 43 45 44 45 51 49 50 50 50 49 47 43 45 46 47 51 51 53 53 55 57 59 61 65 67 70 73 74 77 77 78 79 81 80 81 77

GFSSE_250_spd_102.txt.gz
Wind_Speed
64 64 65 66 70 70 70 71 71 68 70 71 72 72 75 75 78 78 79 80 82 84 83 84 85 85 84 84 83 84 86 87 85 85 82 80 79 77 75 75 75 75 76
59 59 61 63 65 66 66 67 65 64 64 66 61 63 63 63 65 68 70 72 73 75 74 76 77 77 78 80 80 80 84 85 84 84 84 83 82 81 81 80 79 77 73
54 55 57 60 62 63 64 64 64 61 60 57 53 51 50 50 51 53 56 57 59 62 64 65 65 67 70 72 72 73 73 74 72 71 70 71 76 76 71 69 67 66 66
50 52 52 51 54 58 60 60 60 56 56 58 45 42 40 41 44 42 38 39 37 19 14 26 37 45 49 53 60 65 66 64 63 61 61 61 62 58 56 58 57 57 57
49 52 52 52 53 53 54 53 53 52 51 50 40 36 35 34 33 27 24 21 14 9 8 14 20 26 31 38 41 44 48 52 52 53 51 52 51 50 46 48 50 48 48
46 49 51 50 50 51 49 49 46 46 44 39 31 31 28 19 15 17 16 13 11 10 13 20 21 22 24 27 29 32 32 34 35 39 36 36 36 37 41 41 38 38 40
45 48 49 47 44 45 44 42 41 35 31 29 23 22 24 25 21 20 17 9 4 8 15 20 22 20 21 20 21 23 25 27 25 25 30 31 30 34 36 35 37 40 43
45 43 43 41 40 38 37 36 34 27 32 29 33 29 35 34 22 20 20 15 9 9 13 23 18 19 16 18 21 24 21 20 25 24 30 33 32 33 33 28 29 29 27
43 43 39 34 32 30 28 26 22 23 35 34 41 47 46 35 27 29 21 16 16 17 16 18 14 18 19 21 22 20 18 19 14 34 35 37 36 33 34 33 17 21 14
41 41 36 30 29 27 27 13 11 19 27 40 60 50 49 39 32 27 37 31 19 15 12 20 14 17 24 26 26 21 14 14 29 35 36 35 32 32 36 32 17 11 15
40 37 34 30 28 22 24 8 18 32 37 53 58 58 57 48 46 46 43 26 20 11 14 20 19 22 21 24 15 10 21 32 34 39 34 29 21 13 18 14 16 16 12
41 38 36 26 27 26 20 10 21 40 43 61 63 61 53 46 54 49 42 27 15 13 17 24 19 25 21 15 13 30 32 32 27 19 15 16 20 19 15 11 14 15 13
40 39 37 30 26 24 19 7 23 38 42 64 63 63 56 51 49 44 32 22 16 19 20 22 21 25 19 25 34 27 25 21 16 15 18 24 19 21 7 10 11 12 15
37 39 35 37 25 26 18 12 17 27 40 64 62 55 50 43 43 38 27 24 19 15 21 22 23 29 32 36 30 29 25 24 17 16 18 18 24 19 18 16 15 19 22
32 35 36 36 29 24 17 19 14 27 40 57 49 48 47 41 34 35 30 24 19 19 21 22 17 24 30 33 31 27 29 24 12 16 22 21 23 23 24 19 21 25 24
28 32 37 34 31 24 19 21 19 34 42 46 46 46 45 41 36 44 30 26 21 19 17 21 20 24 29 33 30 30 28 27 13 17 18 19 22 19 22 24 25 28 32
26 29 36 36 29 24 24 23 27 42 42 39 38 41 42 39 37 40 41 26 19 17 14 20 26 30 30 35 36 38 34 28 22 24 21 24 25 27 29 30 30 34 37
26 27 33 35 31 24 23 28 27 41 45 38 37 39 41 43 40 38 29 20 18 14 16 22 28 30 28 34 35 35 34 32 30 30 32 33 34 39 40 37 37 38 39
25 25 31 34 32 24 28 30 33 36 41 40 39 40 51 43 40 29 26 21 17 20 19 21 26 33 36 40 33 26 30 35 38 36 36 38 43 42 43 42 41 44 45
25 26 30 35 31 25 29 32 33 37 37 36 38 36 46 50 45 48 31 19 13 16 19 22 28 27 34 40 30 29 30 36 36 38 38 41 43 44 46 46 47 52 52
25 26 30 34 30 28 27 34 35 38 44 35 35 37 41 44 43 46 44 37 35 22 23 23 26 25 30 30 30 32 34 36 38 40 44 47 46 47 51 51 52 56 60
25 26 30 34 30 29 22 36 35 39 42 37 41 38 41 41 44 51 50 40 42 44 34 31 32 31 29 28 31 34 37 40 40 42 47 47 51 55 57 59 60 63 64
24 26 29 31 30 33 20 35 37 42 43 42 46 46 48 46 46 51 53 49 51 46 41 45 44 41 41 37 38 38 40 42 44 48 49 51 54 55 60 63 67 67 71
24 24 27 28 30 30 22 36 40 40 46 45 47 54 49 55 55 50 57 60 50 45 45 47 44 46 47 45 48 47 48 50 52 53 56 53 56 56 60 67 69 73 75
24 22 25 25 27 27 22 33 40 39 41 47 50 53 53 53 49 47 46 45 45 48 50 53 52 51 51 53 54 54 56 54 55 56 57 59 61 61 65 72 74 77 76
23 20 23 20 23 23 20 24 44 40 40 43 52 57 56 60 60 57 50 46 47 47 50 53 56 56 59 59 58 59 58 56 57 59 59 59 65 67 69 73 74 76 77

GFSSE_250_spd_105.txt.gz
Wind_Speed
60 62 63 64 68 70 72 73 73 72 73 73 75 76 77 78 82 84 86 88 90 89 89 89 89 88 86 85 85 84 84 84 84 84 82 79 78 77 77 77 77 76 75
54 54 56 58 60 63 65 66 70 72 71 71 70 70 72 73 74 77 79 79 79 81 83 85 85 85 85 85 84 84 81 83 82 84 84 83 81 80 76 73 72 73 73
50 51 52 53 56 58 60 63 66 67 68 67 67 66 60 62 63 64 67 69 69 66 66 68 69 71 73 78 78 78 77 76 73 74 77 75 74 72 69 68 70 64 61
45 48 50 51 51 54 57 59 61 62 62 59 61 61 52 52 48 49 52 55 54 54 52 51 50 52 56 56 59 64 67 64 65 67 65 64 62 60 58 55 55 53 51
41 43 46 47 50 53 53 54 56 58 58 54 51 51 42 44 38 41 41 42 45 43 41 28 16 21 30 37 41 42 45 49 50 49 52 54 53 55 51 47 47 44 44
40 42 46 45 48 50 49 49 50 51 52 47 40 36 30 35 35 34 36 33 27 19 20 15 15 16 20 26 32 34 38 37 37 39 36 40 39 40 41 38 37 37 38
39 41 45 44 48 47 46 43 43 44 41 32 28 28 22 29 28 22 24 24 24 21 14 13 12 22 20 27 29 31 32 32 34 31 30 29 31 35 34 33 32 34 33
39 41 45 43 44 44 42 39 35 29 25 18 29 34 33 30 30 30 30 28 25 18 10 12 15 15 20 25 23 26 22 23 20 23 25 27 25 28 27 32 32 27 23
37 39 42 41 41 41 43 36 25 11 10 17 29 39 33 40 38 37 33 31 24 20 19 15 11 12 13 20 17 19 22 19 18 19 21 25 27 31 30 32 29 28 26
40 37 38 41 40 37 41 34 11 6 12 18 32 39 41 37 48 46 41 32 28 19 9 8 10 15 14 11 17 20 21 19 20 18 18 22 31 33 36 30 27 29 31
41 35 35 37 40 36 34 32 14 20 27 32 41 43 44 50 53 48 42 37 29 20 8 6 15 20 18 16 21 23 23 19 21 15 16 31 35 39 28 14 11 13 15
41 37 34 34 34 30 31 30 19 23 26 35 43 50 55 57 48 46 42 33 22 17 12 10 20 21 19 21 27 26 28 23 13 22 29 35 26 13 17 14 13 15 15
39 37 34 34 31 30 26 28 26 23 31 41 48 57 60 49 52 45 41 28 24 15 7 12 24 23 18 26 24 26 23 25 27 32 30 17 21 19 20 8 9 9 14
38 35 33 34 32 29 27 26 24 16 39 36 50 59 58 51 48 45 40 31 28 25 6 15 23 19 19 28 19 14 17 23 25 20 18 23 24 17 13 13 10 13 16
36 35 34 32 32 28 27 20 19 15 23 38 53 62 52 55 57 51 43 32 27 20 13 19 22 21 21 31 16 23 29 34 21 21 17 16 20 22 24 19 23 23 27
35 33 33 31 31 28 28 22 23 16 19 24 49 59 54 54 54 38 29 32 34 21 18 17 23 18 18 21 25 31 31 25 28 20 11 13 16 21 26 23 27 25 24
35 33 32 32 30 28 27 23 22 19 17 23 32 60 57 54 45 40 40 37 29 28 14 18 21 11 18 22 22 29 27 30 32 23 14 14 16 20 22 27 33 27 29
35 34 32 32 28 27 27 22 22 20 18 23 28 54 61 52 46 38 40 40 34 21 21 19 15 12 13 20 22 24 28 37 37 35 27 27 28 29 28 33 33 35 33
37 34 31 30 28 27 27 21 20 20 21 25 31 48 45 44 43 39 32 37 35 35 21 19 14 14 17 21 26 27 32 41 40 35 35 34 34 32 32 37 38 40 42
39 32 30 29 27 27 29 22 21 24 23 30 40 41 41 38 40 44 42 31 41 33 28 21 14 19 18 25 29 30 32 38 36 32 35 37 37 35 38 43 41 43 46
36 33 29 28 28 28 29 20 21 27 28 35 46 38 35 33 42 44 39 41 29 25 19 17 14 21 22 28 30 34 38 33 33 36 37 37 36 41 44 44 46 49 51
39 33 30 27 27 28 28 21 19 31 32 33 47 42 41 35 41 46 44 46 41 35 27 19 17 20 24 22 23 23 40 41 32 35 37 40 41 45 45 50 52 53 54
38 31 27 26 25 28 29 23 17 30 36 35 36 39 36 39 38 51 48 41 45 44 46 40 37 32 32 33 29 28 32 36 38 41 43 46 48 49 53 54 56 58 59
35 29 27 24 23 28 28 24 20 32 39 37 37 36 35 37 36 45 35 43 45 46 47 41 38 36 38 40 41 44 47 50 47 47 50 52 52 54 57 59 60 62 64
32 28 24 22 23 26 27 22 20 31 37 38 40 40 42 37 39 45 49 44 52 45 50 53 47 44 42 45 49 47 48 49 48 53 56 57 59 59 60 63 65 65 66
37 32 23 21 21 25 24 20 19 26 38 42 42 44 45 41 44 45 45 52 57 49 49 49 51 56 56 49 52 52 55 55 53 59 60 62 62 64 67 69 68 68 66

GFSSE_250_spd_108.txt.gz
Wind_Speed
57 59 58 61 62 63 65 68 70 71 73 73 73 75 78 79 82 83 85 86 87 88 89 89 89 90 90 89 89 87 87 85 86 85 83 81 81 78 77 76 75 77 76
50 49 51 51 52 54 56 60 63 66 69 71 71 71 73 76 78 79 81 82 84 86 88 91 91 90 90 91 88 86 84 84 83 84 86 83 84 82 80 78 77 76 73
43 43 43 44 46 47 50 54 57 59 62 64 66 68 68 67 70 71 72 72 75 76 75 79 81 82 85 87 85 83 83 81 80 76 76 77 76 75 75 75 72 68 63
41 41 41 41 43 44 47 51 53 55 57 60 60 61 60 57 57 58 61 62 59 58 60 61 63 62 65 66 66 67 71 71 70 72 70 69 66 64 62 61 61 57 51
38 38 40 41 43 44 45 46 46 49 51 53 54 48 49 47 47 45 49 50 49 47 45 44 45 48 49 51 52 53 54 54 57 59 59 56 54 50 56 48 51 49 46
39 40 39 41 40 43 43 46 42 43 44 45 36 38 32 36 36 35 42 41 42 37 34 35 38 33 31 31 35 40 40 42 45 47 48 44 44 44 42 43 42 38 34
39 40 40 42 41 42 42 45 39 35 35 34 27 28 32 33 31 31 37 32 35 30 25 25 25 20 21 24 26 29 34 38 37 38 40 37 32 35 35 33 31 32 30
38 41 42 44 42 43 42 42 34 26 19 12 17 31 42 36 33 30 26 31 31 27 30 27 22 19 19 20 23 32 33 36 32 32 30 29 27 25 25 23 26 25 24
39 41 42 44 42 42 41 40 30 12 10 8 13 25 33 37 36 34 33 28 27 29 24 23 24 9 5 15 22 25 28 29 27 20 22 18 15 16 16 21 19 23 21
40 42 44 43 43 42 38 37 31 12 15 10 17 30 29 33 31 37 36 37 35 28 24 18 17 9 6 13 15 19 21 23 22 20 15 13 19 22 23 18 22 25 24
36 38 43 43 41 40 35 36 30 14 21 24 25 36 36 35 38 41 43 37 36 31 23 15 17 6 8 14 19 17 21 26 24 21 17 13 15 14 24 28 32 21 17
37 41 42 42 38 36 33 32 30 18 19 25 34 40 44 43 44 48 44 39 36 30 17 18 10 4 12 15 14 19 21 25 25 22 15 12 10 26 28 14 12 15 18
38 38 39 39 37 35 33 29 26 27 18 25 35 39 47 43 44 47 47 40 39 30 20 14 13 7 15 13 15 23 27 26 26 26 20 15 23 20 18 19 15 13 11
38 37 37 38 36 34 30 28 25 25 20 27 38 40 48 54 47 49 48 48 35 34 18 8 3 12 17 17 14 26 26 28 25 13 26 26 22 23 23 16 13 13 9
38 40 38 36 35 32 30 29 24 22 20 20 36 50 46 52 40 53 53 49 39 33 24 15 7 11 15 18 17 26 25 18 16 14 16 14 25 24 22 18 15 10 14
38 37 37 36 35 31 30 29 24 20 23 23 24 44 46 42 45 54 54 44 43 28 25 24 16 14 16 21 14 18 25 23 16 15 14 19 20 26 24 26 22 15 16
39 37 37 36 35 31 29 30 26 20 20 24 24 23 42 41 50 54 52 41 35 34 26 14 9 16 23 12 9 11 16 22 21 18 22 22 20 22 22 17 24 21 23
34 37 35 36 35 31 29 31 27 20 20 23 25 23 29 40 57 50 46 41 32 33 34 18 16 16 11 9 9 9 16 19 22 25 27 23 22 21 20 19 20 24 28
35 33 39 36 35 31 29 29 27 20 19 22 29 21 21 44 60 45 48 38 36 35 35 26 20 16 20 16 11 10 15 16 23 30 35 34 26 27 26 28 31 31 35
35 32 35 37 36 30 28 30 28 18 19 24 28 24 19 36 60 46 41 41 42 46 36 29 22 18 17 9 13 15 17 19 23 31 40 40 36 34 34 35 40 35 38
30 31 34 33 33 31 28 30 27 20 19 27 29 23 22 29 43 42 45 40 37 40 33 28 25 32 18 11 8 16 21 24 26 26 30 35 34 35 34 38 38 41 42
41 31 36 33 31 30 29 28 28 24 20 31 31 32 31 34 44 42 44 41 42 34 27 30 35 24 16 13 15 17 22 23 25 30 25 28 39 38 38 42 46 47 49
45 27 37 33 32 30 28 27 28 26 20 36 36 39 36 36 38 40 40 42 43 40 32 31 26 24 24 23 22 24 24 23 18 25 33 35 39 44 45 48 51 54 55
40 25 35 34 32 30 25 26 27 28 18 39 38 42 46 40 36 37 39 37 40 36 40 41 42 42 43 42 29 30 30 33 33 35 38 42 45 46 49 54 57 58 61
39 27 34 34 33 30 26 24 27 28 17 38 40 41 49 48 45 40 45 40 42 45 38 40 45 43 43 44 38 36 34 35 40 44 44 46 47 48 54 56 62 65 66
35 29 33 34 33 28 24 23 27 24 19 31 41 42 44 50 46 43 49 46 45 41 44 45 43 46 49 48 51 48 50 50 53 48 48 50 51 54 56 62 65 67 65

GFSSE_250_spd_111.txt.gz
Wind_Speed
51 54 54 55 57 59 61 63 66 68 70 72 73 74 77 79 82 84 83 83 84 86 86 87 88 88 88 88 88 88 87 87 85 83 79 76 79 81 80 78 79 77 78
44 46 48 48 50 52 55 56 58 60 65 69 70 71 72 74 76 79 82 83 81 83 85 86 88 90 89 89 88 87 87 85 84 82 84 80 82 83 83 83 83 81 79
40 40 41 41 42 42 45 46 50 52 56 60 63 64 65 67 67 68 71 75 78 76 75 77 79 82 84 87 87 87 86 85 84 82 81 82 81 80 80 79 75 75 75
36 37 40 39 38 37 39 41 43 47 48 53 56 55 56 55 54 54 55 60 64 66 68 68 67 68 71 72 72 72 71 72 72 73 73 69 70 69 68 68 66 64 62
35 35 36 37 36 35 37 39 38 39 43 44 46 44 45 45 48 54 55 52 53 53 54 56 53 56 56 58 52 51 55 57 61 62 64 63 62 59 59 59 58 53 51
35 35 37 38 37 35 36 36 36 32 36 35 31 30 25 26 29 28 40 46 44 43 48 48 50 48 45 43 43 44 45 46 48 49 51 53 53 51 49 47 48 48 41
38 37 40 40 37 35 35 34 34 31 31 23 21 29 23 28 38 28 30 34 35 42 37 35 40 39 37 35 38 37 36 36 35 36 39 45 45 42 41 40 36 33 34
37 40 41 39 38 37 34 36 33 31 27 22 27 28 34 37 41 35 33 38 37 36 30 30 29 27 28 27 27 28 28 30 31 33 37 38 35 33 32 32 28 19 17
39 42 46 41 40 40 35 36 34 33 29 23 28 28 28 41 44 35 38 39 37 37 29 27 27 26 24 23 25 28 28 31 34 32 29 32 31 28 24 19 15 15 12
39 44 47 44 43 40 35 33 34 34 28 26 26 29 28 38 40 43 43 43 40 32 29 29 28 28 23 21 13 18 22 26 25 27 27 25 15 17 16 16 15 15 14
43 44 47 43 41 39 36 31 32 31 32 27 23 30 30 40 46 44 46 41 33 29 30 30 28 27 19 11 11 14 18 20 25 22 23 19 15 14 12 12 16 22 25
50 42 44 44 40 40 35 30 30 28 32 27 24 24 30 40 43 45 38 31 31 35 30 26 23 20 11 7 10 13 13 15 19 21 20 17 12 12 8 20 25 19 16
49 47 45 45 40 34 35 30 28 27 30 29 24 21 32 40 41 41 36 31 41 38 25 23 19 12 8 6 9 8 13 14 16 19 20 15 7 14 14 15 13 15 18
50 50 47 47 37 33 32 30 27 26 28 31 26 26 26 39 47 41 39 41 43 36 31 25 13 14 7 9 9 10 10 16 21 19 25 22 17 16 21 18 19 18 18
50 49 45 46 38 35 31 29 27 25 28 30 26 23 26 35 48 43 40 46 45 39 25 23 12 10 5 10 12 14 10 18 20 21 24 23 16 16 20 22 19 19 6
47 48 45 44 36 34 31 29 28 25 27 28 27 25 25 27 44 53 44 52 45 36 33 22 15 10 10 17 16 11 11 19 19 20 19 15 13 17 29 24 19 21 10
47 47 39 43 36 35 32 30 28 26 27 27 27 28 27 27 33 49 47 56 49 43 32 31 24 15 12 11 7 8 9 12 15 22 17 19 14 28 30 26 24 23 21
46 42 42 43 41 34 32 30 28 25 26 26 27 28 27 25 31 37 42 50 53 44 39 36 33 15 12 5 8 4 6 6 18 22 22 21 27 33 30 32 25 20 16
44 44 43 41 39 36 33 30 27 25 25 25 27 28 29 28 26 39 43 52 56 49 42 37 24 21 16 11 12 12 4 6 11 22 19 27 26 26 30 29 26 26 26
48 46 41 33 34 35 38 31 27 26 23 23 26 26 32 28 26 39 43 51 54 52 39 33 32 26 22 15 13 11 9 10 12 15 21 28 29 29 29 27 28 31 33
50 47 39 39 35 34 34 32 29 26 23 22 25 29 32 26 28 32 36 48 50 52 42 38 36 37 23 21 15 12 12 10 14 18 18 21 33 37 38 34 35 39 40
53 50 46 36 34 33 32 30 29 28 24 25 23 30 33 28 30 34 40 48 36 42 42 41 36 29 32 31 23 13 11 13 17 19 19 21 25 31 39 43 39 39 42
51 51 45 35 37 35 32 30 28 28 25 26 21 32 35 29 29 39 47 44 37 44 45 41 37 27 26 32 25 20 17 19 21 20 20 17 22 27 30 33 39 42 46
58 50 46 33 34 37 33 31 29 27 25 25 20 34 36 32 29 37 40 48 47 43 41 38 34 32 33 31 30 26 26 27 25 22 27 30 29 28 35 39 44 47 49
54 47 44 32 31 38 34 32 30 28 26 26 22 35 40 39 38 38 40 39 43 42 43 46 38 35 34 31 33 34 41 41 32 33 31 33 37 38 44 46 47 51 52
51 44 39 33 33 39 34 32 31 30 25 22 23 37 43 42 41 43 39 39 40 39 35 38 42 42 40 40 35 35 35 37 40 40 37 42 45 50 53 52 53 56 58

GFSSE_250_spd_114.txt.gz
Wind_Speed
46 47 48 50 51 53 55 57 59 60 62 65 67 70 72 75 77 79 80 80 82 82 83 85 85 84 85 88 87 88 87 87 86 85 84 83 79 73 73 73 76 77 75
39 40 42 45 47 48 50 53 55 55 55 57 61 65 68 70 74 76 78 81 83 82 82 84 86 86 86 85 86 89 89 88 89 88 86 85 83 84 82 81 77 80 80
34 35 38 39 40 42 44 45 47 49 48 50 57 58 59 60 64 66 70 73 78 79 80 79 78 80 84 83 80 83 84 85 85 85 85 83 78 78 79 76 74 75 74
30 32 34 35 36 37 38 39 40 43 43 46 51 50 49 50 47 45 48 54 62 69 73 73 72 71 71 72 74 75 78 75 74 73 73 73 70 69 69 67 65 63 62
32 31 33 34 34 34 35 36 36 37 38 38 42 39 39 36 32 27 29 47 53 55 59 56 60 61 61 64 65 62 61 62 62 60 58 59 57 58 57 55 54 54 57
32 30 33 36 36 35 37 36 33 31 32 29 29 34 26 13 10 15 25 38 35 38 49 45 52 55 55 53 52 51 51 52 50 49 50 49 51 50 50 50 50 49 49
30 27 28 33 36 37 39 38 33 28 29 25 25 29 14 22 26 28 32 23 43 30 37 43 43 48 47 44 44 43 44 43 44 45 43 40 40 42 43 45 43 42 36
35 31 28 30 31 37 42 40 35 31 30 29 25 29 27 27 34 38 44 41 37 33 36 43 43 37 35 34 33 37 39 37 36 37 34 30 35 36 36 37 32 31 33
38 34 35 36 35 39 39 38 38 32 34 27 28 27 34 34 43 47 53 38 44 35 36 37 39 37 29 28 28 31 31 31 31 30 30 30 32 33 30 28 25 26 20
41 37 39 37 34 38 39 37 34 32 34 27 28 25 30 35 36 51 53 46 42 39 41 36 35 37 30 29 26 29 27 27 31 34 34 30 29 24 22 20 21 20 19
43 43 40 41 37 37 40 36 31 33 32 29 26 25 26 29 29 33 45 41 40 44 42 37 29 29 28 27 23 20 21 21 27 34 31 26 21 21 17 19 20 18 24
46 46 42 42 43 36 40 34 29 30 31 28 26 27 25 26 29 34 36 39 44 43 37 32 32 27 23 17 17 19 18 20 20 27 25 18 18 19 19 18 15 16 21
48 48 48 45 45 40 41 32 28 29 31 28 24 26 25 23 27 29 40 39 37 34 28 33 25 24 20 15 15 15 12 15 17 23 17 16 17 13 14 11 13 23 28
48 48 49 47 46 42 45 35 29 28 30 29 25 25 25 25 25 33 36 39 36 29 29 30 26 24 18 7 10 8 9 12 15 17 14 19 19 7 14 15 19 15 15
48 50 50 49 50 43 40 33 30 29 29 28 26 25 26 24 25 29 35 39 39 31 36 32 27 17 14 11 10 6 10 11 18 18 15 24 22 14 18 20 14 12 15
50 50 50 47 43 39 39 35 30 30 29 28 26 25 29 26 29 26 33 39 40 38 40 32 25 15 14 11 11 12 11 15 11 13 19 21 24 21 16 20 21 22 20
49 48 52 47 41 41 42 38 34 31 31 28 27 25 27 27 31 25 25 37 40 46 41 35 28 18 18 13 18 16 11 12 11 16 18 25 22 23 21 27 28 23 20
51 44 47 46 43 42 40 37 33 33 32 29 28 24 28 27 33 30 25 32 42 49 47 37 30 25 15 13 9 9 8 9 10 13 19 22 22 16 27 32 32 27 19
51 41 46 46 45 41 37 38 35 33 34 29 28 25 26 27 31 33 25 29 43 52 53 44 36 30 19 15 10 9 9 7 9 17 22 22 24 26 26 33 37 30 25
47 44 45 45 47 46 43 42 39 35 33 29 26 23 25 28 31 33 25 27 38 51 58 43 39 37 29 20 15 13 13 10 9 11 19 22 26 28 30 34 38 35 35
48 45 47 48 47 42 43 40 39 37 35 31 27 22 24 28 31 31 29 31 38 52 62 47 38 34 31 26 21 16 18 14 8 7 12 14 18 26 32 33 35 36 34
53 52 50 49 47 43 47 41 40 37 36 34 28 22 24 29 32 31 29 28 39 50 61 54 46 42 36 34 28 18 20 17 15 7 7 11 17 21 32 37 36 37 37
56 53 50 48 48 49 49 40 39 36 34 33 30 24 24 26 32 32 29 30 38 46 55 60 51 40 41 38 36 32 27 26 25 18 15 15 20 22 27 30 35 43 44
56 55 54 52 53 48 49 39 38 36 34 32 30 23 25 25 33 32 31 34 40 45 54 58 50 47 50 36 33 35 25 30 30 30 22 26 26 22 26 28 27 30 34
56 57 54 56 50 50 47 39 39 37 37 34 30 27 26 25 35 33 34 31 39 39 42 45 50 48 40 37 36 31 36 37 31 27 26 32 32 34 39 37 39 39 43
58 59 58 54 53 49 42 38 38 36 36 34 32 27 26 23 36 36 35 30 40 44 37 40 47 40 39 40 29 37 37 35 34 31 32 32 33 37 40 39 44 46 49

GFSSE_250_spd_117.txt.gz
Wind_Speed
51 51 49 51 50 50 50 52 54 56 57 58 60 62 64 66 67 69 72 75 76 77 77 80 81 81 82 83 81 80 80 82 83 82 83 84 84 82 81 76 73 72 73
42 42 42 43 45 46 47 49 49 50 52 54 56 58 61 63 65 63 66 69 73 75 75 75 79 84 87 87 88 88 87 86 86 87 88 88 86 83 81 77 73 72 70
38 37 36 36 38 40 42 45 47 47 47 49 50 52 55 53 51 49 45 46 52 60 67 70 74 74 79 84 86 87 87 88 88 85 80 77 77 78 77 68 66 70 66
39 36 35 34 34 37 37 39 42 42 42 43 44 45 43 37 28 22 25 29 30 35 44 55 63 65 70 70 71 76 79 80 80 78 77 74 75 73 67 65 62 59 55
37 36 36 34 32 34 34 35 37 38 37 39 40 40 26 7 3 11 27 29 29 42 45 47 50 55 58 62 62 62 66 67 65 66 61 63 60 57 57 58 53 52 51
39 39 38 35 32 33 36 37 36 35 33 34 35 35 18 16 25 34 34 34 31 42 43 39 41 46 51 54 56 58 57 56 54 54 55 53 53 51 50 51 50 48 48
39 39 38 36 35 34 38 36 36 38 37 32 35 31 22 32 38 46 43 29 29 42 36 40 44 42 44 50 49 49 50 49 48 44 43 37 41 42 45 42 45 46 45
43 41 41 36 34 34 38 37 39 39 38 32 32 30 32 36 38 39 44 44 52 51 43 48 44 38 40 44 46 44 43 43 39 40 35 38 40 41 42 42 39 37 37
43 43 39 40 38 35 36 39 39 39 37 34 27 27 30 35 43 44 49 52 55 50 45 43 43 40 38 42 43 40 34 34 33 34 36 36 36 35 37 35 32 30 27
43 45 45 44 41 37 35 32 35 40 34 33 28 26 25 31 44 46 52 58 62 55 54 49 47 41 42 41 40 36 33 31 30 29 33 32 31 32 33 31 27 27 26
45 46 46 48 43 39 36 36 37 35 33 31 28 25 25 26 30 34 45 44 55 52 47 50 46 40 38 35 34 34 33 26 21 24 30 33 33 31 32 28 24 22 22
46 48 46 46 43 37 39 35 38 38 32 31 29 25 25 25 20 27 30 32 39 46 58 55 47 35 37 36 28 24 22 20 22 24 26 31 29 28 25 17 14 14 16
48 50 49 43 42 40 41 39 38 42 33 30 27 25 25 23 21 23 27 29 28 32 39 49 41 36 37 30 22 20 20 21 24 27 27 20 23 22 15 16 16 17 16
51 52 49 48 47 44 39 40 35 41 35 30 28 26 26 27 21 22 29 29 30 33 34 31 29 27 30 23 19 18 18 20 18 20 18 19 21 17 15 17 17 18 21
53 55 50 50 48 41 42 39 37 41 38 31 31 27 26 27 23 21 26 26 28 34 35 30 26 28 30 22 16 17 12 13 15 18 18 22 26 19 14 13 21 23 23
56 59 52 50 49 42 39 40 39 43 38 32 34 29 27 28 28 23 28 26 28 34 37 30 30 33 32 25 14 12 10 12 12 14 18 24 26 19 14 15 23 19 16
62 63 55 51 49 45 39 41 40 39 38 33 32 30 29 26 27 26 28 32 28 31 38 33 37 32 27 17 15 11 17 15 18 15 14 16 25 29 21 21 20 19 21
66 65 55 50 50 46 40 42 41 36 36 33 31 32 30 29 26 29 28 32 28 31 40 36 41 34 24 19 12 7 12 13 10 14 16 18 20 23 22 13 22 25 25
63 61 54 48 51 43 42 42 40 36 38 33 32 33 33 32 28 30 29 35 33 30 36 39 44 35 26 19 16 10 13 12 9 13 18 19 20 22 23 20 29 32 32
58 60 55 50 48 46 45 43 41 38 38 35 31 35 34 32 30 30 27 33 34 31 35 46 51 42 34 25 18 14 12 13 13 13 18 24 22 20 22 25 30 35 37
60 63 57 48 46 47 48 45 44 42 41 37 30 35 35 31 26 31 30 30 34 29 33 44 51 48 38 29 22 16 14 17 17 14 17 22 26 22 23 30 31 38 39
59 60 55 47 44 49 48 48 47 44 43 38 31 35 38 34 26 31 30 31 35 31 32 43 50 55 43 37 29 22 20 19 18 16 15 17 18 18 22 26 33 35 37
54 54 55 52 48 50 51 49 50 49 45 42 33 35 41 35 28 31 31 32 31 28 29 40 49 59 46 39 34 31 24 23 21 17 16 13 15 14 16 23 30 38 39
64 61 62 60 51 52 52 49 50 53 49 46 36 34 40 37 29 30 31 34 31 28 28 38 47 57 46 44 36 35 29 30 27 27 23 21 19 17 17 21 21 22 25
72 67 64 61 56 53 52 51 52 55 54 47 39 37 39 37 32 30 31 36 34 28 31 37 48 58 53 48 39 36 35 37 38 28 33 30 29 23 24 29 32 34 34
64 68 66 65 58 55 51 51 54 56 53 45 41 40 38 36 36 31 31 37 36 30 26 38 48 56 56 53 47 47 43 38 32 34 36 41 39 35 33 35 37 39 39

GFSSE_250_spd_120.txt.gz
Wind_Speed
58 56 53 53 53 51 50 50 51 51 53 54 55 56 56 58 58 58 59 60 61 63 67 70 69 70 75 77 76 73 64 62 69 72 72 71 73 75 77 78 78 76 77
54 50 51 46 46 43 44 45 47 49 50 50 52 55 54 54 51 46 45 45 48 53 53 58 63 62 57 73 77 78 80 81 80 78 75 76 77 76 75 74 77 78 77
48 45 42 40 39 37 36 38 40 41 46 48 49 51 50 46 35 24 24 22 25 35 40 43 45 45 50 59 67 71 75 73 74 77 80 81 82 78 78 76 74 77 72
43 41 38 37 35 32 32 33 37 40 44 44 41 43 42 29 6 10 11 16 24 31 35 34 35 37 41 49 52 59 64 65 66 65 66 68 68 70 69 67 61 58 58
43 36 36 35 34 34 33 32 33 35 38 39 40 40 33 14 20 15 5 27 29 30 37 38 42 43 44 45 44 44 51 57 57 59 58 59 59 55 54 54 52 50 47
42 35 34 36 36 33 33 34 36 36 36 34 34 36 30 21 29 27 21 32 30 28 32 39 38 42 45 43 40 41 45 49 49 49 51 52 52 51 50 47 46 45 46
40 38 32 34 37 31 30 33 36 38 36 35 37 35 33 25 37 31 33 41 33 20 36 32 40 46 45 42 38 38 39 44 47 46 46 46 45 40 38 43 43 44 45
38 37 35 35 36 33 32 32 32 38 35 37 36 34 32 27 43 41 40 43 40 38 44 46 44 47 44 42 36 37 39 43 41 39 41 40 38 36 34 37 39 40 40
39 41 37 38 39 36 34 34 34 36 39 38 39 35 32 25 47 49 49 47 52 49 50 46 46 50 50 44 37 39 40 41 40 36 35 36 37 37 36 37 36 37 37
42 43 41 39 39 40 39 37 30 37 39 37 36 36 33 27 37 54 48 45 54 58 57 53 53 54 56 46 37 41 36 39 34 33 33 33 33 34 34 34 32 32 32
43 45 44 41 40 41 40 38 35 33 39 38 33 34 33 31 29 48 52 49 50 51 58 66 61 60 60 50 47 41 34 36 33 32 32 29 25 26 29 28 29 32 30
44 45 44 44 41 42 43 42 41 35 38 37 35 30 30 32 27 29 35 42 49 55 61 64 65 65 64 58 45 44 40 29 28 22 22 22 21 25 28 28 27 26 23
44 46 45 44 44 45 47 46 42 35 35 35 37 32 30 29 28 28 26 29 29 37 50 55 57 56 60 55 53 44 31 28 23 25 23 25 25 28 25 27 21 19 18
46 47 45 43 44 49 49 50 46 38 35 32 39 36 29 30 29 30 25 24 27 28 33 33 33 35 37 46 40 30 25 23 23 24 24 28 26 27 23 19 17 17 16
41 45 41 40 48 51 50 50 47 39 38 33 40 37 29 28 31 31 27 24 30 33 30 31 32 28 27 28 26 22 22 23 27 23 24 23 23 25 19 16 14 19 22
42 41 44 53 54 54 51 52 48 41 40 34 36 37 30 28 32 31 30 25 27 25 27 32 36 31 28 29 24 20 20 17 18 18 20 21 23 22 20 19 14 17 20
60 59 53 57 56 55 57 50 49 44 42 36 34 34 33 28 30 31 31 26 24 29 27 28 35 32 30 29 29 23 20 18 20 19 18 20 18 21 24 18 10 16 20
65 60 56 57 59 55 59 48 48 43 41 36 36 36 33 28 31 33 35 27 27 27 32 31 33 36 32 33 29 23 17 16 17 17 17 17 14 21 25 22 13 15 19
68 64 59 63 60 56 55 48 48 44 39 39 39 37 36 29 31 35 34 30 29 27 33 32 32 36 35 35 28 21 16 17 16 17 13 11 15 19 26 20 20 17 21
68 68 65 66 60 60 51 50 50 45 38 41 40 37 37 33 30 35 34 34 32 30 34 35 33 38 38 39 31 24 18 16 19 18 13 13 17 20 20 21 26 24 24
69 69 69 64 62 56 51 52 49 45 39 43 43 41 39 37 31 34 37 35 34 30 35 38 36 34 43 44 32 24 20 19 21 20 14 15 20 22 19 20 20 26 24
69 67 67 66 57 52 51 55 50 47 43 43 45 45 42 41 36 35 38 34 35 30 33 38 37 34 44 48 38 28 23 19 23 20 21 18 19 21 24 24 23 25 26
61 58 57 55 54 53 49 52 48 48 47 44 48 46 46 43 39 40 39 35 34 33 31 40 40 31 43 53 46 38 30 25 21 17 19 23 20 21 19 22 24 23 25
58 53 49 52 52 49 47 48 49 51 49 48 50 50 51 46 41 42 41 37 33 35 29 38 37 32 38 49 55 46 38 29 26 21 20 19 20 23 21 20 21 19 16
58 54 55 57 55 52 57 56 56 54 51 51 51 52 50 48 43 40 44 39 33 35 30 37 36 34 34 43 54 53 45 36 31 30 26 22 27 29 26 23 22 23 22
69 69 69 73 66 62 68 63 56 57 56 53 54 53 53 48 41 42 42 40 32 35 33 38 35 35 36 44 48 53 46 39 36 33 31 32 30 35 32 31 32 30 28

GFSSE_250_spd_123.txt.gz
Wind_Speed
62 61 60 59 59 57 56 54 53 53 51 51 50 49 49 50 50 49 48 45 49 52 52 55 56 58 61 61 56 53 56 59 62 57 57 62 66 71 66 67 69 70 72
62 60 58 55 54 50 50 49 48 45 46 47 47 47 47 49 44 40 33 32 35 39 34 30 39 39 44 46 50 63 61 60 59 62 71 72 73 66 71 74 74 74 75
60 58 55 50 47 46 46 44 43 40 40 42 45 45 44 43 37 26 15 14 14 19 23 30 30 25 30 34 37 49 52 56 61 58 64 65 67 69 72 74 79 80 78
56 55 48 43 42 40 38 38 37 37 35 36 39 41 38 36 29 23 24 23 25 23 18 24 23 28 32 33 34 38 38 42 52 53 52 57 58 55 57 61 68 70 72
52 49 44 36 36 36 31 31 32 33 34 35 34 34 32 30 25 27 30 31 37 35 24 18 28 34 32 37 38 35 31 31 36 40 43 44 49 51 52 51 51 54 54
48 45 40 36 33 33 30 30 31 33 34 35 35 34 30 29 27 35 34 35 38 34 36 29 29 33 35 36 36 33 32 35 38 36 34 39 44 44 43 43 43 44 46
45 39 34 35 33 30 30 30 33 34 34 37 34 36 34 29 27 38 39 33 29 24 29 41 39 40 42 41 38 33 32 31 30 30 32 37 39 36 34 38 42 41 41
43 38 35 33 34 31 32 30 32 32 33 33 34 35 35 30 29 32 45 37 37 38 38 37 44 36 44 44 44 40 35 32 29 34 36 40 36 34 34 37 38 38 39
41 39 38 35 35 34 34 30 32 32 32 34 39 35 36 34 28 28 48 45 42 45 44 48 46 41 42 45 51 42 38 34 33 34 38 37 30 31 35 36 38 37 37
43 39 40 37 35 35 33 32 33 35 33 34 37 35 35 36 30 29 38 56 49 50 50 50 46 47 46 49 52 49 44 37 37 40 37 35 32 33 34 34 36 34 34
43 40 40 38 37 37 36 33 32 35 36 36 37 37 34 34 31 28 36 48 54 54 48 56 55 49 50 53 55 56 52 49 45 46 44 35 28 27 26 23 24 26 26
44 39 41 40 39 39 38 37 34 37 38 38 37 40 37 33 33 27 34 41 45 46 43 47 57 59 58 53 51 50 55 58 55 46 40 32 23 22 21 21 22 24 26
42 40 39 40 41 41 42 39 36 40 38 39 37 39 39 38 31 27 28 36 37 32 35 38 48 55 55 58 60 58 51 53 54 51 43 32 27 26 27 22 24 24 27
43 44 44 44 46 46 47 39 41 46 41 40 38 39 40 38 27 28 27 31 32 34 29 31 37 44 48 45 46 50 51 49 50 46 32 31 29 28 28 28 25 25 23
48 46 46 43 48 49 38 40 47 48 44 41 38 38 40 37 32 27 29 30 32 31 32 29 31 32 38 36 32 30 28 28 30 31 30 30 29 27 27 29 27 23 17
50 45 41 39 39 39 43 45 49 49 47 43 38 36 37 37 35 32 29 33 32 30 30 33 33 34 36 33 24 22 23 27 27 26 31 30 24 23 25 27 24 20 19
54 49 46 46 43 45 48 50 49 50 46 41 38 34 35 37 36 35 32 34 35 30 28 31 31 35 36 30 25 24 24 25 27 26 22 24 23 23 24 27 22 16 18
63 58 53 51 52 53 52 51 50 51 49 43 42 38 36 36 35 36 34 35 36 32 26 26 31 32 33 32 28 27 26 28 27 25 21 23 25 22 20 19 23 12 12
68 64 55 50 54 53 53 53 53 52 49 50 43 40 40 36 34 36 33 34 39 35 31 25 28 33 32 33 32 30 31 30 24 23 19 23 21 20 12 23 21 21 17
64 61 57 54 58 57 55 53 56 53 50 48 48 39 41 37 36 37 35 33 41 39 34 29 27 32 35 33 36 35 37 33 25 23 21 23 24 19 14 27 27 22 22
63 64 60 57 59 61 58 56 54 53 51 49 52 44 42 40 39 38 36 34 39 41 36 36 31 31 34 33 35 35 39 33 28 26 26 27 24 20 20 27 26 25 25
66 65 64 59 61 61 58 54 54 54 50 47 51 48 45 43 42 44 41 39 34 43 40 38 34 33 35 37 35 36 38 33 31 29 27 28 24 23 24 25 23 24 23
62 63 58 57 60 57 59 54 55 45 51 48 46 48 47 47 46 47 44 39 36 40 43 39 36 34 34 39 36 43 44 39 35 28 29 29 24 23 27 28 28 26 27
61 61 58 59 58 53 54 50 44 43 47 47 46 44 46 50 49 46 46 40 40 36 44 41 38 34 37 41 35 40 52 43 43 32 28 28 26 26 27 30 29 30 26
61 57 59 58 56 49 47 47 43 39 42 41 45 48 54 50 53 50 46 43 41 36 44 42 38 33 37 39 38 40 55 53 40 36 31 27 25 23 27 32 29 24 21
63 58 57 59 58 51 49 49 45 44 46 49 51 52 54 52 55 50 44 44 42 37 43 44 39 35 36 41 42 40 48 58 50 44 38 31 27 24 27 31 37 34 30

GFSSE_250_spd_126.txt.gz
Wind_Speed
63 63 64 63 63 63 63 62 61 58 57 55 54 52 50 48 47 45 40 38 40 41 41 41 44 48 51 56 54 48 53 57 49 35 49 55 65 70 70 70 70 64 60
63 63 63 63 62 61 60 59 57 55 55 51 50 49 47 45 45 41 35 32 31 29 28 30 30 28 32 35 36 42 42 52 55 49 49 49 59 62 64 67 70 69 69
64 62 61 61 60 58 55 52 52 50 50 48 46 45 43 42 40 38 32 32 28 25 26 24 26 20 26 27 26 29 40 40 44 51 53 52 53 57 62 62 62 62 60
64 62 60 60 55 48 48 46 46 45 44 39 40 38 39 35 33 32 29 28 32 34 28 22 24 22 28 28 34 34 33 35 37 39 42 48 51 53 56 61 62 60 62
64 60 57 53 49 43 41 42 42 38 37 36 38 37 37 34 30 27 27 32 38 39 34 27 25 28 26 28 39 36 36 36 34 34 38 35 42 43 49 54 57 58 59
60 55 51 44 42 40 35 37 36 34 33 34 36 35 31 32 34 28 28 33 41 42 41 37 32 33 34 42 39 37 34 31 27 28 26 29 25 24 28 32 43 49 51
53 50 45 40 37 34 33 32 32 34 31 32 34 33 31 31 31 31 29 31 43 45 49 47 41 29 29 31 37 34 36 30 28 26 22 23 24 28 35 36 36 35 38
47 47 43 37 36 32 33 34 33 31 28 29 30 31 29 29 32 33 27 31 43 44 48 56 53 37 35 34 35 39 39 38 34 31 28 29 31 36 36 34 35 35 36
46 47 42 37 35 33 32 34 33 30 28 29 31 31 29 29 32 35 31 30 37 44 46 45 55 57 48 39 40 42 40 38 37 35 35 32 33 37 40 40 37 34 36
50 46 44 39 36 35 36 33 33 30 30 30 33 32 31 30 32 34 35 32 32 43 49 46 44 47 51 50 49 46 45 48 41 42 43 39 42 43 40 41 35 34 32
52 49 47 43 39 38 38 35 33 30 31 30 32 34 32 32 34 35 38 33 33 39 45 46 45 52 51 51 53 51 50 49 51 47 48 50 51 48 41 41 32 27 26
52 48 47 47 43 42 41 40 36 33 32 30 33 37 35 34 34 35 36 35 31 36 43 38 40 45 46 54 60 55 52 51 49 51 50 49 48 47 41 41 28 23 23
48 52 53 48 45 42 40 40 37 39 37 32 36 38 35 35 35 34 33 33 31 31 39 40 31 32 40 45 56 64 62 59 58 60 53 52 47 49 43 38 32 27 25
59 58 53 47 48 44 44 44 44 46 42 36 38 38 36 35 35 34 33 33 32 30 33 35 33 28 29 34 42 41 46 46 47 44 36 43 39 39 34 34 34 30 29
62 64 55 48 52 46 48 46 46 46 40 36 39 38 36 35 33 34 32 32 32 31 33 32 29 29 29 31 33 32 31 31 33 34 31 28 29 29 33 34 31 29 29
64 64 62 53 54 46 46 43 44 41 36 38 40 38 36 37 33 35 32 30 33 30 32 35 30 28 29 32 32 30 32 30 27 23 25 24 25 31 33 32 27 28 28
64 65 61 61 56 47 45 41 41 39 39 44 40 39 38 38 37 37 34 29 33 32 30 37 33 32 29 30 29 24 28 26 22 21 22 25 28 31 33 25 26 29 29
67 64 64 62 58 51 47 45 43 44 44 46 43 42 41 39 39 37 37 33 31 34 31 34 35 31 32 30 28 25 28 26 26 24 25 26 27 30 25 25 26 25 23
67 60 62 61 60 60 55 47 47 52 52 49 44 45 45 40 39 39 39 34 32 32 34 30 37 32 30 31 35 28 30 29 29 28 26 26 26 23 24 25 22 23 24
64 63 60 61 63 64 61 56 53 54 53 51 46 47 46 40 42 42 41 38 34 32 36 33 34 35 32 32 34 30 30 34 30 31 29 27 25 25 25 22 22 23 22
64 64 60 60 59 62 61 58 54 53 51 48 50 50 48 42 43 43 44 45 38 36 36 35 33 38 37 33 34 35 32 36 40 37 33 30 25 26 27 27 26 30 26
71 65 61 59 57 60 59 57 53 50 49 50 50 51 48 44 44 44 43 45 45 40 37 36 34 38 39 35 38 35 35 32 38 38 37 34 32 27 29 29 28 35 32
75 67 60 57 55 59 58 58 50 51 47 46 49 48 45 43 46 41 41 44 45 43 39 39 34 38 42 37 35 36 37 34 36 38 40 38 34 29 30 32 30 31 31
75 70 60 57 56 56 57 53 47 44 43 46 46 48 46 46 45 42 39 40 46 46 42 39 36 36 43 40 35 38 37 39 37 40 44 40 39 29 32 33 34 34 34
73 69 62 61 55 53 48 44 49 47 45 44 43 43 44 42 39 38 43 45 51 47 44 37 38 36 41 41 38 36 37 41 36 40 46 45 40 32 34 34 33 33 36
76 71 61 57 50 44 47 52 55 50 46 43 43 45 40 39 43 45 49 45 48 50 44 39 39 36 39 42 39 36 36 38 37 41 49 47 39 39 35 31 36 33 35